[[{"header":{"parameterUnit":"m.s-1","parameterCategory":1,"la1":31.0,"la2":29.5877,"lo1":-88.7671,"lo2":-86.6584,"dy":0.0162,"dx":0.0185,"nx":115,"ny":88,"refTime":"2026-04-20T00:00:00:Z","depth":0,"parameterNumber":2,"parameterNumberName":"U-component_of_WINDS"},"data":[0.0,0.0,0.0,0.0,0.0,0.0,0.0,0.0,0.0,0.0,0.0,0.0,0.0,0.0,0.0,0.0,0.0,0.0,0.0,0.0,0.0,0.0,0.0,0.0,0.0,0.0,0.0,0.0,0.0,0.0,0.0,0.0,0.0,0.0,0.0,0.0,0.0,0.0,0.0,0.0,0.0,0.0,0.0,0.0,0.0,0.0,0.0,0.0,0.0,0.0,0.0,0.0,0.0,0.0,0.0,0.0,0.0,0.0,0.0,0.0,0.0,0.0,0.0,0.0,0.0,0.0,0.0,0.0,0.0,0.0,0.0,0.0,0.0,0.0,0.0,0.0,0.0,0.0,0.0,0.0,0.0,0.0,0.0,0.0,0.0,0.0,0.0,0.0,0.0,0.0,0.0,0.0,0.0,0.0,0.0,0.0,0.0,0.0,0.0,0.0,0.0,0.0,0.0,0.0,0.0,0.0,0.0,0.0,0.0,0.0,0.0,0.0,0.0,0.0,0.0,0.0,0.0,0.0,0.0,0.0,0.0,0.0,0.0,0.0,0.0,0.0,0.0,0.0,0.0,0.0,0.0,0.0,0.0,0.0,0.0,0.0,0.0,0.0,0.0,0.0,0.0,0.0,0.0,0.0,0.0,0.0,0.0,0.0,0.0,0.0,0.0,0.0,0.0,0.0,0.0,0.0,0.0,0.0,0.0,0.0,0.0,0.0,0.0,0.0,0.0,0.0,0.0,0.0,0.0,0.0,0.0,0.0,0.0,0.0,0.0,0.0,0.0,0.0,0.0,0.0,0.0,0.0,0.0,0.0,0.0,0.0,0.0,0.0,0.0,0.0,0.0,0.0,0.0,0.0,0.0,0.0,0.0,0.0,0.0,0.0,0.0,0.0,0.0,0.0,0.0,0.0,0.0,0.0,0.0,0.0,0.0,0.0,0.0,0.0,0.0,0.0,0.0,0.0,0.0,0.0,0.0,0.0,0.0,0.0,0.0,0.0,0.0,0.0,0.0,0.0,0.0,0.0,0.0,0.0,0.0,0.0,0.0,0.0,0.0,0.0,0.0,0.0,0.0,0.0,0.0,0.0,0.0,0.0,0.0,0.0,0.0,0.0,0.0,0.0,0.0,0.0,0.0,0.0,0.0,0.0,0.0,0.0,0.0,0.0,0.0,0.0,0.0,0.0,0.0,0.0,0.0,0.0,0.0,0.0,0.0,0.0,0.0,0.0,0.0,0.0,0.0,0.0,0.0,0.0,0.0,0.0,0.0,0.0,0.0,0.0,0.0,0.0,0.0,0.0,0.0,0.0,0.0,0.0,0.0,0.0,0.0,0.0,0.0,0.0,0.0,0.0,0.0,0.0,0.0,0.0,0.0,0.0,0.0,0.0,0.0,0.0,0.0,0.0,0.0,0.0,0.0,0.0,0.0,0.0,0.0,0.0,0.0,0.0,0.0,0.0,0.0,0.0,0.0,0.0,0.0,0.0,0.0,0.0,0.0,0.0,0.0,0.0,0.0,0.0,0.0,0.0,0.0,0.0,0.0,0.0,0.0,0.0,0.0,0.0,0.0,0.0,0.0,0.0,0.0,0.0,0.0,0.0,0.0,0.0,0.0,0.0,0.0,0.0,0.0,0.0,0.0,0.0,0.0,0.0,0.0,0.0,0.0,0.0,0.0,0.0,0.0,0.0,0.0,0.0,0.0,0.0,0.0,0.0,0.0,0.0,0.0,0.0,0.0,0.0,0.0,0.0,0.0,0.0,0.0,0.0,0.0,0.0,0.0,0.0,0.0,0.0,0.0,0.0,0.0,0.0,0.0,0.0,0.0,0.0,0.0,0.0,0.0,0.0,0.0,0.0,0.0,0.0,0.0,0.0,0.0,0.0,0.0,0.0,0.0,0.0,0.0,0.0,0.0,0.0,0.0,0.0,0.0,0.0,0.0,0.0,0.0,0.0,0.0,0.0,0.0,0.0,0.0,0.0,0.0,0.0,0.0,0.0,0.0,0.0,0.0,0.0,0.0,0.0,0.0,0.0,0.0,0.0,0.0,0.0,0.0,0.0,0.0,0.0,0.0,0.0,0.0,0.0,0.0,0.0,0.0,0.0,0.0,0.0,0.0,0.0,0.0,0.0,0.0,0.0,0.0,0.0,0.0,0.0,0.0,0.0,0.0,0.0,0.0,0.0,0.0,0.0,0.0,0.0,0.0,0.0,0.0,0.0,0.0,0.0,0.0,0.0,0.0,0.0,0.0,0.0,0.0,0.0,0.0,0.0,0.0,0.0,0.0,0.0,0.0,0.0,0.0,0.0,0.0,0.0,0.0,0.0,0.0,0.0,0.0,0.0,0.0,0.0,0.0,0.0,0.0,0.0,0.0,0.0,0.0,0.0,0.0,0.0,0.0,0.0,0.0,0.0,0.0,0.0,0.0,0.0,0.0,0.0,0.0,0.0,0.0,0.0,0.0,0.0,0.0,0.0,0.0,0.0,0.0,0.0,0.0,0.0,0.0,0.0,0.0,0.0,0.0,0.0,0.0,0.0,0.0,0.0,0.0,0.0,0.0,0.0,0.0,0.0,0.0,0.0,0.0,0.0,0.0,0.0,0.0,0.0,0.0,0.0,0.0,0.0,0.0,0.0,0.0,0.0,0.0,0.0,0.0,0.0,0.0,0.0,0.0,0.0,0.0,0.0,0.0,0.0,0.0,0.0,0.0,0.0,0.0,0.0,0.0,0.0,0.0,0.0,0.0,0.0,0.0,0.0,0.0,0.0,0.0,0.0,0.0,0.0,0.0,0.0,0.0,0.0,0.0,0.0,0.0,0.0,0.0,0.0,0.0,0.0,0.0,0.0,0.0,0.0,0.0,0.0,0.0,0.0,0.0,0.0,0.0,0.0,0.0,0.0,0.0,0.0,0.0,0.0,0.0,0.0,0.0,0.0,0.0,0.0,0.0,0.0,0.0,0.0,0.0,0.0,0.0,0.0,0.0,0.0,0.0,0.0,0.0,0.0,0.0,0.0,0.0,0.0,0.0,0.0,0.0,0.0,0.0,0.0,0.0,0.0,0.0,0.0,0.0,0.0,0.0,0.0,0.0,0.0,0.0,0.0,0.0,0.0,0.0,0.0,0.0,0.0,0.0,0.0,0.0,0.0,0.0,0.0,0.0,0.0,0.0,0.0,0.0,0.0,0.0,0.0,0.0,0.0,0.0,0.0,0.0,0.0,0.0,0.0,0.0,0.0,0.0,0.0,0.0,0.0,0.0,0.0,0.0,0.0,0.0,0.0,0.0,0.0,0.0,0.0,0.0,0.0,0.0,0.0,0.0,0.0,0.0,0.0,0.0,0.0,0.0,0.0,0.0,0.0,0.0,0.0,0.0,0.0,0.0,0.0,0.0,0.0,0.0,0.0,0.0,0.0,0.0,0.0,0.0,0.0,0.0,0.0,0.0,0.0,0.0,0.0,0.0,0.0,0.0,0.0,0.0,0.0,0.0,0.0,0.0,0.0,0.0,0.0,0.0,0.0,0.0,0.0,0.0,0.0,0.0,0.0,0.0,0.0,0.0,0.0,0.0,0.0,0.0,0.0,0.0,0.0,0.0,0.0,0.0,0.0,0.0,0.0,0.0,0.0,0.0,0.0,0.0,0.0,0.0,0.0,0.0,0.0,0.0,0.0,0.0,0.0,0.0,0.0,0.0,0.0,0.0,0.0,0.0,0.0,0.0,0.0,0.0,0.0,0.0,0.0,0.0,0.0,0.0,0.0,0.0,0.0,0.0,0.0,0.0,0.0,0.0,0.0,0.0,0.0,0.0,0.0,0.0,0.0,0.0,0.0,0.0,0.0,0.0,0.0,0.0,0.0,0.0,0.0,0.0,0.0,0.0,0.0,0.0,0.0,0.0,0.0,0.0,0.0,0.0,0.0,0.0,0.0,0.0,0.0,0.0,0.0,0.0,0.0,0.0,0.0,0.0,0.0,0.0,0.0,0.0,0.0,0.0,0.0,0.0,0.0,0.0,0.0,0.0,0.0,0.0,0.0,0.0,0.0,0.0,0.0,0.0,0.0,0.0,0.0,0.0,0.0,0.0,0.0,0.0,0.0,0.0,0.0,0.0,0.0,0.0,0.0,0.0,0.0,0.0,0.0,0.0,0.0,0.0,0.0,0.0,0.0,0.0,0.0,0.0,0.0,0.0,0.0,0.0,0.0,0.0,0.0,0.0,0.0,0.0,0.0,0.0,0.0,0.0,0.0,0.0,0.0,0.0,0.0,0.0,0.0,-2.4634,0.0,0.0,0.0,0.0,0.0,0.0,0.0,0.0,0.0,0.0,0.0,0.0,0.0,0.0,0.0,0.0,0.0,0.0,0.0,0.0,0.0,0.0,0.0,0.0,0.0,0.0,0.0,0.0,0.0,0.0,0.0,0.0,0.0,0.0,0.0,0.0,0.0,0.0,0.0,0.0,0.0,0.0,0.0,0.0,0.0,0.0,0.0,0.0,0.0,0.0,0.0,0.0,0.0,0.0,0.0,0.0,0.0,0.0,0.0,0.0,0.0,0.0,0.0,0.0,0.0,0.0,0.0,0.0,0.0,0.0,0.0,0.0,0.0,0.0,0.0,0.0,0.0,0.0,0.0,0.0,0.0,0.0,0.0,0.0,0.0,0.0,0.0,0.0,0.0,0.0,0.0,0.0,0.0,0.0,0.0,0.0,0.0,0.0,0.0,0.0,0.0,0.0,0.0,0.0,0.0,0.0,0.0,0.0,0.0,0.0,-2.7465,-2.7136,-2.6482,-2.5824,-2.5143,0.0,0.0,0.0,0.0,0.0,0.0,0.0,0.0,0.0,0.0,0.0,0.0,0.0,0.0,0.0,0.0,0.0,0.0,0.0,0.0,0.0,0.0,0.0,0.0,0.0,0.0,0.0,0.0,0.0,0.0,0.0,0.0,0.0,0.0,0.0,0.0,0.0,0.0,0.0,0.0,0.0,0.0,0.0,0.0,0.0,0.0,0.0,0.0,0.0,0.0,0.0,0.0,0.0,0.0,0.0,0.0,0.0,0.0,0.0,0.0,0.0,0.0,0.0,0.0,0.0,0.0,0.0,0.0,0.0,0.0,0.0,0.0,0.0,0.0,0.0,0.0,0.0,0.0,0.0,0.0,0.0,0.0,0.0,0.0,0.0,0.0,0.0,0.0,0.0,0.0,0.0,0.0,0.0,0.0,0.0,0.0,0.0,0.0,0.0,0.0,0.0,0.0,0.0,0.0,0.0,0.0,0.0,0.0,0.0,0.0,0.0,0.0,-2.7195,-2.6422,-2.5615,0.0,0.0,0.0,0.0,0.0,0.0,0.0,0.0,0.0,0.0,0.0,0.0,0.0,0.0,0.0,0.0,0.0,0.0,0.0,0.0,0.0,0.0,0.0,0.0,0.0,0.0,0.0,0.0,0.0,0.0,0.0,0.0,0.0,0.0,0.0,0.0,0.0,0.0,0.0,0.0,0.0,0.0,0.0,0.0,0.0,0.0,0.0,0.0,0.0,0.0,0.0,0.0,0.0,0.0,0.0,0.0,0.0,0.0,0.0,0.0,0.0,0.0,0.0,0.0,0.0,0.0,0.0,0.0,0.0,0.0,0.0,0.0,0.0,0.0,0.0,0.0,0.0,0.0,0.0,0.0,0.0,0.0,0.0,0.0,0.0,0.0,0.0,0.0,0.0,0.0,0.0,0.0,0.0,0.0,0.0,0.0,0.0,0.0,0.0,0.0,0.0,0.0,0.0,0.0,0.0,0.0,0.0,0.0,0.0,0.0,-2.7914,-2.8487,-2.7854,0.0,-2.5674,0.0,0.0,0.0,0.0,0.0,0.0,0.0,0.0,0.0,0.0,0.0,0.0,0.0,0.0,0.0,0.0,0.0,0.0,0.0,0.0,0.0,0.0,0.0,0.0,0.0,0.0,0.0,0.0,0.0,0.0,0.0,0.0,0.0,0.0,0.0,0.0,0.0,0.0,0.0,0.0,0.0,0.0,0.0,0.0,0.0,0.0,0.0,0.0,0.0,0.0,0.0,0.0,0.0,0.0,0.0,0.0,0.0,0.0,0.0,0.0,0.0,0.0,0.0,0.0,0.0,0.0,0.0,0.0,0.0,0.0,0.0,0.0,0.0,0.0,0.0,0.0,0.0,0.0,0.0,0.0,0.0,0.0,0.0,0.0,0.0,0.0,0.0,0.0,0.0,0.0,0.0,0.0,0.0,0.0,0.0,0.0,0.0,0.0,0.0,0.0,0.0,0.0,0.0,0.0,0.0,0.0,0.0,0.0,0.0,0.0,-2.8308,-2.8577,-2.7585,-2.6776,0.0,0.0,0.0,0.0,0.0,0.0,0.0,0.0,0.0,0.0,0.0,0.0,0.0,0.0,0.0,0.0,0.0,0.0,0.0,0.0,0.0,0.0,0.0,0.0,0.0,0.0,0.0,0.0,0.0,0.0,0.0,0.0,0.0,0.0,0.0,0.0,0.0,0.0,0.0,0.0,0.0,0.0,0.0,0.0,0.0,0.0,0.0,0.0,0.0,0.0,0.0,0.0,0.0,0.0,0.0,0.0,0.0,0.0,0.0,0.0,0.0,0.0,0.0,0.0,0.0,0.0,0.0,0.0,0.0,0.0,0.0,0.0,0.0,0.0,0.0,0.0,0.0,0.0,0.0,0.0,0.0,0.0,0.0,0.0,0.0,0.0,0.0,0.0,0.0,0.0,0.0,0.0,0.0,0.0,0.0,0.0,0.0,0.0,0.0,0.0,0.0,0.0,0.0,0.0,0.0,0.0,0.0,0.0,0.0,0.0,-2.8457,0.0,-2.8547,-2.747,-2.6716,-2.6333,0.0,0.0,0.0,0.0,0.0,0.0,0.0,0.0,0.0,0.0,0.0,0.0,0.0,0.0,0.0,0.0,0.0,0.0,0.0,0.0,0.0,0.0,0.0,0.0,0.0,0.0,0.0,0.0,0.0,0.0,0.0,0.0,0.0,0.0,0.0,0.0,0.0,0.0,0.0,0.0,0.0,0.0,0.0,0.0,0.0,0.0,0.0,0.0,0.0,0.0,0.0,0.0,0.0,0.0,0.0,0.0,0.0,0.0,0.0,0.0,0.0,0.0,0.0,0.0,0.0,0.0,0.0,0.0,0.0,0.0,0.0,0.0,0.0,0.0,0.0,0.0,0.0,0.0,0.0,0.0,0.0,0.0,0.0,0.0,0.0,0.0,0.0,0.0,0.0,0.0,0.0,0.0,0.0,0.0,0.0,0.0,0.0,0.0,0.0,0.0,0.0,0.0,0.0,0.0,0.0,0.0,0.0,0.0,0.0,-2.8906,-2.8607,-2.8637,-2.7914,-2.6956,0.0,0.0,0.0,0.0,0.0,0.0,0.0,0.0,0.0,0.0,0.0,0.0,0.0,0.0,0.0,0.0,0.0,0.0,0.0,0.0,0.0,0.0,0.0,0.0,0.0,0.0,0.0,0.0,0.0,0.0,0.0,0.0,0.0,0.0,0.0,0.0,0.0,0.0,0.0,0.0,0.0,0.0,0.0,0.0,0.0,0.0,0.0,0.0,0.0,0.0,0.0,0.0,0.0,0.0,0.0,0.0,0.0,0.0,0.0,0.0,0.0,0.0,0.0,0.0,0.0,0.0,0.0,0.0,0.0,0.0,0.0,0.0,0.0,0.0,0.0,0.0,0.0,0.0,0.0,0.0,0.0,0.0,0.0,0.0,0.0,0.0,0.0,0.0,0.0,0.0,0.0,0.0,0.0,0.0,0.0,0.0,0.0,0.0,0.0,0.0,0.0,0.0,0.0,0.0,0.0,0.0,0.0,0.0,0.0,-2.8304,-2.8487,-2.8996,-2.9714,-2.7949,-2.6746,0.0,0.0,0.0,0.0,0.0,0.0,0.0,0.0,0.0,0.0,0.0,0.0,0.0,0.0,0.0,0.0,0.0,0.0,0.0,0.0,0.0,0.0,0.0,0.0,0.0,0.0,0.0,0.0,0.0,0.0,0.0,0.0,0.0,0.0,0.0,0.0,0.0,0.0,0.0,0.0,0.0,0.0,0.0,0.0,0.0,0.0,0.0,0.0,0.0,0.0,0.0,0.0,0.0,0.0,0.0,0.0,0.0,0.0,0.0,0.0,0.0,0.0,0.0,0.0,0.0,0.0,0.0,0.0,0.0,0.0,0.0,0.0,0.0,0.0,0.0,0.0,0.0,0.0,0.0,0.0,0.0,0.0,0.0,0.0,0.0,0.0,0.0,0.0,0.0,0.0,0.0,0.0,0.0,0.0,0.0,0.0,0.0,0.0,0.0,0.0,0.0,0.0,0.0,0.0,0.0,0.0,0.0,0.0,0.0,-2.7525,0.0,-2.8642,0.0,-2.744,-2.6238,0.0,0.0,0.0,0.0,0.0,0.0,0.0,0.0,0.0,0.0,0.0,0.0,0.0,0.0,0.0,0.0,0.0,0.0,0.0,0.0,0.0,0.0,0.0,0.0,0.0,0.0,0.0,0.0,0.0,0.0,0.0,0.0,0.0,0.0,0.0,0.0,0.0,0.0,0.0,0.0,0.0,0.0,0.0,0.0,0.0,0.0,0.0,0.0,0.0,0.0,0.0,0.0,0.0,0.0,0.0,0.0,0.0,0.0,0.0,0.0,0.0,0.0,0.0,0.0,0.0,0.0,0.0,0.0,0.0,0.0,0.0,0.0,0.0,0.0,0.0,0.0,0.0,0.0,0.0,0.0,0.0,0.0,0.0,0.0,0.0,0.0,0.0,0.0,0.0,0.0,0.0,0.0,0.0,0.0,0.0,0.0,0.0,0.0,0.0,0.0,0.0,0.0,0.0,0.0,0.0,0.0,0.0,0.0,-2.6828,-2.7305,-2.7814,-2.759,-2.6422,-2.6388,-2.5513,0.0,0.0,0.0,0.0,0.0,0.0,0.0,0.0,0.0,0.0,0.0,0.0,0.0,0.0,0.0,0.0,0.0,0.0,0.0,0.0,0.0,0.0,0.0,0.0,0.0,0.0,0.0,0.0,0.0,0.0,0.0,0.0,0.0,0.0,0.0,0.0,0.0,0.0,0.0,0.0,0.0,0.0,0.0,0.0,0.0,0.0,0.0,0.0,0.0,0.0,0.0,0.0,0.0,0.0,0.0,0.0,0.0,0.0,0.0,0.0,0.0,0.0,0.0,0.0,0.0,0.0,0.0,0.0,0.0,0.0,0.0,0.0,0.0,0.0,0.0,0.0,0.0,0.0,0.0,0.0,0.0,0.0,0.0,0.0,0.0,0.0,0.0,0.0,0.0,0.0,0.0,0.0,0.0,0.0,0.0,0.0,0.0,0.0,0.0,0.0,0.0,0.0,0.0,0.0,0.0,0.0,0.0,0.0,0.0,-2.8181,-2.8196,-2.8253,-2.834,-2.7153,-2.5991,0.0,0.0,0.0,0.0,0.0,0.0,0.0,0.0,0.0,0.0,0.0,0.0,0.0,0.0,0.0,0.0,0.0,0.0,0.0,0.0,0.0,0.0,0.0,0.0,0.0,0.0,0.0,0.0,0.0,0.0,0.0,0.0,0.0,0.0,0.0,0.0,0.0,0.0,0.0,0.0,0.0,0.0,0.0,0.0,0.0,0.0,0.0,0.0,0.0,0.0,0.0,0.0,0.0,0.0,0.0,0.0,0.0,0.0,0.0,0.0,0.0,0.0,0.0,0.0,0.0,0.0,0.0,0.0,0.0,0.0,0.0,0.0,0.0,0.0,0.0,0.0,0.0,0.0,0.0,0.0,0.0,0.0,0.0,0.0,0.0,0.0,0.0,0.0,0.0,0.0,0.0,0.0,0.0,0.0,0.0,0.0,0.0,0.0,0.0,0.0,0.0,0.0,0.0,0.0,0.0,0.0,0.0,0.0,0.0,-2.8626,-2.8529,-2.857,-2.8787,-2.7781,-2.663,-2.5337,0.0,0.0,0.0,0.0,0.0,0.0,0.0,0.0,0.0,0.0,0.0,0.0,0.0,0.0,0.0,0.0,0.0,0.0,0.0,0.0,0.0,0.0,0.0,0.0,0.0,0.0,0.0,0.0,0.0,0.0,0.0,0.0,0.0,0.0,0.0,0.0,0.0,0.0,0.0,0.0,0.0,0.0,0.0,0.0,0.0,0.0,0.0,0.0,0.0,0.0,0.0,0.0,0.0,0.0,0.0,0.0,0.0,0.0,0.0,0.0,0.0,0.0,0.0,0.0,0.0,0.0,0.0,0.0,0.0,0.0,0.0,0.0,0.0,0.0,0.0,0.0,0.0,0.0,0.0,0.0,0.0,0.0,0.0,0.0,0.0,0.0,0.0,0.0,0.0,0.0,0.0,0.0,0.0,0.0,0.0,0.0,0.0,0.0,0.0,0.0,0.0,0.0,0.0,0.0,0.0,0.0,0.0,0.0,-2.889,-2.8859,-2.8591,-2.8071,-2.8133,-2.7311,0.0,0.0,0.0,0.0,0.0,0.0,0.0,0.0,0.0,0.0,0.0,0.0,0.0,0.0,0.0,0.0,0.0,0.0,0.0,0.0,0.0,0.0,0.0,0.0,0.0,0.0,0.0,0.0,0.0,0.0,0.0,0.0,0.0,0.0,0.0,0.0,0.0,0.0,0.0,0.0,0.0,0.0,0.0,0.0,0.0,0.0,0.0,0.0,0.0,0.0,0.0,0.0,0.0,0.0,0.0,0.0,0.0,0.0,0.0,0.0,0.0,0.0,0.0,0.0,0.0,0.0,0.0,0.0,0.0,0.0,0.0,0.0,0.0,0.0,0.0,0.0,0.0,0.0,0.0,0.0,0.0,0.0,0.0,0.0,0.0,0.0,0.0,0.0,0.0,0.0,0.0,0.0,0.0,0.0,0.0,0.0,0.0,0.0,0.0,0.0,0.0,0.0,0.0,0.0,0.0,0.0,0.0,0.0,0.0,-2.9934,-3.036,-2.9848,-2.8399,-2.7708,-2.6883,0.0,0.0,0.0,0.0,0.0,0.0,0.0,0.0,0.0,0.0,0.0,0.0,0.0,0.0,0.0,0.0,0.0,0.0,0.0,0.0,0.0,0.0,0.0,0.0,0.0,0.0,0.0,0.0,0.0,0.0,0.0,0.0,0.0,0.0,0.0,0.0,0.0,0.0,0.0,0.0,0.0,0.0,0.0,0.0,0.0,0.0,0.0,0.0,0.0,0.0,0.0,0.0,0.0,0.0,0.0,0.0,0.0,0.0,0.0,0.0,0.0,0.0,0.0,0.0,0.0,0.0,0.0,0.0,0.0,0.0,0.0,0.0,0.0,0.0,0.0,0.0,0.0,0.0,0.0,0.0,0.0,0.0,0.0,0.0,0.0,0.0,0.0,0.0,0.0,0.0,0.0,0.0,0.0,0.0,0.0,0.0,0.0,0.0,0.0,0.0,0.0,0.0,0.0,0.0,0.0,0.0,0.0,0.0,-2.9326,-3.0154,-3.0867,-3.0582,-2.9099,-2.8711,-2.7961,0.0,0.0,0.0,0.0,0.0,0.0,0.0,0.0,0.0,0.0,0.0,0.0,0.0,0.0,0.0,0.0,0.0,0.0,0.0,0.0,0.0,0.0,0.0,0.0,0.0,0.0,0.0,0.0,0.0,0.0,0.0,0.0,0.0,0.0,0.0,0.0,0.0,0.0,0.0,0.0,0.0,0.0,0.0,0.0,0.0,0.0,0.0,0.0,0.0,0.0,0.0,0.0,0.0,0.0,0.0,0.0,0.0,0.0,0.0,0.0,0.0,0.0,0.0,0.0,0.0,0.0,0.0,0.0,0.0,0.0,0.0,0.0,0.0,0.0,0.0,0.0,0.0,0.0,0.0,0.0,0.0,0.0,0.0,0.0,0.0,0.0,0.0,0.0,0.0,0.0,0.0,0.0,0.0,0.0,0.0,0.0,0.0,0.0,0.0,0.0,0.0,0.0,0.0,0.0,0.0,0.0,0.0,0.0,-2.9501,-2.9969,-3.0934,-3.1009,-3.0094,-3.0236,-2.9574,0.0,0.0,0.0,0.0,0.0,0.0,0.0,0.0,0.0,0.0,0.0,0.0,0.0,0.0,0.0,0.0,0.0,0.0,0.0,0.0,0.0,0.0,0.0,0.0,0.0,0.0,0.0,0.0,0.0,0.0,0.0,0.0,0.0,0.0,0.0,0.0,0.0,0.0,0.0,0.0,0.0,0.0,0.0,0.0,0.0,0.0,0.0,0.0,0.0,0.0,0.0,0.0,0.0,0.0,0.0,0.0,0.0,0.0,0.0,0.0,0.0,0.0,0.0,0.0,0.0,0.0,0.0,0.0,0.0,0.0,0.0,0.0,0.0,0.0,0.0,0.0,0.0,0.0,0.0,0.0,0.0,0.0,0.0,0.0,0.0,0.0,0.0,0.0,0.0,0.0,0.0,0.0,0.0,0.0,0.0,0.0,0.0,0.0,0.0,0.0,0.0,0.0,0.0,0.0,0.0,0.0,0.0,0.0,-3.0223,-3.105,-3.1712,-3.1938,-3.1712,-2.9669,-2.8603,0.0,0.0,0.0,0.0,0.0,0.0,0.0,0.0,0.0,0.0,0.0,0.0,0.0,0.0,0.0,0.0,0.0,0.0,0.0,0.0,0.0,0.0,0.0,0.0,0.0,0.0,0.0,0.0,0.0,0.0,0.0,0.0,0.0,0.0,0.0,0.0,0.0,0.0,0.0,0.0,0.0,0.0,0.0,0.0,0.0,0.0,0.0,0.0,-2.044,0.0,0.0,0.0,0.0,0.0,0.0,0.0,0.0,0.0,0.0,0.0,0.0,0.0,0.0,0.0,0.0,0.0,0.0,0.0,0.0,0.0,0.0,0.0,0.0,0.0,0.0,0.0,0.0,0.0,0.0,0.0,0.0,0.0,0.0,0.0,0.0,0.0,0.0,0.0,0.0,0.0,0.0,0.0,0.0,0.0,0.0,0.0,0.0,0.0,0.0,0.0,0.0,0.0,0.0,0.0,0.0,0.0,0.0,0.0,-3.0775,-3.1738,-3.234,-3.2491,-3.2164,-3.0306,-2.9189,0.0,0.0,0.0,0.0,0.0,0.0,0.0,0.0,0.0,0.0,0.0,0.0,0.0,0.0,0.0,0.0,0.0,0.0,0.0,0.0,0.0,0.0,0.0,0.0,0.0,0.0,0.0,0.0,0.0,0.0,0.0,0.0,0.0,0.0,0.0,0.0,0.0,0.0,0.0,0.0,0.0,0.0,0.0,0.0,0.0,0.0,0.0,0.0,0.0,0.0,0.0,0.0,0.0,0.0,0.0,0.0,0.0,0.0,0.0,0.0,0.0,0.0,0.0,0.0,0.0,0.0,0.0,0.0,0.0,0.0,0.0,0.0,0.0,0.0,0.0,0.0,0.0,0.0,0.0,0.0,0.0,0.0,0.0,0.0,0.0,0.0,0.0,0.0,0.0,0.0,0.0,0.0,0.0,0.0,0.0,0.0,0.0,0.0,0.0,0.0,0.0,0.0,0.0,0.0,0.0,0.0,0.0,-2.9528,-3.1035,-3.2164,-3.2767,-3.2842,-3.234,-3.1311,-3.0342,-2.951,0.0,0.0,0.0,0.0,0.0,0.0,0.0,0.0,0.0,0.0,0.0,0.0,0.0,0.0,0.0,0.0,0.0,0.0,0.0,0.0,0.0,0.0,0.0,0.0,0.0,0.0,0.0,0.0,0.0,0.0,0.0,0.0,0.0,0.0,0.0,0.0,0.0,0.0,-2.2318,-2.3401,0.0,0.0,0.0,0.0,0.0,0.0,0.0,0.0,-2.1219,0.0,0.0,0.0,0.0,0.0,0.0,0.0,0.0,0.0,0.0,0.0,0.0,0.0,0.0,0.0,0.0,0.0,0.0,0.0,0.0,0.0,0.0,0.0,0.0,0.0,0.0,0.0,0.0,0.0,0.0,0.0,0.0,0.0,0.0,0.0,0.0,0.0,0.0,0.0,0.0,0.0,0.0,0.0,0.0,0.0,0.0,0.0,0.0,0.0,0.0,0.0,0.0,0.0,0.0,0.0,0.0,-2.9365,-2.9754,-3.0658,-3.2164,-3.2767,-3.3043,-3.296,-3.1838,-3.108,-3.0655,0.0,0.0,0.0,0.0,0.0,0.0,0.0,0.0,0.0,0.0,0.0,0.0,0.0,0.0,0.0,0.0,0.0,0.0,0.0,0.0,0.0,0.0,0.0,0.0,0.0,0.0,0.0,0.0,0.0,0.0,0.0,0.0,0.0,0.0,0.0,0.0,0.0,0.0,0.0,-2.3948,-2.4506,0.0,0.0,0.0,0.0,0.0,0.0,0.0,0.0,-2.1295,0.0,0.0,0.0,0.0,0.0,0.0,0.0,0.0,0.0,0.0,0.0,0.0,0.0,0.0,0.0,0.0,0.0,0.0,0.0,0.0,0.0,0.0,0.0,0.0,0.0,0.0,0.0,0.0,0.0,0.0,0.0,0.0,0.0,0.0,0.0,0.0,0.0,0.0,0.0,0.0,0.0,0.0,0.0,0.0,0.0,0.0,0.0,0.0,0.0,0.0,0.0,0.0,0.0,0.0,0.0,-2.9277,-3.0457,-3.1562,-3.2616,-3.2918,-3.3136,-3.3086,-3.1712,-3.0953,0.0,0.0,0.0,0.0,0.0,0.0,0.0,0.0,0.0,0.0,0.0,0.0,0.0,0.0,0.0,0.0,0.0,0.0,0.0,0.0,0.0,0.0,0.0,0.0,0.0,0.0,0.0,0.0,0.0,0.0,0.0,0.0,0.0,0.0,0.0,0.0,0.0,0.0,0.0,0.0,-2.4707,-2.5134,-2.4858,0.0,0.0,0.0,0.0,0.0,0.0,-2.2121,-2.2121,0.0,0.0,0.0,0.0,0.0,0.0,0.0,0.0,0.0,0.0,0.0,0.0,0.0,0.0,0.0,0.0,0.0,0.0,0.0,0.0,0.0,0.0,0.0,0.0,0.0,0.0,0.0,0.0,0.0,0.0,0.0,0.0,0.0,0.0,0.0,0.0,0.0,0.0,0.0,0.0,0.0,0.0,0.0,0.0,0.0,0.0,0.0,0.0,0.0,0.0,0.0,0.0,0.0,0.0,0.0,-2.9239,-3.111,-3.2441,-3.3194,-3.3144,-3.3136,-3.3086,-3.1562,-3.0865,0.0,0.0,0.0,0.0,0.0,0.0,0.0,0.0,0.0,0.0,0.0,0.0,0.0,0.0,0.0,0.0,0.0,0.0,0.0,0.0,0.0,0.0,0.0,0.0,0.0,0.0,0.0,0.0,0.0,0.0,0.0,0.0,0.0,0.0,0.0,0.0,0.0,0.0,0.0,0.0,0.0,-2.5988,-2.5636,-2.5234,0.0,0.0,0.0,0.0,-2.2899,-2.3246,0.0,0.0,0.0,0.0,0.0,0.0,0.0,0.0,0.0,0.0,0.0,0.0,0.0,0.0,0.0,0.0,0.0,0.0,0.0,0.0,0.0,0.0,0.0,0.0,0.0,0.0,0.0,0.0,0.0,0.0,0.0,0.0,0.0,0.0,0.0,0.0,0.0,0.0,0.0,0.0,0.0,0.0,0.0,0.0,0.0,0.0,0.0,0.0,0.0,0.0,0.0,0.0,0.0,0.0,0.0,0.0,-3.0331,-3.111,-3.224,-3.3696,-3.3319,-3.3136,-3.3111,-3.1913,-3.1221,0.0,0.0,0.0,0.0,0.0,0.0,0.0,0.0,0.0,0.0,0.0,0.0,0.0,0.0,0.0,0.0,0.0,0.0,0.0,0.0,0.0,0.0,0.0,0.0,0.0,0.0,0.0,0.0,0.0,0.0,0.0,0.0,0.0,0.0,0.0,0.0,0.0,0.0,0.0,0.0,0.0,-2.7268,-2.5812,-2.5536,-2.531,0.0,0.0,-2.4607,-2.4499,-2.4983,0.0,0.0,0.0,0.0,0.0,0.0,0.0,0.0,0.0,0.0,0.0,0.0,0.0,0.0,0.0,0.0,0.0,0.0,0.0,0.0,0.0,0.0,0.0,0.0,0.0,0.0,0.0,0.0,0.0,0.0,0.0,0.0,0.0,0.0,0.0,0.0,0.0,0.0,0.0,0.0,0.0,0.0,0.0,0.0,0.0,0.0,0.0,0.0,0.0,0.0,0.0,0.0,0.0,0.0,0.0,-2.8298,-3.0131,-3.1612,-3.2734,-3.3395,-3.3194,-3.3136,-3.3111,-3.1687,-3.0565,0.0,0.0,0.0,0.0,0.0,0.0,0.0,0.0,0.0,0.0,0.0,0.0,0.0,0.0,0.0,0.0,0.0,0.0,0.0,0.0,0.0,0.0,0.0,0.0,0.0,0.0,0.0,0.0,0.0,0.0,0.0,0.0,0.0,0.0,0.0,0.0,0.0,0.0,0.0,0.0,0.0,0.0,-2.7017,-2.6741,0.0,0.0,0.0,-2.5884,-2.4949,0.0,0.0,0.0,0.0,0.0,0.0,0.0,0.0,0.0,0.0,0.0,0.0,0.0,0.0,0.0,0.0,0.0,0.0,0.0,0.0,0.0,0.0,0.0,0.0,0.0,0.0,0.0,0.0,0.0,0.0,0.0,0.0,0.0,0.0,0.0,0.0,0.0,0.0,0.0,0.0,0.0,0.0,0.0,0.0,0.0,0.0,0.0,0.0,0.0,0.0,0.0,0.0,0.0,0.0,0.0,0.0,0.0,-3.0005,-3.2081,-3.3144,-3.3269,-3.3144,-3.3136,-3.3086,-3.1612,0.0,0.0,0.0,0.0,0.0,0.0,0.0,0.0,0.0,0.0,0.0,0.0,0.0,0.0,0.0,0.0,0.0,0.0,0.0,0.0,0.0,0.0,0.0,0.0,0.0,0.0,0.0,-1.8656,0.0,0.0,0.0,0.0,0.0,0.0,0.0,0.0,0.0,0.0,0.0,0.0,0.0,0.0,-2.7369,-2.8197,-2.8072,-2.7971,0.0,0.0,-2.6981,-2.5658,-2.643,-2.6008,0.0,0.0,0.0,0.0,0.0,0.0,0.0,0.0,0.0,0.0,0.0,0.0,0.0,0.0,0.0,0.0,0.0,0.0,0.0,0.0,0.0,0.0,0.0,0.0,0.0,0.0,0.0,0.0,0.0,0.0,0.0,0.0,0.0,0.0,0.0,0.0,0.0,0.0,0.0,0.0,0.0,0.0,0.0,0.0,0.0,0.0,0.0,0.0,0.0,0.0,0.0,0.0,0.0,0.0,0.0,-3.0557,-3.2215,-3.3319,-3.3822,-3.3345,-3.3136,-3.3068,-3.1938,-3.0583,0.0,0.0,0.0,0.0,0.0,0.0,0.0,0.0,0.0,0.0,0.0,0.0,0.0,0.0,0.0,0.0,0.0,0.0,0.0,0.0,0.0,0.0,0.0,0.0,0.0,0.0,0.0,0.0,0.0,0.0,0.0,0.0,0.0,0.0,0.0,0.0,0.0,0.0,0.0,0.0,0.0,-2.8762,-2.8813,-2.9302,-2.9804,0.0,0.0,-2.7696,-2.7189,-2.7105,-2.5918,-2.2444,0.0,0.0,0.0,0.0,0.0,0.0,0.0,0.0,0.0,0.0,0.0,0.0,0.0,0.0,0.0,0.0,0.0,0.0,0.0,0.0,0.0,0.0,0.0,0.0,0.0,0.0,0.0,0.0,0.0,0.0,0.0,0.0,0.0,0.0,0.0,0.0,0.0,0.0,0.0,0.0,0.0,0.0,0.0,0.0,0.0,0.0,0.0,0.0,0.0,0.0,0.0,0.0,0.0,-2.8775,-3.0105,-3.2064,-3.3169,-3.337,-3.3237,-3.3136,-3.3136,-3.1964,-3.0457,0.0,0.0,0.0,0.0,0.0,0.0,0.0,0.0,0.0,0.0,0.0,0.0,0.0,0.0,0.0,0.0,0.0,0.0,0.0,0.0,0.0,0.0,0.0,0.0,0.0,0.0,0.0,0.0,-2.0715,-2.1142,-2.129,0.0,0.0,0.0,0.0,0.0,0.0,0.0,0.0,0.0,0.0,-2.6831,-2.7988,-2.8081,0.0,0.0,-2.8215,-2.7411,-2.6289,-2.6457,-2.5502,-2.2042,-2.1544,0.0,0.0,0.0,0.0,0.0,0.0,0.0,0.0,0.0,0.0,0.0,0.0,0.0,0.0,0.0,0.0,0.0,0.0,0.0,0.0,0.0,0.0,0.0,0.0,0.0,0.0,0.0,0.0,0.0,0.0,0.0,0.0,0.0,0.0,0.0,0.0,0.0,0.0,0.0,0.0,0.0,0.0,0.0,0.0,0.0,0.0,0.0,0.0,0.0,0.0,0.0,0.0,-2.8674,-2.9779,-3.2005,-3.3136,-3.3136,-3.3136,-3.3136,-3.3086,-3.2139,-3.0683,0.0,0.0,0.0,0.0,0.0,0.0,0.0,0.0,0.0,0.0,0.0,0.0,0.0,0.0,0.0,0.0,0.0,0.0,0.0,0.0,0.0,0.0,0.0,0.0,0.0,0.0,0.0,0.0,-2.192,-2.2121,-2.2297,0.0,0.0,0.0,0.0,0.0,0.0,0.0,0.0,0.0,0.0,-2.5872,-2.7541,-2.7453,-2.7342,-2.7785,-2.737,-2.6628,-2.563,-2.5615,-2.4703,-2.1866,0.0,0.0,0.0,0.0,0.0,0.0,0.0,0.0,0.0,0.0,0.0,0.0,0.0,0.0,0.0,0.0,0.0,0.0,0.0,0.0,0.0,0.0,0.0,0.0,0.0,0.0,0.0,-2.8122,0.0,0.0,-2.6549,0.0,0.0,0.0,0.0,0.0,0.0,0.0,0.0,0.0,0.0,0.0,0.0,0.0,0.0,0.0,0.0,0.0,0.0,0.0,0.0,0.0,0.0,-2.8674,-2.9843,-3.1989,-3.3136,-3.3136,-3.3136,-3.3136,-3.3111,-3.2491,-3.1411,-2.9729,0.0,0.0,0.0,0.0,0.0,0.0,0.0,0.0,0.0,0.0,0.0,0.0,0.0,0.0,0.0,0.0,0.0,0.0,0.0,0.0,0.0,0.0,0.0,0.0,0.0,0.0,-2.2318,-2.182,-2.1744,0.0,0.0,0.0,0.0,0.0,0.0,0.0,0.0,0.0,0.0,-2.565,-2.6629,-2.7696,-2.783,-2.7786,-2.8005,-2.6562,-2.5478,-2.5544,-2.4621,-2.3428,0.0,0.0,0.0,0.0,0.0,0.0,0.0,0.0,0.0,0.0,0.0,0.0,0.0,0.0,0.0,0.0,0.0,0.0,0.0,0.0,0.0,0.0,0.0,0.0,0.0,0.0,0.0,-3.0984,-3.0281,0.0,0.0,0.0,0.0,0.0,0.0,0.0,0.0,0.0,0.0,0.0,-3.111,-3.1069,0.0,0.0,0.0,0.0,0.0,0.0,0.0,0.0,0.0,0.0,0.0,0.0,-2.9578,-3.0407,-3.2516,-3.3445,-3.3136,-3.3136,-3.3136,-3.3068,-3.2516,-3.0909,-2.8197,0.0,0.0,0.0,0.0,0.0,0.0,0.0,0.0,0.0,0.0,0.0,0.0,0.0,0.0,0.0,0.0,0.0,0.0,0.0,0.0,0.0,0.0,0.0,0.0,0.0,-2.3477,0.0,0.0,0.0,0.0,0.0,0.0,0.0,0.0,0.0,0.0,0.0,-2.2857,-2.4343,-2.4303,-2.4538,-2.5439,-2.5829,-2.6059,0.0,0.0,0.0,0.0,0.0,0.0,0.0,0.0,0.0,0.0,0.0,0.0,0.0,0.0,-2.1973,-1.9707,-1.8945,-1.8691,-1.8828,0.0,0.0,0.0,0.0,0.0,0.0,0.0,0.0,0.0,0.0,0.0,0.0,0.0,0.0,-3.2591,-3.2215,-3.1486,0.0,0.0,0.0,0.0,0.0,0.0,0.0,0.0,-3.219,-3.2692,-3.2792,-3.2792,-3.2616,0.0,-3.1361,-2.988,0.0,0.0,0.0,0.0,0.0,0.0,0.0,0.0,-3.0055,-3.0683,-3.2792,-3.3646,-3.3162,-3.3136,-3.3136,-3.3068,-3.2516,-3.0934,-2.8284,-2.6917,-2.5427,0.0,0.0,0.0,0.0,0.0,0.0,0.0,0.0,0.0,0.0,0.0,0.0,0.0,0.0,0.0,0.0,0.0,0.0,0.0,0.0,0.0,0.0,0.0,-2.4004,0.0,0.0,0.0,0.0,0.0,0.0,0.0,0.0,0.0,-2.2816,-2.2679,-2.2981,-2.4213,-2.393,-2.3848,-2.4551,0.0,0.0,0.0,0.0,0.0,0.0,0.0,-2.373,-2.3437,-2.3301,-2.3262,-2.3379,-2.3984,-2.4336,-2.3951,0.0,0.0,-2.1523,-2.084,-2.0566,-2.0208,-2.0396,-2.0426,-1.9916,-1.9459,-1.9008,0.0,0.0,0.0,0.0,0.0,0.0,0.0,0.0,-3.4299,-3.4048,0.0,-3.2867,0.0,0.0,0.0,0.0,-3.008,-3.2064,0.0,0.0,-3.4977,-3.5525,-3.4048,-3.3997,-3.3972,-3.3947,-3.342,-3.2817,-3.2064,-2.9026,0.0,0.0,0.0,0.0,0.0,0.0,-3.0131,-3.0758,-3.2817,-3.3646,-3.3136,-3.3136,-3.3111,-3.3061,-3.2491,-3.1436,-2.988,-2.9202,-2.7659,-2.5026,-2.4431,0.0,0.0,0.0,0.0,0.0,0.0,0.0,0.0,0.0,0.0,0.0,0.0,0.0,0.0,0.0,0.0,0.0,0.0,0.0,0.0,-2.4743,0.0,0.0,0.0,0.0,0.0,0.0,0.0,0.0,0.0,0.0,-2.2687,-2.257,-2.3027,-2.4258,0.0,0.0,0.0,0.0,-2.4941,-2.4531,-2.4473,-2.4512,-2.4512,-2.4824,-2.5125,-2.5106,0.0,0.0,-2.5176,-2.5469,-2.5577,-2.5215,-2.5469,-2.544,-2.459,-2.3582,-2.2777,-2.1935,-2.1069,-2.0358,-1.989,-1.9467,-1.8985,-3.6408,0.0,0.0,0.0,0.0,-3.4806,-3.568,-3.7061,-3.6885,-3.6383,-3.5676,-3.5349,0.0,0.0,0.0,0.0,0.0,0.0,-3.342,-3.3978,-3.4826,-3.5353,-3.5701,-3.5701,-3.5701,-3.5676,-3.5077,-3.4349,-3.3395,-3.2064,-3.0055,-2.7444,0.0,0.0,0.0,0.0,-3.1411,-3.2365,-3.3395,-3.3646,-3.3136,-3.3136,-3.291,-3.2466,-3.1913,-3.1235,-3.0407,-2.9829,-2.8825,-2.7243,-2.664,0.0,0.0,0.0,0.0,0.0,0.0,0.0,0.0,0.0,0.0,0.0,0.0,0.0,0.0,0.0,0.0,0.0,0.0,0.0,-2.3739,-2.3812,-2.339,0.0,0.0,0.0,0.0,0.0,0.0,0.0,0.0,0.0,-2.3855,-2.3634,-2.3769,0.0,0.0,-2.4453,-2.459,-2.5137,-2.5508,-2.5323,-2.5625,0.0,-2.582,-2.5664,-2.5547,-2.5547,-2.5918,-2.6152,-2.6035,-2.6367,-2.6602,-2.6465,-2.6309,-2.6113,-2.581,-2.4268,-2.296,-2.229,-2.1501,-2.0824,-2.0638,-2.0016,-1.9375,-3.9572,-3.7238,-3.636,-3.6483,-3.7186,-3.7186,-3.794,-3.932,-3.9094,-3.8617,-3.799,-3.7586,-3.6405,-3.4675,-3.4374,0.0,0.0,0.0,-3.4977,-3.5984,-3.5984,-3.6383,-3.6985,-3.6832,-3.6732,-3.6681,-3.5906,-3.5282,-3.4851,-3.3872,-3.229,-3.0131,0.0,0.0,-2.959,-3.1009,-3.2064,-3.2717,-3.3495,-3.3621,-3.3093,-3.3136,-3.2918,-3.2566,-3.2014,-3.1461,-3.0934,-3.0608,-2.9905,-2.8825,-2.8222,-2.7193,0.0,0.0,0.0,0.0,0.0,0.0,0.0,0.0,0.0,0.0,0.0,-2.307,-2.1468,0.0,0.0,0.0,-2.3036,-2.3448,-2.2818,-2.3338,0.0,0.0,0.0,0.0,0.0,0.0,0.0,-2.3531,-2.4141,-2.4727,-2.5137,-2.498,-2.5078,-2.5762,-2.5469,-2.5254,-2.543,0.0,-2.5996,-2.5996,-2.6074,-2.6191,-2.6348,-2.6309,-2.6298,-2.6699,-2.6953,-2.7129,-2.7148,-2.7363,-2.7461,-2.7234,-2.6622,-2.5977,-2.5654,-2.363,-2.1978,-2.208,-2.1213,-2.0358,-1.9954,-1.939,-1.8988,-4.2434,-4.13,-3.927,-3.8944,-3.9823,-3.9873,-4.0425,-4.1225,-4.0827,-4.0601,-4.045,-3.9446,-3.8391,-3.7287,-3.5755,0.0,-3.6606,-3.6556,-3.701,-3.799,-3.799,-3.799,-3.7965,-3.7487,-3.7236,-3.7161,-3.6157,-3.5881,-3.6182,-3.4751,-3.3746,-3.3212,-3.1687,-3.0884,-3.0809,-3.1712,-3.2265,-3.2365,-3.3345,-3.3596,-3.3136,-3.3136,-3.3086,-3.2993,-3.2491,-3.1964,-3.1486,-3.1461,-3.0984,-3.003,-2.9377,-2.8323,-2.6776,0.0,0.0,0.0,0.0,0.0,0.0,0.0,0.0,0.0,0.0,0.0,0.0,0.0,0.0,0.0,-2.3131,0.0,-2.2129,-2.3237,0.0,0.0,0.0,-2.4086,-2.4402,-2.4872,-2.5153,-2.5122,0.0,0.0,-2.6289,-2.6387,-2.6602,-2.7012,-2.668,-2.6523,-2.6914,-2.6582,-2.6387,-2.6367,-2.6094,-2.5996,-2.6426,-2.6777,-2.7246,-2.791,-2.8242,-2.8144,-2.8125,-2.8086,-2.8008,-2.7637,-2.6473,-2.5283,-2.4437,-2.2241,-2.0496,-2.1371,-2.0369,-1.9145,-1.829,-1.8077,-1.8198,-4.3463,-4.3112,-4.2183,-4.148,-4.1003,-4.1404,-4.148,-4.1326,-4.163,-4.1304,-4.0501,-4.0224,-3.9747,-3.9044,-3.8241,-3.8015,-3.8241,-3.7814,-3.7764,-3.799,-3.799,-3.799,-3.799,-3.7889,-3.7588,-3.7186,-3.691,-3.6433,-3.5708,-3.5307,-3.4831,-3.4324,-3.3947,-3.305,-3.1888,-3.2089,-3.2641,-3.3495,-3.3345,-3.3219,-3.3136,-3.3136,-3.2867,-3.2416,-3.229,-3.2139,-3.2014,-3.2014,-3.1913,-3.1637,-3.0733,-2.9628,-2.8398,-2.5954,0.0,0.0,0.0,0.0,0.0,0.0,0.0,0.0,0.0,-2.3915,-2.1837,0.0,-2.4324,0.0,-2.1642,-2.2188,-2.3388,-2.3778,0.0,0.0,-2.442,-2.4923,-2.4953,-2.531,-2.5453,-2.5125,-2.5742,-2.6152,-2.5869,-2.6465,-2.7031,-2.7422,-2.6855,-2.6426,-2.6523,-2.6465,-2.6387,-2.6426,-2.6582,-2.6738,-2.6855,-2.7226,-2.7559,-2.7826,-2.7812,-2.7865,-2.7812,-2.7539,-2.7266,-2.7117,-2.5764,-2.4648,-2.4245,-2.187,-1.9992,-1.9952,-1.902,-1.8016,-1.7728,-1.7889,-1.8009,-4.4392,-4.4116,-4.3564,-4.2986,-4.2434,-4.2509,-4.2359,-4.2108,-4.2384,-4.2032,-4.1204,-4.0727,-4.035,-4.0023,-3.9471,-3.9245,-3.922,-3.8894,-3.8768,-3.8768,-3.8743,-3.8768,-3.8743,-3.8517,-3.8216,-3.7914,-3.7412,-3.686,-3.6282,-3.6031,-3.5629,-3.5056,-3.5031,-3.4455,-3.337,-3.3345,-3.352,-3.3897,-3.337,-3.3136,-3.3136,-3.3136,-3.2817,-3.224,-3.1964,-3.1738,-3.1512,-3.1512,-3.1512,-3.1486,-3.0934,-3.0231,-2.9352,-2.6903,-2.5174,0.0,0.0,0.0,0.0,0.0,0.0,0.0,0.0,0.0,0.0,0.0,-2.4164,-2.2408,-2.2487,-2.2988,-2.3849,-2.4277,-2.4456,-2.4389,-2.4886,-2.5338,-2.5643,-2.5879,-2.5996,-2.5957,-2.6543,-2.6855,-2.6641,-2.7168,-2.7676,-2.791,-2.7434,-2.7031,-2.7187,-2.709,-2.6953,-2.7024,-2.6992,-2.7012,-2.7012,-2.7207,-2.7383,-2.7383,-2.7383,-2.7208,-2.6598,-2.6272,-2.5891,-2.5018,-2.36,-2.2448,-2.2127,-2.0369,-1.876,-1.8603,-1.8146,-1.7688,-1.7769,-1.7876,-1.8022,-4.5196,-4.4694,-4.4141,-4.389,-4.3865,-4.3313,-4.3037,-4.2986,-4.2986,-4.2715,-4.2137,-4.1153,-4.0701,-4.0523,-4.0049,-3.9798,-3.9798,-3.9722,-3.9697,-3.9697,-3.9697,-3.9697,-3.9672,-3.9195,-3.8969,-3.8869,-3.7864,-3.7312,-3.7161,-3.6757,-3.6182,-3.5608,-3.5608,-3.5357,-3.4951,-3.4926,-3.4625,-3.4022,-3.347,-3.3212,-3.3169,-3.3119,-3.2792,-3.2215,-3.1738,-3.126,-3.0733,-3.0708,-3.0708,-3.0708,-3.0618,-3.0303,-2.9685,-2.7666,-2.5971,0.0,-2.3329,0.0,0.0,0.0,0.0,0.0,0.0,0.0,0.0,-2.4137,-2.4175,-2.4013,-2.4366,-2.4414,-2.4004,-2.4734,-2.5156,-2.5156,-2.5243,-2.5595,-2.6289,-2.6484,-2.666,-2.6992,-2.7402,-2.7708,-2.7591,-2.7949,-2.8203,-2.8144,-2.791,-2.7812,-2.8125,-2.7812,-2.748,-2.7578,-2.7266,-2.7012,-2.7031,-2.709,-2.7026,-2.6853,-2.6711,-2.6275,-2.4943,-2.4609,-2.4068,-2.2584,-2.129,-2.0204,-1.9672,-1.8565,-1.7687,-1.7687,-1.7635,-1.7662,-1.7876,-1.7942,-1.8075,-4.5422,-4.5271,-4.4694,-4.4468,-4.4418,-4.389,-4.3388,-4.2986,-4.2986,-4.2715,-4.2213,-4.1986,-4.1605,-4.11,-4.0601,-4.0375,-4.0325,-3.9898,-3.9697,-3.9697,-3.9697,-3.9697,-3.9697,-3.9597,-3.9295,-3.8919,-3.8718,-3.809,-3.7186,-3.7086,-3.6759,-3.6254,-3.6254,-3.6204,-3.6103,0.0,0.0,0.0,-3.4022,-3.3746,-3.3721,-3.3294,-3.2792,-3.224,-3.2114,0.0,-3.1286,-3.1235,-3.1235,-3.1235,-3.0834,0.0,0.0,0.0,0.0,0.0,0.0,0.0,0.0,0.0,0.0,0.0,-2.3835,-2.371,-2.4304,-2.497,-2.5254,-2.5068,-2.5265,-2.5312,-2.4863,-2.5293,-2.5605,-2.5625,-2.5918,-2.6211,-2.6387,-2.7043,-2.7344,-2.7051,-2.7402,-2.7591,-2.7266,-2.7519,-2.7793,-2.7851,-2.8027,-2.8184,-2.8281,-2.7676,-2.7168,-2.7129,-2.7129,-2.7031,-2.7012,-2.7305,-2.7058,-2.6064,-2.5491,-2.4839,-2.344,-2.2652,-2.2333,-2.1724,-2.0684,-1.9717,-1.9591,-1.8499,-1.7582,-1.7582,-1.7582,-1.7595,-1.7662,-1.7876,-1.8009,-4.5899,-4.5849,-4.5296,-4.5045,0.0,-4.4443,-4.389,-4.3363,-4.3087,-4.2811,-4.259,-4.2338,-4.2037,-4.1706,-4.1153,-4.0777,-4.0501,-4.0224,-3.9948,-3.9697,-3.9697,-3.9697,-3.9697,-3.9697,-3.9546,-3.927,-3.9045,-3.8567,-3.8015,-3.7462,-3.7036,-3.6759,-3.6531,-3.6405,-3.6405,-3.6405,-3.5956,-3.5082,-3.4575,-3.4173,-3.3897,-3.3621,-3.3068,-3.2265,-3.2215,0.0,0.0,0.0,0.0,0.0,0.0,0.0,0.0,0.0,0.0,-2.5378,-2.4787,-2.4321,-2.403,-2.428,-2.44,-2.442,-2.4605,-2.4736,-2.4781,-2.5184,-2.5405,-2.5504,-2.5836,-2.5957,-2.5762,-2.6113,-2.6317,-2.6317,-2.6562,-2.6699,-2.6738,-2.707,-2.7246,-2.7109,-2.7454,-2.763,-2.7363,-2.7715,-2.7969,-2.7988,-2.8144,-2.8301,-2.8262,-2.793,-2.7656,-2.7637,-2.7461,-2.7344,-2.7344,-2.7285,-2.6858,-2.5512,-2.4999,-2.3948,-2.1815,-2.1128,-2.069,-1.9879,-1.9057,-1.8603,-1.8551,-1.8042,-1.7582,-1.7582,-1.7582,-1.7582,-1.7582,-1.7716,-1.7822,-4.6326,-4.6276,-4.5824,-4.5648,-4.5598,-4.502,-4.4392,-4.3765,-4.3212,0.0,0.0,-4.2539,-4.2363,-4.2313,-4.1731,-4.1229,-4.0802,-4.0601,-4.0275,-3.9848,-3.9747,-3.9697,-3.9697,-3.9697,-3.9697,-3.9672,-3.922,-3.902,-3.8843,-3.7914,-3.7362,-3.7161,-3.6757,-3.6505,-3.643,-3.6405,-3.6132,-3.5633,-3.5152,-3.4605,-3.4198,-3.4098,-3.3495,-3.239,-3.2365,-3.2064,-3.1411,-3.0223,-3.0055,-3.0951,-2.8908,-2.8091,-2.8846,-2.7151,-2.6055,-2.5888,-2.5425,-2.4988,-2.4687,-2.5059,-2.5215,-2.5,-2.5527,-2.5615,-2.5262,-2.5439,-2.5625,-2.5791,-2.6309,-2.6582,-2.6504,-2.6797,-2.7012,-2.7012,-2.7012,-2.7012,-2.7012,-2.709,-2.7168,-2.7168,-2.7539,-2.7773,-2.7793,-2.8066,-2.8301,-2.8281,-2.8281,-2.8301,-2.8301,-2.8262,-2.8203,-2.8184,-2.7949,-2.7826,-2.7734,-2.7539,-2.6659,-2.5443,-2.4808,-2.3527,-2.1161,-1.9997,-1.9198,-1.814,-1.7635,-1.7635,-1.7635,-1.7635,-1.7582,-1.7582,-1.7582,-1.7582,-1.7582,-1.7582,-1.7595,-4.6326,-4.6301,-4.6225,-4.62,-4.615,-4.5598,-4.4769,-4.3765,-4.3237,-4.2986,-4.2961,-4.2942,-4.2916,-4.2836,-4.2338,-4.2062,-4.1936,-4.0953,-4.0475,-4.0375,-3.9923,-3.9697,-3.9697,-3.9697,-3.9697,-3.9697,-3.9622,-3.932,-3.8944,-3.8743,-3.8215,-3.7287,-3.7111,-3.681,-3.6455,-3.6405,-3.638,-3.6279,-3.5658,-3.5357,-3.5257,-3.4806,-3.4098,-3.3018,-3.2968,-3.2466,-3.1436,-3.0247,-2.9653,-2.978,-2.848,-2.7393,-2.664,-2.6304,-2.5838,-2.5298,-2.5181,-2.5215,-2.5527,-2.5957,-2.6534,-2.7161,-2.6641,-2.6113,-2.5723,-2.666,-2.7031,-2.6426,-2.6992,-2.7324,-2.6992,-2.6992,-2.7051,-2.7051,-2.7031,-2.7012,-2.707,-2.7363,-2.7578,-2.763,-2.7949,-2.8184,-2.8184,-2.8242,-2.8301,-2.8301,-2.8301,-2.8301,-2.8301,-2.8301,-2.8301,-2.8281,-2.8242,-2.8203,-2.8144,-2.8164,-2.7424,-2.6154,-2.459,-2.3178,-2.1283,-1.9616,-1.8469,-1.7996,-1.7782,-1.7622,-1.7609,-1.7582,-1.7582,-1.7582,-1.7582,-1.7582,-1.7582,-1.7582,-1.7582,-4.6326,-4.6326,-4.6326,-4.6326,-4.6276,-4.5723,-4.5196,-4.4644,-4.379,-4.3237,-4.2986,-4.2986,-4.2986,-4.2961,-4.2766,-4.2489,-4.2187,-4.163,-4.1254,-4.0874,-4.04,-4.0149,-4.0099,-3.9848,-3.9697,-3.9697,-3.9697,-3.9572,-3.932,-3.907,-3.8215,-3.6943,-3.6306,-3.5379,-3.4337,-3.4896,-3.4969,-3.424,-3.5373,-3.5503,-3.4454,-3.491,-3.4413,-3.2967,-3.2873,-3.2532,-3.1796,-2.9893,-2.9038,-2.9458,-2.764,-2.6671,-2.6903,-2.6274,-2.5784,-2.5478,-2.5879,-2.6113,-2.6094,-2.6484,-2.6894,-2.7266,-2.6953,-2.6641,-2.6445,-2.6973,-2.7148,-2.6777,-2.7109,-2.7344,-2.7363,-2.7363,-2.7461,-2.7695,-2.7715,-2.7695,-2.7734,-2.7871,-2.7988,-2.8027,-2.8164,-2.8301,-2.8301,-2.8301,-2.8301,-2.8301,-2.8301,-2.8301,-2.8301,-2.8301,-2.8301,-2.8301,-2.8301,-2.8301,-2.8301,-2.8301,-2.7672,-2.6318,-2.4737,-2.3067,-2.143,-1.9611,-1.8588,-1.8303,-1.8036,-1.7862,-1.7836,-1.7689,-1.7609,-1.7582,-1.7582,-1.7582,-1.7582,-1.7582,-1.7582,-4.6326,-4.6326,-4.6326,-4.6326,-4.6276,-4.5849,-4.5598,-4.5397,-4.4543,-4.379,-4.3187,-4.3037,-4.2986,-4.2986,-4.26,-4.2208,-4.1836,-4.133,-4.1059,-4.0913,-4.0368,-4.0071,-3.9975,-3.9578,-3.9149,-3.8764,-3.8712,-3.8687,-3.8638,-3.827,-3.746,-3.6179,-3.5179,-3.3922,-3.251,-3.3538,-3.3469,-3.2482,-3.4387,-3.4751,-3.331,-3.4245,-3.4051,-3.2582,-3.2441,-3.2207,-3.1715,-2.9554,-2.8615,-2.9124,-2.7194,-2.6437,-2.7338,-2.6534,-2.5966,-2.6044,-2.659,-2.6875,-2.6582,-2.6836,-2.707,-2.7148,-2.7168,-2.7207,-2.7285,-2.7305,-2.7246,-2.7187,-2.7285,-2.748,-2.7734,-2.7865,-2.7949,-2.8262,-2.8301,-2.8242,-2.8281,-2.8301,-2.8301,-2.8301,-2.8301,-2.8301,-2.8301,-2.8301,-2.8301,-2.8301,-2.8301,-2.8301,-2.8301,-2.8301,-2.8301,-2.8301,-2.8301,-2.8301,-2.8301,-2.8301,-2.7672,-2.6336,-2.482,-2.319,-2.1536,-1.9963,-1.8964,-1.8597,-1.8343,-1.817,-1.8075,-1.7903,-1.7742,-1.7716,-1.7662,-1.7582,-1.7582,-1.7582,-1.7582,-4.6326,-4.6326,-4.6326,-4.6326,-4.6301,-4.625,-4.5949,-4.5522,-4.5347,-4.4719,-4.3714,-4.3187,-4.2986,-4.2793,-4.1533,-4.0856,-4.0622,-3.8735,-3.8643,-3.9825,-3.93,-3.8854,-3.855,-3.8407,-3.7496,-3.6013,-3.5859,-3.5999,-3.5945,-3.5736,-3.5301,-3.4634,-3.3989,-3.3444,-3.2967,-3.3054,-3.283,-3.2303,-3.2532,-3.261,-3.2464,-3.2514,-3.2289,-3.1645,-3.1596,-3.1349,-3.083,-2.9498,-2.876,-2.8767,-2.7593,-2.6926,-2.7027,-2.6926,-2.6894,-2.6875,-2.6973,-2.6992,-2.6973,-2.6992,-2.7207,-2.7611,-2.765,-2.7754,-2.8086,-2.8144,-2.8008,-2.7754,-2.793,-2.8125,-2.8223,-2.8223,-2.8223,-2.8262,-2.8301,-2.8301,-2.8301,-2.8301,-2.8301,-2.8301,-2.8301,-2.8301,-2.8301,-2.8301,-2.8301,-2.8301,-2.8301,-2.8301,-2.8301,-2.8301,-2.8301,-2.8301,-2.8301,-2.8301,-2.8301,-2.8301,-2.7672,-2.6318,-2.482,-2.3271,-2.1733,-2.0132,-1.8905,-1.8891,-1.8651,-1.8464,-1.8384,-1.821,-1.7969,-1.7969,-1.7836,-1.7622,-1.7595,-1.7622,-1.7622,-4.6326,-4.6326,-4.6326,-4.6326,-4.6326,-4.6326,-4.6175,-4.5949,-4.5623,-4.502,-4.4267,-4.3714,-4.3288,-4.2905,-4.1305,-4.0592,-4.0453,-3.8729,-3.8204,-3.8745,-3.8286,-3.7919,-3.7713,-3.7094,-3.6395,-3.5692,-3.5445,-3.5288,-3.5178,-3.4459,-3.372,-3.3267,-3.2921,-3.2166,-3.1117,-3.1572,-3.1317,-3.0305,-3.0036,-2.9911,-3.012,-3.1469,-3.1838,-3.0903,-3.0801,-3.0565,-3.0056,-2.8858,-2.7994,-2.7753,-2.7247,-2.7012,-2.7012,-2.7012,-2.7012,-2.7031,-2.7266,-2.7519,-2.7754,-2.7773,-2.7851,-2.8027,-2.8027,-2.8125,-2.8262,-2.8301,-2.8223,-2.8105,-2.8203,-2.8301,-2.8301,-2.8301,-2.8301,-2.8301,-2.8301,-2.8301,-2.8301,-2.8301,-2.8301,-2.8301,-2.8301,-2.8301,-2.8301,-2.8301,-2.8301,-2.8301,-2.8301,-2.8301,-2.8301,-2.8301,-2.8301,-2.8301,-2.8301,-2.8301,-2.8301,-2.8301,-2.7618,-2.6318,-2.482,-2.3319,-2.1839,-2.0287,-1.9185,-1.9172,-1.8931,-1.8771,-1.8744,-1.8517,-1.8303,-1.8263,-1.8263,-1.8116,-1.8116,-1.7983,-1.7889,-4.6326,-4.6326,-4.6326,-4.6326,-4.6326,-4.6326,-4.6326,-4.6276,-4.5874,-4.5397,-4.4819,-4.4267,-4.3714,-4.2987,-4.1378,-4.0419,-3.9779,-3.8283,-3.7566,-3.7522,-3.7132,-3.689,-3.6714,-3.6077,-3.5364,-3.4761,-3.4324,-3.4164,-3.4,-3.3077,-3.2287,-3.202,-3.1922,-3.1135,-2.9971,-3.0478,-3.0221,-2.9227,-2.8672,-2.8476,-2.8706,-3.0287,-3.0721,-2.988,-2.9755,-2.961,-2.9302,-2.8388,-2.7695,-2.7383,-2.7363,-2.7363,-2.7363,-2.7363,-2.7363,-2.7383,-2.7656,-2.7969,-2.8281,-2.8301,-2.8301,-2.8301,-2.8301,-2.8301,-2.8301,-2.8301,-2.8301,-2.8281,-2.8301,-2.8301,-2.8301,-2.8301,-2.8301,-2.8301,-2.8301,-2.8301,-2.8301,-2.8301,-2.8301,-2.8301,-2.8301,-2.8301,-2.8301,-2.8301,-2.8301,-2.8301,-2.8301,-2.8301,-2.8301,-2.8301,-2.8301,-2.8301,-2.8301,-2.8301,-2.8301,-2.8301,-2.7618,-2.6318,-2.482,-2.3319,-2.187,-2.0371,-1.9417,-1.9252,-1.9118,-1.9052,-1.9025,-1.8824,-1.8571,-1.8517,-1.8504,-1.849,-1.841,-1.8277,-1.8102,-4.6326,-4.6326,-4.6326,-4.6326,-4.6326,-4.6326,-4.6326,-4.6326,-4.625,-4.5949,-4.5372,-4.4844,-4.4292,-4.3626,-4.1571,-3.9779,-3.8283,-3.666,-3.5928,-3.5928,-3.5886,-3.5655,-3.5315,-3.5191,-3.4036,-3.2296,-3.2156,-3.18,-3.1326,-3.1112,-3.0995,-3.1014,-3.1033,-3.0721,-3.0272,-3.0268,-3.0035,-2.9587,-2.9101,-2.8887,-2.8848,-2.8677,-2.8621,-2.8534,-2.8461,-2.8475,-2.8402,-2.8295,-2.8223,-2.8223,-2.8184,-2.8203,-2.8223,-2.8203,-2.8184,-2.8203,-2.8223,-2.8262,-2.8281,-2.8301,-2.8301,-2.8301,-2.8301,-2.8301,-2.8301,-2.8301,-2.8301,-2.8301,-2.8301,-2.8301,-2.8301,-2.8301,-2.8301,-2.8301,-2.8301,-2.8301,-2.8301,-2.8301,-2.8301,-2.8301,-2.8301,-2.8301,-2.8301,-2.8301,-2.8301,-2.8301,-2.8301,-2.8301,-2.8301,-2.8301,-2.8301,-2.8301,-2.8301,-2.8301,-2.8301,-2.8301,-2.7672,-2.6445,-2.4986,-2.3375,-2.187,-2.0544,-1.9924,-1.943,-1.9363,-1.9265,-1.9265,-1.9118,-1.8851,-1.8718,-1.8651,-1.8624,-1.8718,-1.8544,-1.8384,-4.6326,-4.6326,-4.6326,-4.6326,-4.6326,-4.6326,-4.6326,-4.6326,-4.6326,-4.5999,-4.5522,-4.5271,-4.4869,-4.4234,-4.2055,-4.0082,-3.8067,-3.552,-3.4258,-3.4258,-3.4258,-3.4158,-3.4017,-3.3818,-3.3313,-3.2466,-3.2051,-3.1719,-3.1289,-3.1035,-3.0898,-3.0898,-3.0898,-3.0801,-3.0625,-3.0351,-3.0117,-2.9941,-2.9551,-2.9336,-2.9297,-2.8906,-2.8691,-2.8672,-2.8418,-2.8301,-2.8301,-2.8301,-2.8301,-2.8301,-2.8301,-2.8301,-2.8301,-2.8301,-2.8301,-2.8301,-2.8301,-2.8301,-2.8301,-2.8301,-2.8301,-2.8301,-2.8301,-2.8301,-2.8301,-2.8301,-2.8301,-2.8301,-2.8301,-2.8301,-2.8301,-2.8301,-2.8301,-2.8301,-2.8301,-2.8301,-2.8301,-2.8301,-2.8301,-2.8301,-2.8301,-2.8301,-2.8301,-2.8301,-2.8301,-2.8301,-2.8301,-2.8301,-2.8301,-2.8301,-2.8301,-2.8301,-2.8301,-2.8301,-2.8301,-2.8301,-2.7853,-2.6662,-2.5316,-2.3877,-2.242,-2.143,-2.0759,-1.9533,-1.943,-1.9417,-1.9377,-1.935,-1.9052,-1.9052,-1.8971,-1.8918,-1.9109,-1.8824,-1.8571,-4.6326,-4.6326,-4.6326,-4.6326,-4.6326,-4.6326,-4.5974,-4.5525,-4.5464,-4.4939,-4.4293,-4.4484,-4.413,-4.3095,-4.1554,-3.9665,-3.7566,-3.519,-3.3902,-3.3418,-3.3418,-3.3418,-3.3379,-3.3125,-3.293,-3.2754,-3.2363,-3.1934,-3.1543,-3.123,-3.1035,-3.0898,-3.0898,-3.0898,-3.084,-3.0566,-3.041,-3.0332,-2.998,-2.9766,-2.9726,-2.9336,-2.9121,-2.9101,-2.8848,-2.8555,-2.832,-2.8301,-2.8301,-2.8301,-2.8301,-2.8301,-2.8301,-2.8301,-2.8301,-2.8301,-2.8301,-2.8301,-2.8301,-2.8301,-2.8301,-2.8301,-2.8437,-2.8496,-2.8496,-2.8613,-2.8691,-2.8711,-2.8691,-2.8691,-2.8711,-2.8711,-2.8594,-2.8398,-2.8418,-2.8437,-2.832,-2.8418,-2.8496,-2.8496,-2.8379,-2.832,-2.8301,-2.8301,-2.8301,-2.8301,-2.8301,-2.8301,-2.8301,-2.8301,-2.8301,-2.8301,-2.8301,-2.8301,-2.8301,-2.8301,-2.8301,-2.7276,-2.6209,-2.471,-2.3151,-2.2251,-2.1145,-1.9982,-1.943,-1.943,-1.943,-1.943,-1.943,-1.943,-1.935,-1.9256,-1.9229,-1.9052,-1.8784,-4.6326,-4.6326,-4.6326,-4.6326,-4.6326,-4.6326,-4.5342,-4.4251,-4.3917,-4.3185,-4.2316,-4.2567,-4.2171,-4.0706,-4.0051,-3.8528,-3.6895,-3.5811,-3.4652,-3.3481,-3.3418,-3.3418,-3.3418,-3.3379,-3.3184,-3.2851,-3.2402,-3.1992,-3.1641,-3.1562,-3.1328,-3.0996,-3.0957,-3.0937,-3.0879,-3.084,-3.0859,-3.0762,-3.041,-3.0215,-3.0156,-2.9785,-2.9626,-2.957,-2.9512,-2.9121,-2.8398,-2.834,-2.834,-2.8301,-2.8301,-2.8301,-2.8301,-2.8301,-2.8301,-2.8301,-2.8301,-2.8301,-2.8301,-2.832,-2.8359,-2.8418,-2.8691,-2.8926,-2.8984,-2.9238,-2.9489,-2.9414,-2.9434,-2.9492,-2.9473,-2.9492,-2.9219,-2.8535,-2.873,-2.8769,-2.8555,-2.8691,-2.8926,-2.8867,-2.8613,-2.834,-2.8301,-2.8301,-2.8301,-2.8301,-2.8301,-2.8301,-2.8301,-2.8301,-2.8301,-2.8301,-2.8301,-2.8301,-2.8301,-2.8301,-2.8301,-2.8014,-2.7006,-2.5717,-2.3989,-2.2758,-2.1373,-2.0155,-1.9417,-1.943,-1.943,-1.943,-1.943,-1.943,-1.943,-1.9417,-1.9336,-1.9145,-1.8945,-4.6326,-4.6326,-4.6326,-4.6326,-4.6326,-4.6326,-4.5939,-4.5342,-4.4251,-4.3419,-4.2872,-4.208,-4.1402,-4.0568,-3.9236,-3.8103,-3.7294,-3.559,-3.4199,-3.352,-3.3418,-3.3418,-3.3418,-3.3418,-3.3296,-3.3164,-3.2812,-3.2539,-3.2344,-3.2109,-3.1758,-3.1406,-3.1309,-3.1152,-3.0898,-3.0898,-3.0898,-3.0879,-3.0742,-3.0664,-3.0625,-3.0234,-3.0,-2.9961,-2.9726,-2.947,-2.918,-2.8887,-2.8594,-2.834,-2.8301,-2.8301,-2.8301,-2.8301,-2.8301,-2.8301,-2.8301,-2.8301,-2.834,-2.8574,-2.873,-2.8809,-2.9121,-2.9336,-2.9375,-2.9567,-2.9665,-2.959,-2.957,-2.957,-2.9609,-2.9844,-2.9746,-2.9238,-2.9277,-2.9316,-2.918,-2.9313,-2.9355,-2.9316,-2.8984,-2.875,-2.8672,-2.8535,-2.8379,-2.8359,-2.834,-2.832,-2.832,-2.832,-2.8301,-2.8301,-2.8301,-2.8301,-2.8301,-2.8301,-2.8301,-2.8301,-2.7618,-2.61,-2.4433,-2.3263,-2.1828,-2.0371,-1.9707,-1.943,-1.943,-1.943,-1.943,-1.943,-1.943,-1.9417,-1.9403,-1.9269,-1.9025,-4.6326,-4.6326,-4.6326,-4.6326,-4.6326,-4.6326,-4.5914,-4.5159,-4.3544,-4.2431,-4.1606,-4.0708,-3.9823,-3.9257,-3.8414,-3.7681,-3.6861,-3.5224,-3.4238,-3.3691,-3.3476,-3.3418,-3.3418,-3.3418,-3.3418,-3.3379,-3.3144,-3.2949,-3.2793,-3.2519,-3.2109,-3.1621,-3.1523,-3.1309,-3.0937,-3.0898,-3.0898,-3.0898,-3.0898,-3.0898,-3.084,-3.0605,-3.0449,-3.041,-3.0195,-2.998,-2.9805,-2.9531,-2.9199,-2.8848,-2.8769,-2.8769,-2.8769,-2.8789,-2.8769,-2.8769,-2.8769,-2.8789,-2.8789,-2.9023,-2.916,-2.9219,-2.9551,-2.9785,-2.9844,-2.9978,-3.0059,-3.0059,-3.0078,-3.0059,-3.0117,-3.0273,-3.0312,-3.0098,-2.9902,-2.9824,-2.9785,-2.9648,-2.9668,-2.9648,-2.9414,-2.9219,-2.9082,-2.8984,-2.8769,-2.875,-2.8633,-2.8535,-2.8496,-2.8379,-2.8359,-2.832,-2.8301,-2.8301,-2.8301,-2.8301,-2.8301,-2.8301,-2.8174,-2.6336,-2.4488,-2.3822,-2.2717,-2.0601,-1.943,-1.943,-1.943,-1.943,-1.943,-1.943,-1.943,-1.9417,-1.9403,-1.9292,-1.9118,-4.6326,-4.6301,-4.618,-4.618,-4.624,-4.612,-4.522,-4.3669,-4.2011,-4.0472,-3.9125,-3.8597,-3.7709,-3.6722,-3.756,-3.7197,-3.5717,-3.5446,-3.4883,-3.4219,-3.3769,-3.3496,-3.3437,-3.3418,-3.3418,-3.3418,-3.3379,-3.3203,-3.291,-3.2851,-3.2422,-3.1777,-3.1699,-3.1387,-3.1094,-3.0937,-3.0957,-3.0898,-3.0898,-3.0898,-3.0898,-3.0879,-3.0859,-3.084,-3.0801,-3.0605,-3.0293,-3.0195,-2.998,-2.9685,-2.9453,-2.9489,-2.9531,-2.9626,-2.9528,-2.9453,-2.9551,-2.9492,-2.9531,-2.9551,-2.9609,-2.9629,-2.998,-3.0234,-3.0273,-3.0527,-3.0723,-3.0742,-3.0762,-3.0801,-3.0801,-3.082,-3.082,-3.0801,-3.0449,-3.0254,-3.0215,-2.9922,-2.9961,-3.0098,-2.9883,-2.9609,-2.959,-2.9531,-2.9528,-2.947,-2.916,-2.9004,-2.8926,-2.875,-2.8457,-2.8398,-2.8457,-2.8359,-2.8359,-2.8301,-2.8301,-2.8301,-2.8194,-2.6844,-2.4765,-2.3933,-2.2717,-2.0658,-1.943,-1.943,-1.943,-1.943,-1.943,-1.943,-1.943,-1.943,-1.9403,-1.9292,-1.9239,-4.6326,-4.618,-4.4951,-4.5135,-4.5974,-4.4951,-4.4189,-4.352,-4.1947,-4.0213,-3.8663,-3.724,-3.6539,-3.6084,-3.6471,-3.6344,-3.5849,-3.5547,-3.5332,-3.4961,-3.4238,-3.373,-3.3476,-3.3418,-3.3418,-3.3418,-3.3418,-3.3359,-3.3262,-3.3223,-3.2949,-3.248,-3.2383,-3.2051,-3.1465,-3.1348,-3.1172,-3.0937,-3.0898,-3.0898,-3.0898,-3.0898,-3.0898,-3.0898,-3.0898,-3.082,-3.0723,-3.0703,-3.0332,-2.9648,-2.957,-2.957,-2.9685,-2.9685,-2.9648,-2.9704,-2.9609,-2.9646,-2.9724,-2.9883,-3.0019,-3.0078,-3.041,-3.0703,-3.0703,-3.082,-3.0898,-3.0898,-3.0898,-3.0898,-3.0898,-3.0898,-3.0898,-3.0879,-3.0742,-3.0664,-3.0644,-3.0625,-3.0605,-3.0644,-3.0293,-3.0098,-2.998,-2.9824,-2.9668,-2.9685,-2.9512,-2.9394,-2.9355,-2.9238,-2.8984,-2.8809,-2.8769,-2.8555,-2.8418,-2.834,-2.8301,-2.8301,-2.8087,-2.7584,-2.5443,-2.371,-2.1926,-1.9822,-1.9475,-1.943,-1.943,-1.943,-1.943,-1.943,-1.943,-1.943,-1.943,-1.939,-1.939,-4.6326,-4.618,-4.4436,-4.4706,-4.5974,-4.4436,-4.3731,-4.3333,-4.1947,-4.0213,-3.8465,-3.6789,-3.6035,-3.6035,-3.6035,-3.6035,-3.5976,-3.5762,-3.5566,-3.5234,-3.4473,-3.3848,-3.3516,-3.3418,-3.3418,-3.3418,-3.3418,-3.3418,-3.3398,-3.3418,-3.3184,-3.2832,-3.2793,-3.2441,-3.1816,-3.1582,-3.1426,-3.1172,-3.0996,-3.0898,-3.0898,-3.0898,-3.0898,-3.0898,-3.0898,-3.0898,-3.0898,-3.0898,-3.0625,-3.0234,-3.0137,-3.0174,-3.0174,-3.0174,-3.0117,-3.0174,-3.0117,-3.0137,-3.0156,-3.0371,-3.0469,-3.0527,-3.0781,-3.0859,-3.0879,-3.0898,-3.0898,-3.0898,-3.0898,-3.0898,-3.0898,-3.0898,-3.0898,-3.0898,-3.0898,-3.0898,-3.0898,-3.0859,-3.0879,-3.082,-3.0664,-3.0488,-3.0488,-3.0254,-3.0156,-3.0098,-2.998,-2.9883,-2.9805,-2.9687,-2.9531,-2.9316,-2.9199,-2.9062,-2.8965,-2.8887,-2.8809,-2.875,-2.8466,-2.7975,-2.6336,-2.4128,-2.2096,-2.0544,-1.9866,-1.943,-1.943,-1.943,-1.943,-1.943,-1.943,-1.943,-1.943,-1.943,-1.943,-4.618,-4.5853,-4.4189,-4.4436,-4.5525,-4.4189,-4.3271,-4.3083,-4.182,-4.0018,-3.8154,-3.6674,-3.6035,-3.6035,-3.6035,-3.6035,-3.6035,-3.5976,-3.5723,-3.5254,-3.459,-3.3965,-3.3594,-3.3457,-3.3418,-3.3418,-3.3418,-3.3418,-3.3418,-3.3418,-3.3242,-3.3008,-3.291,-3.2656,-3.2266,-3.1894,-3.166,-3.1543,-3.1309,-3.1133,-3.1055,-3.1035,-3.0996,-3.0898,-3.0898,-3.0898,-3.0898,-3.0898,-3.084,-3.0879,-3.0898,-3.0801,-3.082,-3.0859,-3.084,-3.0801,-3.0742,-3.0781,-3.084,-3.0801,-3.0859,-3.0859,-3.0859,-3.0898,-3.0898,-3.0898,-3.0898,-3.0898,-3.0898,-3.0898,-3.0898,-3.0898,-3.0898,-3.0898,-3.0898,-3.0898,-3.0898,-3.0898,-3.0898,-3.0898,-3.0879,-3.0898,-3.0898,-3.0898,-3.0859,-3.0527,-3.041,-3.0332,-3.0254,-3.0156,-2.9941,-2.9687,-2.9629,-2.9609,-2.9587,-2.9492,-2.9434,-2.9355,-2.9101,-2.8542,-2.7215,-2.519,-2.3046,-2.1529,-2.0702,-1.9982,-1.943,-1.943,-1.943,-1.943,-1.943,-1.943,-1.943,-1.943,-1.943,-4.5489,-4.4127,-4.2454,-4.2706,-4.3855,-4.2454,-4.1756,-4.1756,-4.1373,-3.9497,-3.7059,-3.6152,-3.6035,-3.6035,-3.6035,-3.6035,-3.6035,-3.6016,-3.5801,-3.5351,-3.4844,-3.4336,-3.3906,-3.3594,-3.3418,-3.3418,-3.3418,-3.3418,-3.3418,-3.3418,-3.3379,-3.3281,-3.3203,-3.3066,-3.2695,-3.25,-3.2344,-3.209,-3.1914,-3.166,-3.1426,-3.1387,-3.125,-3.1016,-3.0957,-3.0918,-3.0898,-3.0898,-3.0898,-3.0898,-3.0898,-3.0898,-3.0898,-3.0898,-3.0898,-3.0898,-3.0898,-3.0898,-3.0898,-3.0898,-3.0898,-3.0937,-3.0957,-3.0898,-3.0898,-3.0937,-3.0937,-3.0898,-3.0898,-3.0976,-3.0996,-3.0918,-3.0937,-3.0957,-3.0918,-3.0898,-3.0898,-3.0898,-3.0898,-3.0898,-3.0898,-3.0898,-3.0898,-3.0898,-3.0898,-3.0879,-3.082,-3.0742,-3.0664,-3.0547,-3.0351,-3.0098,-3.0078,-3.0039,-2.9941,-2.9883,-2.9844,-2.9766,-2.9551,-2.9261,-2.7975,-2.6755,-2.4777,-2.2997,-2.1472,-2.0658,-1.9734,-1.943,-1.943,-1.943,-1.943,-1.943,-1.943,-1.943,-1.943,-4.5732,-4.4767,-4.3083,-4.3333,-4.4497,-4.3107,-4.1947,-4.1309,-4.1181,-3.9235,-3.6539,-3.6035,-3.6035,-3.6035,-3.6035,-3.6035,-3.6035,-3.6016,-3.5801,-3.5371,-3.4902,-3.4473,-3.4062,-3.3652,-3.3418,-3.3418,-3.3418,-3.3418,-3.3418,-3.3418,-3.3418,-3.3418,-3.3418,-3.3301,-3.3066,-3.291,-3.2676,-3.2461,-3.2266,-3.2031,-3.1855,-3.1816,-3.1758,-3.1543,-3.1465,-3.1406,-3.123,-3.1191,-3.1074,-3.0957,-3.0898,-3.0898,-3.0898,-3.0898,-3.0898,-3.0898,-3.0898,-3.0898,-3.0898,-3.0898,-3.0996,-3.1172,-3.1191,-3.1328,-3.1426,-3.1484,-3.1484,-3.1504,-3.1504,-3.1484,-3.1465,-3.1269,-3.1211,-3.1133,-3.0996,-3.0918,-3.0898,-3.0898,-3.0898,-3.0898,-3.0898,-3.0898,-3.0898,-3.0898,-3.0898,-3.0879,-3.0879,-3.082,-3.082,-3.0742,-3.0723,-3.0566,-3.0547,-3.0469,-3.0351,-3.0254,-3.0195,-3.0098,-2.9922,-2.9687,-2.9024,-2.7884,-2.6716,-2.4653,-2.244,-2.0903,-2.0007,-1.9747,-1.943,-1.943,-1.943,-1.943,-1.943,-1.943,-1.943,-4.5999,-4.5403,-4.3917,-4.4165,-4.5135,-4.3482,-4.2138,-4.1309,-4.0924,-3.8861,-3.6471,-3.6035,-3.6035,-3.6035,-3.6035,-3.6035,-3.6035,-3.6016,-3.582,-3.5527,-3.5098,-3.4668,-3.4219,-3.3828,-3.3516,-3.3437,-3.3418,-3.3418,-3.3418,-3.3418,-3.3418,-3.3418,-3.3418,-3.3379,-3.332,-3.3105,-3.293,-3.2851,-3.2637,-3.2383,-3.2285,-3.2266,-3.2207,-3.207,-3.2031,-3.1914,-3.168,-3.1601,-3.1465,-3.1113,-3.1094,-3.1094,-3.1055,-3.0918,-3.0898,-3.0898,-3.0976,-3.1055,-3.1094,-3.1133,-3.1328,-3.1601,-3.1621,-3.1777,-3.2031,-3.2051,-3.2031,-3.207,-3.2051,-3.2051,-3.2129,-3.1836,-3.1641,-3.1562,-3.1289,-3.1113,-3.1074,-3.1074,-3.1133,-3.0898,-3.0898,-3.0898,-3.0898,-3.0898,-3.0898,-3.0898,-3.0898,-3.0898,-3.0898,-3.0879,-3.084,-3.082,-3.0742,-3.0723,-3.0605,-3.0547,-3.0488,-3.043,-3.0273,-3.0117,-2.9789,-2.8671,-2.7272,-2.5275,-2.3278,-2.1771,-2.0366,-1.9658,-1.9457,-1.9444,-1.943,-1.943,-1.943,-1.943,-1.943,-4.4645,-4.2011,-4.1756,-4.182,-4.1756,-4.0278,-4.0278,-4.086,-3.9693,-3.7888,-3.6219,-3.6035,-3.6035,-3.6035,-3.6035,-3.6035,-3.6035,-3.6016,-3.5976,-3.5801,-3.541,-3.5,-3.459,-3.4101,-3.3769,-3.3496,-3.3418,-3.3418,-3.3418,-3.3418,-3.3418,-3.3418,-3.3418,-3.3418,-3.3398,-3.334,-3.3262,-3.3223,-3.3105,-3.2949,-3.2754,-3.2676,-3.2559,-3.2344,-3.2324,-3.2207,-3.2109,-3.2051,-3.2031,-3.1973,-3.1953,-3.1934,-3.1758,-3.1289,-3.1035,-3.1055,-3.1269,-3.1406,-3.1445,-3.1719,-3.1914,-3.2051,-3.2051,-3.207,-3.2187,-3.2226,-3.2324,-3.2285,-3.2266,-3.2287,-3.2168,-3.2129,-3.207,-3.2031,-3.1953,-3.1935,-3.1935,-3.1816,-3.1582,-3.1191,-3.1035,-3.0937,-3.0976,-3.0957,-3.0898,-3.0898,-3.0898,-3.0898,-3.0898,-3.0898,-3.0879,-3.0879,-3.0879,-3.0859,-3.084,-3.082,-3.0781,-3.0742,-3.0664,-3.0664,-3.0181,-2.9189,-2.7641,-2.5654,-2.4017,-2.2577,-2.1263,-1.9897,-1.9466,-1.9466,-1.9484,-1.943,-1.943,-1.943,-1.943,-4.4829,-4.2517,-4.2517,-4.1947,-4.1181,-4.0343,-3.9823,-3.9714,-3.8927,-3.7642,-3.6403,-3.6035,-3.6035,-3.6035,-3.6035,-3.6035,-3.6035,-3.6035,-3.6035,-3.5937,-3.5586,-3.5312,-3.4961,-3.4414,-3.4023,-3.373,-3.3555,-3.3418,-3.3418,-3.3418,-3.3418,-3.3418,-3.3418,-3.3418,-3.3418,-3.3398,-3.3418,-3.3418,-3.3398,-3.332,-3.3125,-3.3105,-3.2969,-3.2871,-3.2773,-3.2715,-3.25,-3.25,-3.2383,-3.2268,-3.2148,-3.2229,-3.2131,-3.1875,-3.1562,-3.1601,-3.1738,-3.1855,-3.1875,-3.209,-3.2226,-3.2461,-3.25,-3.2617,-3.2754,-3.2851,-3.2773,-3.2793,-3.2812,-3.2812,-3.2851,-3.2617,-3.25,-3.2441,-3.2324,-3.2226,-3.2187,-3.2187,-3.1934,-3.1582,-3.1426,-3.1328,-3.1191,-3.1113,-3.0957,-3.0898,-3.0898,-3.0898,-3.0898,-3.0898,-3.0898,-3.0898,-3.0898,-3.0898,-3.0898,-3.0898,-3.0898,-3.0898,-3.0898,-3.0898,-3.0392,-2.9375,-2.7825,-2.5963,-2.4515,-2.3001,-2.1419,-1.984,-1.9706,-1.9559,-1.9506,-1.9511,-1.9457,-1.943,-1.947,-4.5074,-4.3208,-4.3606,-4.2517,-4.086,-4.0666,-3.9888,-3.8729,-3.8154,-3.726,-3.6152,-3.6035,-3.6035,-3.6035,-3.6035,-3.6035,-3.6035,-3.6035,-3.6035,-3.5957,-3.5723,-3.5508,-3.5176,-3.4766,-3.4277,-3.3965,-3.3789,-3.3496,-3.3418,-3.3418,-3.3418,-3.3418,-3.3418,-3.3418,-3.3418,-3.3418,-3.3418,-3.3418,-3.3418,-3.3418,-3.3418,-3.3418,-3.3418,-3.3418,-3.3418,-3.3223,-3.2949,-3.293,-3.2793,-3.2598,-3.248,-3.2461,-3.2422,-3.2422,-3.2422,-3.2402,-3.2344,-3.2305,-3.2324,-3.2461,-3.2676,-3.2891,-3.291,-3.3105,-3.3242,-3.3281,-3.334,-3.3418,-3.3379,-3.334,-3.3242,-3.3086,-3.2949,-3.2871,-3.2656,-3.2441,-3.2519,-3.2559,-3.2598,-3.2285,-3.1973,-3.1777,-3.168,-3.1348,-3.1191,-3.1055,-3.1055,-3.0898,-3.0898,-3.0898,-3.0898,-3.0898,-3.0898,-3.0898,-3.0898,-3.0898,-3.0898,-3.0898,-3.0898,-3.0898,-3.0274,-2.953,-2.7842,-2.6198,-2.4527,-2.2945,-2.132,-2.012,-1.9973,-1.9826,-1.9653,-1.9626,-1.9706,-1.9639,-1.9599,-4.4398,-4.1629,-4.3083,-4.1861,-3.919,-3.8993,-3.8861,-3.8353,-3.6991,-3.6219,-3.6035,-3.6035,-3.6035,-3.6035,-3.6035,-3.6035,-3.6035,-3.6035,-3.6035,-3.5996,-3.5918,-3.5723,-3.5469,-3.5351,-3.4726,-3.4316,-3.4082,-3.375,-3.3555,-3.3457,-3.3418,-3.3418,-3.3418,-3.3418,-3.3418,-3.3418,-3.3418,-3.3418,-3.3418,-3.3418,-3.3418,-3.3418,-3.3418,-3.3418,-3.3418,-3.3379,-3.3281,-3.3262,-3.3203,-3.3223,-3.3223,-3.3242,-3.3281,-3.3262,-3.3262,-3.3164,-3.2969,-3.2715,-3.2773,-3.2949,-3.3125,-3.3242,-3.3281,-3.3359,-3.3398,-3.3418,-3.3418,-3.3418,-3.3418,-3.3418,-3.3418,-3.3359,-3.334,-3.3301,-3.3164,-3.3125,-3.3164,-3.293,-3.2969,-3.2949,-3.2617,-3.2383,-3.2226,-3.1797,-3.1445,-3.1309,-3.1172,-3.1035,-3.0918,-3.0937,-3.0898,-3.0898,-3.0898,-3.0898,-3.0898,-3.0898,-3.0898,-3.0898,-3.0898,-3.0898,-3.0333,-2.953,-2.8051,-2.6402,-2.4729,-2.3195,-2.1826,-2.0917,-2.0375,-2.0107,-1.9987,-2.004,-2.0147,-2.0013,-1.9826,-4.3419,-4.1373,-4.302,-4.1158,-3.7508,-3.8154,-3.8021,-3.7106,-3.6336,-3.6035,-3.6035,-3.6035,-3.6035,-3.6035,-3.6035,-3.6035,-3.6035,-3.6035,-3.6035,-3.6035,-3.6016,-3.5918,-3.5742,-3.5508,-3.5078,-3.4844,-3.4512,-3.4199,-3.3867,-3.3555,-3.3418,-3.3437,-3.3418,-3.3418,-3.3457,-3.3418,-3.3418,-3.3418,-3.3418,-3.3418,-3.3418,-3.3418,-3.3418,-3.3418,-3.3418,-3.3418,-3.3418,-3.3418,-3.3418,-3.3418,-3.3418,-3.3418,-3.3418,-3.3398,-3.3398,-3.3398,-3.3262,-3.3144,-3.3164,-3.332,-3.3398,-3.3418,-3.3418,-3.3418,-3.3418,-3.3418,-3.3418,-3.3418,-3.3418,-3.3418,-3.3418,-3.3418,-3.3418,-3.3418,-3.3418,-3.3418,-3.3418,-3.3418,-3.332,-3.3301,-3.3262,-3.2969,-3.2656,-3.2305,-3.1953,-3.1797,-3.1582,-3.1367,-3.1172,-3.1016,-3.0976,-3.0898,-3.0898,-3.0898,-3.0898,-3.0898,-3.0898,-3.0898,-3.0898,-3.082,-3.0509,-2.9589,-2.8367,-2.691,-2.5221,-2.3794,-2.241,-2.1389,-2.0569,-2.0414,-2.0334,-2.0361,-2.0361,-2.0254,-2.0107,-4.2706,-4.1373,-4.302,-4.0708,-3.6336,-3.8287,-3.8021,-3.6084,-3.6016,-3.6035,-3.6035,-3.6035,-3.6035,-3.6035,-3.6035,-3.6035,-3.6035,-3.6035,-3.6035,-3.6035,-3.6035,-3.6016,-3.5898,-3.5684,-3.5508,-3.541,-3.5019,-3.4648,-3.4258,-3.3965,-3.3769,-3.3594,-3.3652,-3.3613,-3.3574,-3.3476,-3.3418,-3.3418,-3.3418,-3.3418,-3.3418,-3.3418,-3.3418,-3.3418,-3.3418,-3.3418,-3.3418,-3.3418,-3.3418,-3.3418,-3.3418,-3.3418,-3.3418,-3.3418,-3.3418,-3.3418,-3.3359,-3.3359,-3.3359,-3.3398,-3.3418,-3.3418,-3.3418,-3.3418,-3.3418,-3.3418,-3.3418,-3.3418,-3.3418,-3.3418,-3.3418,-3.3418,-3.3418,-3.3418,-3.3418,-3.3418,-3.3418,-3.3418,-3.3418,-3.3379,-3.3359,-3.3379,-3.3086,-3.2773,-3.25,-3.2305,-3.2031,-3.1738,-3.1504,-3.1289,-3.1191,-3.1133,-3.0976,-3.0957,-3.0937,-3.0918,-3.0918,-3.0937,-3.0937,-3.0859,-3.0665,-3.0098,-2.9157,-2.7572,-2.6001,-2.4624,-2.3439,-2.21,-2.0775,-2.0735,-2.0681,-2.0575,-2.0521,-2.0428,-2.0388,-4.2706,-4.1373,-4.2958,-4.0708,-3.6268,-3.9627,-3.9059,-3.6084,-3.6035,-3.6035,-3.6035,-3.6035,-3.6035,-3.6035,-3.6035,-3.6035,-3.6035,-3.6035,-3.6035,-3.6035,-3.6035,-3.6035,-3.5976,-3.5898,-3.5762,-3.5488,-3.5351,-3.5098,-3.4785,-3.4687,-3.4375,-3.4101,-3.4062,-3.4043,-3.3945,-3.3789,-3.3633,-3.3594,-3.3555,-3.3496,-3.3476,-3.3437,-3.3418,-3.3418,-3.3418,-3.3418,-3.3418,-3.3418,-3.3418,-3.3418,-3.3418,-3.3418,-3.3418,-3.3418,-3.3418,-3.3418,-3.3418,-3.3418,-3.3418,-3.3418,-3.3418,-3.3418,-3.3418,-3.3418,-3.3418,-3.3418,-3.3418,-3.3418,-3.3418,-3.3418,-3.3418,-3.3418,-3.3418,-3.3418,-3.3418,-3.3418,-3.3418,-3.3418,-3.3418,-3.3418,-3.3418,-3.3418,-3.3418,-3.3086,-3.2949,-3.2754,-3.2402,-3.209,-3.1894,-3.1699,-3.1562,-3.1426,-3.1152,-3.1055,-3.0996,-3.1055,-3.125,-3.1211,-3.1152,-3.1055,-3.0918,-3.0332,-2.9785,-2.8979,-2.7512,-2.6001,-2.4409,-2.2959,-2.1763,-2.1294,-2.1015,-2.0855,-2.0815,-2.0802,-2.0735,-4.1756,-4.1245,-4.1884,-3.9758,-3.6287,-3.9693,-3.9169,-3.6355,-3.6035,-3.6035,-3.6035,-3.6035,-3.6035,-3.6035,-3.6035,-3.6035,-3.6035,-3.6035,-3.6035,-3.6035,-3.6035,-3.6035,-3.6035,-3.5996,-3.5918,-3.5781,-3.5742,-3.5547,-3.5195,-3.5293,-3.5215,-3.4961,-3.4629,-3.4473,-3.4355,-3.4258,-3.418,-3.4082,-3.3945,-3.3828,-3.3769,-3.3535,-3.3418,-3.3418,-3.3418,-3.3418,-3.3418,-3.3418,-3.3418,-3.3418,-3.3418,-3.3418,-3.3418,-3.3418,-3.3418,-3.3418,-3.3418,-3.3418,-3.3418,-3.3418,-3.3418,-3.3418,-3.3418,-3.3418,-3.3418,-3.3418,-3.3418,-3.3418,-3.3457,-3.3535,-3.3437,-3.3418,-3.3418,-3.3418,-3.3437,-3.3457,-3.3476,-3.3516,-3.3437,-3.3437,-3.3418,-3.3418,-3.3418,-3.3379,-3.3281,-3.3164,-3.2793,-3.248,-3.2305,-3.2109,-3.1992,-3.1855,-3.1601,-3.1523,-3.1504,-3.1562,-3.1641,-3.1523,-3.1406,-3.1348,-3.125,-3.0879,-3.0352,-2.9726,-2.892,-2.7211,-2.5513,-2.3807,-2.2591,-2.1538,-2.1159,-2.1069,-2.1082,-2.1109,-2.1002,-4.0731,-4.1117,-4.0666,-3.9059,-3.7307,-3.9953,-3.919,-3.6423,-3.6035,-3.6035,-3.6035,-3.6035,-3.6035,-3.6035,-3.6035,-3.6035,-3.6035,-3.6035,-3.6035,-3.6035,-3.6035,-3.6035,-3.6035,-3.6016,-3.6016,-3.6035,-3.5996,-3.5801,-3.5605,-3.5879,-3.5762,-3.5508,-3.5273,-3.5098,-3.4863,-3.4766,-3.4707,-3.4609,-3.4453,-3.4258,-3.4199,-3.4004,-3.3848,-3.3828,-3.375,-3.3652,-3.3613,-3.3535,-3.3418,-3.3418,-3.3418,-3.3418,-3.3418,-3.3418,-3.3418,-3.3418,-3.3418,-3.3437,-3.3418,-3.3418,-3.3418,-3.3418,-3.3418,-3.3418,-3.3437,-3.3535,-3.3672,-3.3672,-3.373,-3.375,-3.3672,-3.3672,-3.3672,-3.373,-3.3711,-3.373,-3.373,-3.373,-3.3574,-3.3457,-3.3437,-3.3418,-3.3418,-3.3418,-3.3379,-3.332,-3.3184,-3.291,-3.2793,-3.2598,-3.2402,-3.2285,-3.2129,-3.2109,-3.2129,-3.2031,-3.1934,-3.1955,-3.1797,-3.1758,-3.1601,-3.1289,-3.1094,-3.0701,-2.9677,-2.8241,-2.6608,-2.4778,-2.3076,-2.1475,-2.1222,-2.1109,-2.1109,-2.1109,-2.1109,-3.9693,-4.0924,-3.9453,-3.8663,-3.8663,-4.0408,-3.9125,-3.6219,-3.6035,-3.6035,-3.6035,-3.6035,-3.6035,-3.6035,-3.6035,-3.6035,-3.6035,-3.6035,-3.6035,-3.6035,-3.6035,-3.6035,-3.6035,-3.6035,-3.6035,-3.6035,-3.6016,-3.5996,-3.5957,-3.5996,-3.5976,-3.5957,-3.5781,-3.5644,-3.5351,-3.4941,-3.4726,-3.4726,-3.4746,-3.4707,-3.4668,-3.457,-3.4473,-3.4394,-3.4199,-3.4062,-3.4004,-3.3809,-3.3711,-3.3672,-3.3652,-3.3652,-3.3633,-3.3613,-3.3594,-3.3574,-3.3555,-3.3516,-3.3413,-3.3457,-3.3555,-3.3613,-3.3711,-3.3652,-3.3613,-3.3789,-3.4062,-3.4082,-3.4297,-3.4336,-3.4219,-3.4127,-3.4062,-3.4062,-3.4062,-3.4062,-3.4062,-3.4043,-3.3926,-3.3711,-3.3535,-3.3437,-3.3418,-3.3418,-3.3418,-3.3398,-3.3418,-3.332,-3.3164,-3.3047,-3.2812,-3.2734,-3.2637,-3.2598,-3.2539,-3.2344,-3.2246,-3.2268,-3.2248,-3.2168,-3.2031,-3.1738,-3.1582,-3.1444,-3.0181,-2.8523,-2.7116,-2.568,-2.3497,-2.1348,-2.1222,-2.1109,-2.1109,-2.1109,-2.1109,-3.9627,-4.1052,-3.9322,-3.9256,-4.0148,-3.9649,-3.8088,-3.6287,-3.6035,-3.6035,-3.6035,-3.6035,-3.6035,-3.6035,-3.6035,-3.6035,-3.6035,-3.6035,-3.6035,-3.6035,-3.6035,-3.6035,-3.6035,-3.6035,-3.6035,-3.6035,-3.6035,-3.6035,-3.6016,-3.6035,-3.6035,-3.6035,-3.6016,-3.5937,-3.582,-3.5605,-3.5586,-3.5527,-3.5351,-3.5156,-3.5117,-3.4902,-3.4746,-3.4746,-3.459,-3.4492,-3.4492,-3.4258,-3.416,-3.416,-3.4141,-3.416,-3.418,-3.418,-3.4199,-3.4219,-3.4238,-3.4277,-3.4277,-3.4277,-3.4277,-3.4258,-3.4199,-3.418,-3.4297,-3.4375,-3.4473,-3.4512,-3.4687,-3.4668,-3.4512,-3.4492,-3.4492,-3.4492,-3.4492,-3.4492,-3.4492,-3.4473,-3.4375,-3.4082,-3.3867,-3.3594,-3.3496,-3.3437,-3.3418,-3.3418,-3.3418,-3.3418,-3.3301,-3.332,-3.3203,-3.3203,-3.3144,-3.3066,-3.2969,-3.2793,-3.2773,-3.2812,-3.2715,-3.2598,-3.2402,-3.2187,-3.1527,-3.1089,-2.9981,-2.8763,-2.6511,-2.4393,-2.2793,-2.1411,-2.1159,-2.1109,-2.1109,-2.1109,-2.1109,-3.8976,-4.086,-3.8663,-3.9059,-4.0731,-3.9322,-3.7642,-3.6219,-3.6035,-3.6035,-3.6035,-3.6035,-3.6035,-3.6035,-3.6035,-3.6035,-3.6035,-3.6035,-3.6035,-3.6035,-3.6035,-3.6035,-3.6035,-3.6035,-3.6035,-3.6035,-3.6035,-3.6035,-3.6035,-3.6035,-3.6035,-3.6035,-3.6035,-3.6016,-3.5976,-3.5957,-3.5957,-3.5859,-3.5703,-3.5605,-3.5527,-3.5371,-3.5215,-3.5156,-3.5059,-3.4941,-3.4902,-3.4824,-3.4707,-3.4726,-3.4726,-3.4726,-3.4726,-3.4707,-3.4707,-3.4687,-3.4687,-3.4746,-3.4863,-3.4902,-3.4961,-3.5137,-3.4922,-3.4707,-3.4746,-3.4824,-3.4902,-3.4961,-3.5039,-3.5019,-3.4961,-3.4961,-3.4941,-3.4941,-3.4941,-3.4941,-3.4941,-3.4922,-3.4766,-3.4473,-3.4062,-3.3809,-3.3555,-3.3476,-3.3418,-3.3418,-3.3418,-3.3418,-3.3418,-3.3418,-3.3418,-3.3398,-3.3398,-3.3301,-3.3262,-3.3262,-3.3281,-3.3398,-3.3203,-3.2969,-3.2871,-3.2614,-3.166,-3.0711,-2.9842,-2.8263,-2.5141,-2.2906,-2.1933,-2.138,-2.1159,-2.1109,-2.1109,-2.1109,-2.1109,-3.7674,-4.0364,-3.7508,-3.8088,-4.0472,-3.9059,-3.7441,-3.6035,-3.6035,-3.6035,-3.6035,-3.6035,-3.6035,-3.6035,-3.6035,-3.6035,-3.6035,-3.6035,-3.6035,-3.6035,-3.6035,-3.6035,-3.6035,-3.6035,-3.6035,-3.6035,-3.6035,-3.6035,-3.6035,-3.6035,-3.6035,-3.6035,-3.6035,-3.6035,-3.6035,-3.6035,-3.6035,-3.5976,-3.5957,-3.5898,-3.584,-3.5879,-3.5781,-3.5703,-3.5547,-3.543,-3.5312,-3.5137,-3.4961,-3.4883,-3.4844,-3.4805,-3.4785,-3.4746,-3.4746,-3.4766,-3.4824,-3.5098,-3.5312,-3.5391,-3.5527,-3.5625,-3.5234,-3.4902,-3.4922,-3.5234,-3.5351,-3.5469,-3.5566,-3.5527,-3.5488,-3.5449,-3.541,-3.541,-3.541,-3.541,-3.541,-3.5312,-3.5137,-3.4805,-3.4297,-3.3965,-3.3672,-3.3535,-3.3496,-3.3418,-3.3418,-3.3418,-3.3418,-3.3418,-3.3418,-3.3418,-3.3418,-3.3418,-3.3418,-3.3418,-3.3418,-3.3418,-3.3418,-3.3242,-3.3184,-3.2961,-3.2142,-3.1208,-3.0021,-2.786,-2.4276,-2.2544,-2.1754,-2.139,-2.1349,-2.1176,-2.1189,-2.1122,-2.1109,-3.7858,-3.8721,-3.8075,-3.842,-3.8993,-3.7508,-3.6403,-3.6016,-3.6035,-3.6035,-3.6035,-3.6035,-3.6035,-3.6035,-3.6035,-3.6035,-3.6035,-3.6035,-3.6035,-3.6035,-3.6035,-3.6035,-3.6035,-3.6035,-3.6035,-3.6035,-3.6035,-3.6035,-3.6035,-3.6035,-3.6035,-3.6035,-3.6035,-3.6035,-3.6035,-3.6035,-3.6035,-3.6035,-3.6035,-3.6035,-3.6035,-3.6035,-3.6035,-3.5937,-3.5898,-3.5781,-3.5703,-3.5644,-3.5547,-3.5586,-3.5605,-3.5625,-3.5644,-3.5644,-3.5644,-3.5644,-3.5664,-3.5723,-3.582,-3.584,-3.5879,-3.5976,-3.5703,-3.5723,-3.5703,-3.5703,-3.5801,-3.584,-3.5879,-3.5801,-3.5781,-3.5762,-3.5742,-3.5723,-3.5742,-3.5723,-3.5723,-3.5684,-3.5488,-3.5098,-3.4609,-3.4238,-3.3926,-3.3691,-3.3652,-3.3496,-3.3437,-3.3496,-3.3437,-3.3437,-3.3418,-3.3418,-3.3418,-3.3418,-3.3418,-3.3418,-3.3418,-3.3418,-3.3418,-3.3418,-3.334,-3.3073,-3.2511,-3.1246,-2.9368,-2.6488,-2.3139,-2.2078,-2.1777,-2.179,-2.175,-2.1483,-2.1269,-2.1229,-2.1176,-3.6905,-3.7609,-3.7369,-3.7412,-3.7354,-3.6471,-3.6035,-3.6035,-3.6035,-3.6035,-3.6035,-3.6035,-3.6035,-3.6035,-3.6035,-3.6035,-3.6035,-3.6035,-3.6035,-3.6035,-3.6035,-3.6035,-3.6035,-3.6035,-3.6035,-3.6035,-3.6035,-3.6035,-3.6035,-3.6035,-3.6035,-3.6035,-3.6035,-3.6035,-3.6035,-3.6035,-3.6035,-3.6035,-3.6035,-3.6035,-3.6035,-3.6035,-3.6035,-3.6035,-3.6035,-3.6035,-3.6035,-3.6035,-3.6035,-3.6035,-3.6035,-3.6016,-3.6016,-3.5996,-3.5996,-3.5957,-3.5957,-3.5937,-3.5976,-3.5996,-3.6016,-3.6035,-3.6035,-3.5996,-3.5976,-3.5937,-3.5976,-3.5996,-3.6016,-3.6016,-3.6016,-3.6016,-3.6016,-3.6016,-3.6016,-3.6016,-3.6016,-3.6016,-3.5742,-3.5391,-3.5,-3.4629,-3.4316,-3.4062,-3.3945,-3.4043,-3.4004,-3.3926,-3.375,-3.3535,-3.3457,-3.3418,-3.3418,-3.3418,-3.3418,-3.3418,-3.3418,-3.3418,-3.3418,-3.3418,-3.3418,-3.3,-3.2353,-3.0388,-2.8161,-2.5449,-2.304,-2.2416,-2.2124,-2.2111,-2.2058,-2.183,-2.159,-2.1443,-2.1376,-3.5416,-3.6872,-3.5844,-3.5701,-3.5937,-3.5937,-3.5976,-3.6035,-3.6035,-3.6035,-3.6035,-3.6035,-3.6035,-3.6035,-3.6035,-3.6035,-3.6035,-3.6035,-3.6035,-3.6035,-3.6035,-3.6035,-3.6035,-3.6035,-3.6035,-3.6035,-3.6035,-3.6035,-3.6035,-3.6035,-3.6035,-3.6035,-3.6035,-3.6035,-3.6035,-3.6035,-3.6035,-3.6035,-3.6035,-3.6035,-3.6035,-3.6035,-3.6035,-3.6035,-3.6035,-3.6035,-3.6035,-3.6035,-3.6035,-3.6035,-3.6035,-3.6035,-3.6035,-3.6035,-3.6035,-3.6035,-3.6035,-3.6035,-3.6035,-3.6035,-3.6035,-3.6035,-3.6035,-3.6035,-3.6035,-3.6035,-3.6035,-3.6035,-3.6035,-3.6035,-3.6035,-3.6035,-3.6035,-3.6035,-3.6035,-3.6035,-3.6035,-3.6016,-3.5879,-3.5566,-3.5312,-3.498,-3.4785,-3.4512,-3.4297,-3.4512,-3.4512,-3.4355,-3.416,-3.3809,-3.3613,-3.3516,-3.3418,-3.3418,-3.3418,-3.3418,-3.3418,-3.3418,-3.3418,-3.3418,-3.3418,-3.2829,-3.211,-3.0024,-2.7802,-2.5789,-2.3775,-2.3063,-2.2392,-2.2311,-2.2231,-2.2124,-2.1964,-2.1869,-2.1722,-3.5595,-3.4883,-3.4864,-3.5137,-3.5508,-3.5547,-3.5742,-3.6016,-3.6035,-3.6035,-3.6035,-3.6035,-3.6035,-3.6035,-3.6035,-3.6035,-3.6035,-3.6035,-3.6035,-3.6035,-3.6035,-3.6035,-3.6035,-3.6035,-3.6035,-3.6035,-3.6035,-3.6035,-3.6035,-3.6035,-3.6035,-3.6035,-3.6035,-3.6035,-3.6035,-3.6035,-3.6035,-3.6035,-3.6035,-3.6035,-3.6035,-3.6035,-3.6035,-3.6035,-3.6035,-3.6035,-3.6035,-3.6035,-3.6035,-3.6035,-3.6035,-3.6035,-3.6035,-3.6035,-3.6035,-3.6035,-3.6035,-3.6035,-3.6035,-3.6035,-3.6035,-3.6035,-3.6035,-3.6035,-3.6035,-3.6035,-3.6035,-3.6035,-3.6035,-3.6035,-3.6035,-3.6035,-3.6035,-3.6035,-3.6035,-3.6035,-3.6035,-3.5996,-3.5957,-3.5781,-3.5566,-3.5391,-3.5195,-3.5019,-3.4766,-3.4687,-3.4668,-3.459,-3.4512,-3.4258,-3.3906,-3.375,-3.3476,-3.3437,-3.3418,-3.3418,-3.3418,-3.3418,-3.3418,-3.3418,-3.3418,-3.3019,-3.2365,-2.9947,-2.7653,-2.5798,-2.4256,-2.3161,-2.2672,-2.2539,-2.2512,-2.2445,-2.2432,-2.2311,-2.2111,-3.4702,-3.3892,-3.4238,-3.4687,-3.5078,-3.5293,-3.5527,-3.5742,-3.5937,-3.6035,-3.6035,-3.6035,-3.6035,-3.6035,-3.6035,-3.6035,-3.6035,-3.6035,-3.6035,-3.6035,-3.6035,-3.6035,-3.6035,-3.6035,-3.6035,-3.6035,-3.6035,-3.6035,-3.6035,-3.6035,-3.6035,-3.6035,-3.6035,-3.6035,-3.6035,-3.6035,-3.6035,-3.6035,-3.6035,-3.6035,-3.6035,-3.6035,-3.6035,-3.6035,-3.6035,-3.6035,-3.6035,-3.6035,-3.6035,-3.6035,-3.6035,-3.6035,-3.6035,-3.6035,-3.6035,-3.6035,-3.6035,-3.6035,-3.6035,-3.6035,-3.6035,-3.6035,-3.6035,-3.6035,-3.6035,-3.6035,-3.6035,-3.6035,-3.6035,-3.6035,-3.6035,-3.6035,-3.6035,-3.6035,-3.6035,-3.6035,-3.6035,-3.6016,-3.5996,-3.5937,-3.5801,-3.5762,-3.5625,-3.5605,-3.541,-3.541,-3.5312,-3.5078,-3.4961,-3.4726,-3.4375,-3.4043,-3.3809,-3.3516,-3.3418,-3.3418,-3.3418,-3.3418,-3.3418,-3.3418,-3.3355,-3.3292,-3.2511,-3.0012,-2.7834,-2.6239,-2.4776,-2.3461,-2.2928,-2.2739,-2.2766,-2.2806,-2.2779,-2.2726,-2.2539,-3.3437,-3.3476,-3.3828,-3.4238,-3.4648,-3.5098,-3.5351,-3.5469,-3.584,-3.6035,-3.6035,-3.6035,-3.6035,-3.6035,-3.6035,-3.6035,-3.6035,-3.6035,-3.6035,-3.6035,-3.6035,-3.6035,-3.6035,-3.6035,-3.6035,-3.6035,-3.6035,-3.6035,-3.6035,-3.6035,-3.6035,-3.6035,-3.6035,-3.6035,-3.6035,-3.6035,-3.6035,-3.6035,-3.6035,-3.6035,-3.6035,-3.6035,-3.6035,-3.6035,-3.6035,-3.6035,-3.6035,-3.6035,-3.6035,-3.6035,-3.6035,-3.6035,-3.6035,-3.6035,-3.6035,-3.6035,-3.6035,-3.6035,-3.6035,-3.6035,-3.6035,-3.6035,-3.6035,-3.6035,-3.6035,-3.6035,-3.6035,-3.6035,-3.6035,-3.6035,-3.6035,-3.6035,-3.6035,-3.6035,-3.6035,-3.6035,-3.6035,-3.6035,-3.6035,-3.6035,-3.6016,-3.5976,-3.5976,-3.5976,-3.5996,-3.6016,-3.5937,-3.5762,-3.5527,-3.5234,-3.4902,-3.4551,-3.4258,-3.3945,-3.3613,-3.3457,-3.3457,-3.3418,-3.3418,-3.3418,-3.3355,-3.3355,-3.2301,-2.9995,-2.7966,-2.6573,-2.4993,-2.3461,-2.3133,-2.2859,-2.2859,-2.2859,-2.2846,-2.2806,-2.2832,-3.3418,-3.3437,-3.3535,-3.3789,-3.4219,-3.4668,-3.5039,-3.543,-3.582,-3.6035,-3.6035,-3.6035,-3.6035,-3.6035,-3.6035,-3.6035,-3.6035,-3.6035,-3.6035,-3.6035,-3.6035,-3.6035,-3.6035,-3.6035,-3.6035,-3.6035,-3.6035,-3.6035,-3.6035,-3.6035,-3.6035,-3.6035,-3.6035,-3.6035,-3.6035,-3.6035,-3.6035,-3.6035,-3.6035,-3.6035,-3.6035,-3.6035,-3.6035,-3.6035,-3.6035,-3.6035,-3.6035,-3.6035,-3.6035,-3.6035,-3.6035,-3.6035,-3.6035,-3.6035,-3.6035,-3.6035,-3.6035,-3.6035,-3.6035,-3.6035,-3.6035,-3.6035,-3.6035,-3.6035,-3.6035,-3.6035,-3.6035,-3.6035,-3.6035,-3.6035,-3.6035,-3.6035,-3.6035,-3.6035,-3.6035,-3.6035,-3.6035,-3.6035,-3.6035,-3.6035,-3.6016,-3.6016,-3.6016,-3.6016,-3.6016,-3.6035,-3.6035,-3.5879,-3.582,-3.5605,-3.5391,-3.5078,-3.4726,-3.4355,-3.4023,-3.3613,-3.3516,-3.3457,-3.3418,-3.3418,-3.3418,-3.3418,-3.2027,-2.967,-2.8361,-2.7172,-2.5517,-2.3324,-2.3133,-2.2859,-2.2859,-2.2859,-2.2859,-2.2859,-2.2859]},{"header":{"parameterUnit":"m.s-1","parameterCategory":1,"la1":31.0,"la2":29.5877,"lo1":-88.7671,"lo2":-86.6584,"dy":0.0162,"dx":0.0185,"nx":115,"ny":88,"refTime":"2026-04-20T00:00:00:Z","depth":0,"parameterNumber":3,"parameterNumberName":"V-component_of_WINDS"},"data":[0.0,0.0,0.0,0.0,0.0,0.0,0.0,0.0,0.0,0.0,0.0,0.0,0.0,0.0,0.0,0.0,0.0,0.0,0.0,0.0,0.0,0.0,0.0,0.0,0.0,0.0,0.0,0.0,0.0,0.0,0.0,0.0,0.0,0.0,0.0,0.0,0.0,0.0,0.0,0.0,0.0,0.0,0.0,0.0,0.0,0.0,0.0,0.0,0.0,0.0,0.0,0.0,0.0,0.0,0.0,0.0,0.0,0.0,0.0,0.0,0.0,0.0,0.0,0.0,0.0,0.0,0.0,0.0,0.0,0.0,0.0,0.0,0.0,0.0,0.0,0.0,0.0,0.0,0.0,0.0,0.0,0.0,0.0,0.0,0.0,0.0,0.0,0.0,0.0,0.0,0.0,0.0,0.0,0.0,0.0,0.0,0.0,0.0,0.0,0.0,0.0,0.0,0.0,0.0,0.0,0.0,0.0,0.0,0.0,0.0,0.0,0.0,0.0,0.0,0.0,0.0,0.0,0.0,0.0,0.0,0.0,0.0,0.0,0.0,0.0,0.0,0.0,0.0,0.0,0.0,0.0,0.0,0.0,0.0,0.0,0.0,0.0,0.0,0.0,0.0,0.0,0.0,0.0,0.0,0.0,0.0,0.0,0.0,0.0,0.0,0.0,0.0,0.0,0.0,0.0,0.0,0.0,0.0,0.0,0.0,0.0,0.0,0.0,0.0,0.0,0.0,0.0,0.0,0.0,0.0,0.0,0.0,0.0,0.0,0.0,0.0,0.0,0.0,0.0,0.0,0.0,0.0,0.0,0.0,0.0,0.0,0.0,0.0,0.0,0.0,0.0,0.0,0.0,0.0,0.0,0.0,0.0,0.0,0.0,0.0,0.0,0.0,0.0,0.0,0.0,0.0,0.0,0.0,0.0,0.0,0.0,0.0,0.0,0.0,0.0,0.0,0.0,0.0,0.0,0.0,0.0,0.0,0.0,0.0,0.0,0.0,0.0,0.0,0.0,0.0,0.0,0.0,0.0,0.0,0.0,0.0,0.0,0.0,0.0,0.0,0.0,0.0,0.0,0.0,0.0,0.0,0.0,0.0,0.0,0.0,0.0,0.0,0.0,0.0,0.0,0.0,0.0,0.0,0.0,0.0,0.0,0.0,0.0,0.0,0.0,0.0,0.0,0.0,0.0,0.0,0.0,0.0,0.0,0.0,0.0,0.0,0.0,0.0,0.0,0.0,0.0,0.0,0.0,0.0,0.0,0.0,0.0,0.0,0.0,0.0,0.0,0.0,0.0,0.0,0.0,0.0,0.0,0.0,0.0,0.0,0.0,0.0,0.0,0.0,0.0,0.0,0.0,0.0,0.0,0.0,0.0,0.0,0.0,0.0,0.0,0.0,0.0,0.0,0.0,0.0,0.0,0.0,0.0,0.0,0.0,0.0,0.0,0.0,0.0,0.0,0.0,0.0,0.0,0.0,0.0,0.0,0.0,0.0,0.0,0.0,0.0,0.0,0.0,0.0,0.0,0.0,0.0,0.0,0.0,0.0,0.0,0.0,0.0,0.0,0.0,0.0,0.0,0.0,0.0,0.0,0.0,0.0,0.0,0.0,0.0,0.0,0.0,0.0,0.0,0.0,0.0,0.0,0.0,0.0,0.0,0.0,0.0,0.0,0.0,0.0,0.0,0.0,0.0,0.0,0.0,0.0,0.0,0.0,0.0,0.0,0.0,0.0,0.0,0.0,0.0,0.0,0.0,0.0,0.0,0.0,0.0,0.0,0.0,0.0,0.0,0.0,0.0,0.0,0.0,0.0,0.0,0.0,0.0,0.0,0.0,0.0,0.0,0.0,0.0,0.0,0.0,0.0,0.0,0.0,0.0,0.0,0.0,0.0,0.0,0.0,0.0,0.0,0.0,0.0,0.0,0.0,0.0,0.0,0.0,0.0,0.0,0.0,0.0,0.0,0.0,0.0,0.0,0.0,0.0,0.0,0.0,0.0,0.0,0.0,0.0,0.0,0.0,0.0,0.0,0.0,0.0,0.0,0.0,0.0,0.0,0.0,0.0,0.0,0.0,0.0,0.0,0.0,0.0,0.0,0.0,0.0,0.0,0.0,0.0,0.0,0.0,0.0,0.0,0.0,0.0,0.0,0.0,0.0,0.0,0.0,0.0,0.0,0.0,0.0,0.0,0.0,0.0,0.0,0.0,0.0,0.0,0.0,0.0,0.0,0.0,0.0,0.0,0.0,0.0,0.0,0.0,0.0,0.0,0.0,0.0,0.0,0.0,0.0,0.0,0.0,0.0,0.0,0.0,0.0,0.0,0.0,0.0,0.0,0.0,0.0,0.0,0.0,0.0,0.0,0.0,0.0,0.0,0.0,0.0,0.0,0.0,0.0,0.0,0.0,0.0,0.0,0.0,0.0,0.0,0.0,0.0,0.0,0.0,0.0,0.0,0.0,0.0,0.0,0.0,0.0,0.0,0.0,0.0,0.0,0.0,0.0,0.0,0.0,0.0,0.0,0.0,0.0,0.0,0.0,0.0,0.0,0.0,0.0,0.0,0.0,0.0,0.0,0.0,0.0,0.0,0.0,0.0,0.0,0.0,0.0,0.0,0.0,0.0,0.0,0.0,0.0,0.0,0.0,0.0,0.0,0.0,0.0,0.0,0.0,0.0,0.0,0.0,0.0,0.0,0.0,0.0,0.0,0.0,0.0,0.0,0.0,0.0,0.0,0.0,0.0,0.0,0.0,0.0,0.0,0.0,0.0,0.0,0.0,0.0,0.0,0.0,0.0,0.0,0.0,0.0,0.0,0.0,0.0,0.0,0.0,0.0,0.0,0.0,0.0,0.0,0.0,0.0,0.0,0.0,0.0,0.0,0.0,0.0,0.0,0.0,0.0,0.0,0.0,0.0,0.0,0.0,0.0,0.0,0.0,0.0,0.0,0.0,0.0,0.0,0.0,0.0,0.0,0.0,0.0,0.0,0.0,0.0,0.0,0.0,0.0,0.0,0.0,0.0,0.0,0.0,0.0,0.0,0.0,0.0,0.0,0.0,0.0,0.0,0.0,0.0,0.0,0.0,0.0,0.0,0.0,0.0,0.0,0.0,0.0,0.0,0.0,0.0,0.0,0.0,0.0,0.0,0.0,0.0,0.0,0.0,0.0,0.0,0.0,0.0,0.0,0.0,0.0,0.0,0.0,0.0,0.0,0.0,0.0,0.0,0.0,0.0,0.0,0.0,0.0,0.0,0.0,0.0,0.0,0.0,0.0,0.0,0.0,0.0,0.0,0.0,0.0,0.0,0.0,0.0,0.0,0.0,0.0,0.0,0.0,0.0,0.0,0.0,0.0,0.0,0.0,0.0,0.0,0.0,0.0,0.0,0.0,0.0,0.0,0.0,0.0,0.0,0.0,0.0,0.0,0.0,0.0,0.0,0.0,0.0,0.0,0.0,0.0,0.0,0.0,0.0,0.0,0.0,0.0,0.0,0.0,0.0,0.0,0.0,0.0,0.0,0.0,0.0,0.0,0.0,0.0,0.0,0.0,0.0,0.0,0.0,0.0,0.0,0.0,0.0,0.0,0.0,0.0,0.0,0.0,0.0,0.0,0.0,0.0,0.0,0.0,0.0,0.0,0.0,0.0,0.0,0.0,0.0,0.0,0.0,0.0,0.0,0.0,0.0,0.0,0.0,0.0,0.0,0.0,0.0,0.0,0.0,0.0,0.0,0.0,0.0,0.0,0.0,0.0,0.0,0.0,0.0,0.0,0.0,0.0,0.0,0.0,0.0,0.0,0.0,0.0,0.0,0.0,0.0,0.0,0.0,0.0,0.0,0.0,0.0,0.0,0.0,0.0,0.0,0.0,0.0,0.0,0.0,0.0,0.0,0.0,0.0,0.0,0.0,0.0,0.0,0.0,0.0,0.0,0.0,0.0,0.0,0.0,0.0,0.0,0.0,0.0,0.0,0.0,0.0,0.0,0.0,0.0,0.0,0.0,0.0,0.0,0.0,0.0,0.0,0.0,0.0,0.0,0.0,0.0,0.0,0.0,0.0,0.0,0.0,0.0,0.0,0.0,0.0,0.0,0.0,0.0,0.0,0.0,0.0,0.0,0.0,0.0,0.0,0.0,0.0,0.0,0.0,0.0,0.0,0.0,0.0,0.0,0.0,0.0,0.0,0.0,0.0,0.0,0.0,0.0,0.0,0.0,0.0,0.0,0.0,0.0,0.0,0.0,0.0,0.0,0.0,0.0,0.0,0.0,0.0,0.0,2.0717,0.0,0.0,0.0,0.0,0.0,0.0,0.0,0.0,0.0,0.0,0.0,0.0,0.0,0.0,0.0,0.0,0.0,0.0,0.0,0.0,0.0,0.0,0.0,0.0,0.0,0.0,0.0,0.0,0.0,0.0,0.0,0.0,0.0,0.0,0.0,0.0,0.0,0.0,0.0,0.0,0.0,0.0,0.0,0.0,0.0,0.0,0.0,0.0,0.0,0.0,0.0,0.0,0.0,0.0,0.0,0.0,0.0,0.0,0.0,0.0,0.0,0.0,0.0,0.0,0.0,0.0,0.0,0.0,0.0,0.0,0.0,0.0,0.0,0.0,0.0,0.0,0.0,0.0,0.0,0.0,0.0,0.0,0.0,0.0,0.0,0.0,0.0,0.0,0.0,0.0,0.0,0.0,0.0,0.0,0.0,0.0,0.0,0.0,0.0,0.0,0.0,0.0,0.0,0.0,0.0,0.0,0.0,0.0,0.0,0.0,2.2995,2.2719,2.2221,2.1669,2.1144,0.0,0.0,0.0,0.0,0.0,0.0,0.0,0.0,0.0,0.0,0.0,0.0,0.0,0.0,0.0,0.0,0.0,0.0,0.0,0.0,0.0,0.0,0.0,0.0,0.0,0.0,0.0,0.0,0.0,0.0,0.0,0.0,0.0,0.0,0.0,0.0,0.0,0.0,0.0,0.0,0.0,0.0,0.0,0.0,0.0,0.0,0.0,0.0,0.0,0.0,0.0,0.0,0.0,0.0,0.0,0.0,0.0,0.0,0.0,0.0,0.0,0.0,0.0,0.0,0.0,0.0,0.0,0.0,0.0,0.0,0.0,0.0,0.0,0.0,0.0,0.0,0.0,0.0,0.0,0.0,0.0,0.0,0.0,0.0,0.0,0.0,0.0,0.0,0.0,0.0,0.0,0.0,0.0,0.0,0.0,0.0,0.0,0.0,0.0,0.0,0.0,0.0,0.0,0.0,0.0,0.0,0.0,0.0,0.0,0.0,0.0,0.0,2.2769,2.2171,2.1493,0.0,0.0,0.0,0.0,0.0,0.0,0.0,0.0,0.0,0.0,0.0,0.0,0.0,0.0,0.0,0.0,0.0,0.0,0.0,0.0,0.0,0.0,0.0,0.0,0.0,0.0,0.0,0.0,0.0,0.0,0.0,0.0,0.0,0.0,0.0,0.0,0.0,0.0,0.0,0.0,0.0,0.0,0.0,0.0,0.0,0.0,0.0,0.0,0.0,0.0,0.0,0.0,0.0,0.0,0.0,0.0,0.0,0.0,0.0,0.0,0.0,0.0,0.0,0.0,0.0,0.0,0.0,0.0,0.0,0.0,0.0,0.0,0.0,0.0,0.0,0.0,0.0,0.0,0.0,0.0,0.0,0.0,0.0,0.0,0.0,0.0,0.0,0.0,0.0,0.0,0.0,0.0,0.0,0.0,0.0,0.0,0.0,0.0,0.0,0.0,0.0,0.0,0.0,0.0,0.0,0.0,0.0,0.0,0.0,0.0,2.3371,2.3904,2.3321,0.0,2.1543,0.0,0.0,0.0,0.0,0.0,0.0,0.0,0.0,0.0,0.0,0.0,0.0,0.0,0.0,0.0,0.0,0.0,0.0,0.0,0.0,0.0,0.0,0.0,0.0,0.0,0.0,0.0,0.0,0.0,0.0,0.0,0.0,0.0,0.0,0.0,0.0,0.0,0.0,0.0,0.0,0.0,0.0,0.0,0.0,0.0,0.0,0.0,0.0,0.0,0.0,0.0,0.0,0.0,0.0,0.0,0.0,0.0,0.0,0.0,0.0,0.0,0.0,0.0,0.0,0.0,0.0,0.0,0.0,0.0,0.0,0.0,0.0,0.0,0.0,0.0,0.0,0.0,0.0,0.0,0.0,0.0,0.0,0.0,0.0,0.0,0.0,0.0,0.0,0.0,0.0,0.0,0.0,0.0,0.0,0.0,0.0,0.0,0.0,0.0,0.0,0.0,0.0,0.0,0.0,0.0,0.0,0.0,0.0,0.0,0.0,2.3753,2.3979,2.3095,2.2418,0.0,0.0,0.0,0.0,0.0,0.0,0.0,0.0,0.0,0.0,0.0,0.0,0.0,0.0,0.0,0.0,0.0,0.0,0.0,0.0,0.0,0.0,0.0,0.0,0.0,0.0,0.0,0.0,0.0,0.0,0.0,0.0,0.0,0.0,0.0,0.0,0.0,0.0,0.0,0.0,0.0,0.0,0.0,0.0,0.0,0.0,0.0,0.0,0.0,0.0,0.0,0.0,0.0,0.0,0.0,0.0,0.0,0.0,0.0,0.0,0.0,0.0,0.0,0.0,0.0,0.0,0.0,0.0,0.0,0.0,0.0,0.0,0.0,0.0,0.0,0.0,0.0,0.0,0.0,0.0,0.0,0.0,0.0,0.0,0.0,0.0,0.0,0.0,0.0,0.0,0.0,0.0,0.0,0.0,0.0,0.0,0.0,0.0,0.0,0.0,0.0,0.0,0.0,0.0,0.0,0.0,0.0,0.0,0.0,0.0,2.3879,0.0,2.3954,2.305,2.2368,2.2096,0.0,0.0,0.0,0.0,0.0,0.0,0.0,0.0,0.0,0.0,0.0,0.0,0.0,0.0,0.0,0.0,0.0,0.0,0.0,0.0,0.0,0.0,0.0,0.0,0.0,0.0,0.0,0.0,0.0,0.0,0.0,0.0,0.0,0.0,0.0,0.0,0.0,0.0,0.0,0.0,0.0,0.0,0.0,0.0,0.0,0.0,0.0,0.0,0.0,0.0,0.0,0.0,0.0,0.0,0.0,0.0,0.0,0.0,0.0,0.0,0.0,0.0,0.0,0.0,0.0,0.0,0.0,0.0,0.0,0.0,0.0,0.0,0.0,0.0,0.0,0.0,0.0,0.0,0.0,0.0,0.0,0.0,0.0,0.0,0.0,0.0,0.0,0.0,0.0,0.0,0.0,0.0,0.0,0.0,0.0,0.0,0.0,0.0,0.0,0.0,0.0,0.0,0.0,0.0,0.0,0.0,0.0,0.0,0.0,2.4255,2.4004,2.4029,2.3371,2.2569,0.0,0.0,0.0,0.0,0.0,0.0,0.0,0.0,0.0,0.0,0.0,0.0,0.0,0.0,0.0,0.0,0.0,0.0,0.0,0.0,0.0,0.0,0.0,0.0,0.0,0.0,0.0,0.0,0.0,0.0,0.0,0.0,0.0,0.0,0.0,0.0,0.0,0.0,0.0,0.0,0.0,0.0,0.0,0.0,0.0,0.0,0.0,0.0,0.0,0.0,0.0,0.0,0.0,0.0,0.0,0.0,0.0,0.0,0.0,0.0,0.0,0.0,0.0,0.0,0.0,0.0,0.0,0.0,0.0,0.0,0.0,0.0,0.0,0.0,0.0,0.0,0.0,0.0,0.0,0.0,0.0,0.0,0.0,0.0,0.0,0.0,0.0,0.0,0.0,0.0,0.0,0.0,0.0,0.0,0.0,0.0,0.0,0.0,0.0,0.0,0.0,0.0,0.0,0.0,0.0,0.0,0.0,0.0,0.0,2.3697,2.3904,2.433,2.4933,2.3452,2.2393,0.0,0.0,0.0,0.0,0.0,0.0,0.0,0.0,0.0,0.0,0.0,0.0,0.0,0.0,0.0,0.0,0.0,0.0,0.0,0.0,0.0,0.0,0.0,0.0,0.0,0.0,0.0,0.0,0.0,0.0,0.0,0.0,0.0,0.0,0.0,0.0,0.0,0.0,0.0,0.0,0.0,0.0,0.0,0.0,0.0,0.0,0.0,0.0,0.0,0.0,0.0,0.0,0.0,0.0,0.0,0.0,0.0,0.0,0.0,0.0,0.0,0.0,0.0,0.0,0.0,0.0,0.0,0.0,0.0,0.0,0.0,0.0,0.0,0.0,0.0,0.0,0.0,0.0,0.0,0.0,0.0,0.0,0.0,0.0,0.0,0.0,0.0,0.0,0.0,0.0,0.0,0.0,0.0,0.0,0.0,0.0,0.0,0.0,0.0,0.0,0.0,0.0,0.0,0.0,0.0,0.0,0.0,0.0,0.0,2.3769,0.0,2.534,0.0,2.3748,2.2509,0.0,0.0,0.0,0.0,0.0,0.0,0.0,0.0,0.0,0.0,0.0,0.0,0.0,0.0,0.0,0.0,0.0,0.0,0.0,0.0,0.0,0.0,0.0,0.0,0.0,0.0,0.0,0.0,0.0,0.0,0.0,0.0,0.0,0.0,0.0,0.0,0.0,0.0,0.0,0.0,0.0,0.0,0.0,0.0,0.0,0.0,0.0,0.0,0.0,0.0,0.0,0.0,0.0,0.0,0.0,0.0,0.0,0.0,0.0,0.0,0.0,0.0,0.0,0.0,0.0,0.0,0.0,0.0,0.0,0.0,0.0,0.0,0.0,0.0,0.0,0.0,0.0,0.0,0.0,0.0,0.0,0.0,0.0,0.0,0.0,0.0,0.0,0.0,0.0,0.0,0.0,0.0,0.0,0.0,0.0,0.0,0.0,0.0,0.0,0.0,0.0,0.0,0.0,0.0,0.0,0.0,0.0,0.0,2.3321,2.513,2.7036,2.6818,2.4532,2.4339,2.2921,0.0,0.0,0.0,0.0,0.0,0.0,0.0,0.0,0.0,0.0,0.0,0.0,0.0,0.0,0.0,0.0,0.0,0.0,0.0,0.0,0.0,0.0,0.0,0.0,0.0,0.0,0.0,0.0,0.0,0.0,0.0,0.0,0.0,0.0,0.0,0.0,0.0,0.0,0.0,0.0,0.0,0.0,0.0,0.0,0.0,0.0,0.0,0.0,0.0,0.0,0.0,0.0,0.0,0.0,0.0,0.0,0.0,0.0,0.0,0.0,0.0,0.0,0.0,0.0,0.0,0.0,0.0,0.0,0.0,0.0,0.0,0.0,0.0,0.0,0.0,0.0,0.0,0.0,0.0,0.0,0.0,0.0,0.0,0.0,0.0,0.0,0.0,0.0,0.0,0.0,0.0,0.0,0.0,0.0,0.0,0.0,0.0,0.0,0.0,0.0,0.0,0.0,0.0,0.0,0.0,0.0,0.0,0.0,0.0,2.4443,2.595,2.6578,2.6083,2.4075,2.2794,0.0,0.0,0.0,0.0,0.0,0.0,0.0,0.0,0.0,0.0,0.0,0.0,0.0,0.0,0.0,0.0,0.0,0.0,0.0,0.0,0.0,0.0,0.0,0.0,0.0,0.0,0.0,0.0,0.0,0.0,0.0,0.0,0.0,0.0,0.0,0.0,0.0,0.0,0.0,0.0,0.0,0.0,0.0,0.0,0.0,0.0,0.0,0.0,0.0,0.0,0.0,0.0,0.0,0.0,0.0,0.0,0.0,0.0,0.0,0.0,0.0,0.0,0.0,0.0,0.0,0.0,0.0,0.0,0.0,0.0,0.0,0.0,0.0,0.0,0.0,0.0,0.0,0.0,0.0,0.0,0.0,0.0,0.0,0.0,0.0,0.0,0.0,0.0,0.0,0.0,0.0,0.0,0.0,0.0,0.0,0.0,0.0,0.0,0.0,0.0,0.0,0.0,0.0,0.0,0.0,0.0,0.0,0.0,0.0,2.6002,2.7251,2.7771,2.7377,2.5014,2.3664,2.3576,0.0,0.0,0.0,0.0,0.0,0.0,0.0,0.0,0.0,0.0,0.0,0.0,0.0,0.0,0.0,0.0,0.0,0.0,0.0,0.0,0.0,0.0,0.0,0.0,0.0,0.0,0.0,0.0,0.0,0.0,0.0,0.0,0.0,0.0,0.0,0.0,0.0,0.0,0.0,0.0,0.0,0.0,0.0,0.0,0.0,0.0,0.0,0.0,0.0,0.0,0.0,0.0,0.0,0.0,0.0,0.0,0.0,0.0,0.0,0.0,0.0,0.0,0.0,0.0,0.0,0.0,0.0,0.0,0.0,0.0,0.0,0.0,0.0,0.0,0.0,0.0,0.0,0.0,0.0,0.0,0.0,0.0,0.0,0.0,0.0,0.0,0.0,0.0,0.0,0.0,0.0,0.0,0.0,0.0,0.0,0.0,0.0,0.0,0.0,0.0,0.0,0.0,0.0,0.0,0.0,0.0,0.0,0.0,2.9334,3.0611,3.0327,2.8441,2.6931,2.5412,0.0,0.0,0.0,0.0,0.0,0.0,0.0,0.0,0.0,0.0,0.0,0.0,0.0,0.0,0.0,0.0,0.0,0.0,0.0,0.0,0.0,0.0,0.0,0.0,0.0,0.0,0.0,0.0,0.0,0.0,0.0,0.0,0.0,0.0,0.0,0.0,0.0,0.0,0.0,0.0,0.0,0.0,0.0,0.0,0.0,0.0,0.0,0.0,0.0,0.0,0.0,0.0,0.0,0.0,0.0,0.0,0.0,0.0,0.0,0.0,0.0,0.0,0.0,0.0,0.0,0.0,0.0,0.0,0.0,0.0,0.0,0.0,0.0,0.0,0.0,0.0,0.0,0.0,0.0,0.0,0.0,0.0,0.0,0.0,0.0,0.0,0.0,0.0,0.0,0.0,0.0,0.0,0.0,0.0,0.0,0.0,0.0,0.0,0.0,0.0,0.0,0.0,0.0,0.0,0.0,0.0,0.0,0.0,0.0,3.196,3.2844,3.236,3.0454,2.8196,2.6591,0.0,0.0,0.0,0.0,0.0,0.0,0.0,0.0,0.0,0.0,0.0,0.0,0.0,0.0,0.0,0.0,0.0,0.0,0.0,0.0,0.0,0.0,0.0,0.0,0.0,0.0,0.0,0.0,0.0,0.0,0.0,0.0,0.0,0.0,0.0,0.0,0.0,0.0,0.0,0.0,0.0,0.0,0.0,0.0,0.0,0.0,0.0,0.0,0.0,0.0,0.0,0.0,0.0,0.0,0.0,0.0,0.0,0.0,0.0,0.0,0.0,0.0,0.0,0.0,0.0,0.0,0.0,0.0,0.0,0.0,0.0,0.0,0.0,0.0,0.0,0.0,0.0,0.0,0.0,0.0,0.0,0.0,0.0,0.0,0.0,0.0,0.0,0.0,0.0,0.0,0.0,0.0,0.0,0.0,0.0,0.0,0.0,0.0,0.0,0.0,0.0,0.0,0.0,0.0,0.0,0.0,0.0,0.0,3.1725,3.4083,3.4965,3.4643,3.3035,3.0321,2.833,0.0,0.0,0.0,0.0,0.0,0.0,0.0,0.0,0.0,0.0,0.0,0.0,0.0,0.0,0.0,0.0,0.0,0.0,0.0,0.0,0.0,0.0,0.0,0.0,0.0,0.0,0.0,0.0,0.0,0.0,0.0,0.0,0.0,0.0,0.0,0.0,0.0,0.0,0.0,0.0,0.0,0.0,0.0,0.0,0.0,0.0,0.0,0.0,0.0,0.0,0.0,0.0,0.0,0.0,0.0,0.0,0.0,0.0,0.0,0.0,0.0,0.0,0.0,0.0,0.0,0.0,0.0,0.0,0.0,0.0,0.0,0.0,0.0,0.0,0.0,0.0,0.0,0.0,0.0,0.0,0.0,0.0,0.0,0.0,0.0,0.0,0.0,0.0,0.0,0.0,0.0,0.0,0.0,0.0,0.0,0.0,0.0,0.0,0.0,0.0,0.0,0.0,0.0,0.0,0.0,0.0,0.0,0.0,3.3566,3.5636,3.6866,3.6956,3.5786,3.2852,3.0359,0.0,0.0,0.0,0.0,0.0,0.0,0.0,0.0,0.0,0.0,0.0,0.0,0.0,0.0,0.0,0.0,0.0,0.0,0.0,0.0,0.0,0.0,0.0,0.0,0.0,0.0,0.0,0.0,0.0,0.0,0.0,0.0,0.0,0.0,0.0,0.0,0.0,0.0,0.0,0.0,0.0,0.0,0.0,0.0,0.0,0.0,0.0,0.0,0.0,0.0,0.0,0.0,0.0,0.0,0.0,0.0,0.0,0.0,0.0,0.0,0.0,0.0,0.0,0.0,0.0,0.0,0.0,0.0,0.0,0.0,0.0,0.0,0.0,0.0,0.0,0.0,0.0,0.0,0.0,0.0,0.0,0.0,0.0,0.0,0.0,0.0,0.0,0.0,0.0,0.0,0.0,0.0,0.0,0.0,0.0,0.0,0.0,0.0,0.0,0.0,0.0,0.0,0.0,0.0,0.0,0.0,0.0,0.0,3.4387,3.6922,3.7793,3.8063,3.7793,3.4661,3.1698,0.0,0.0,0.0,0.0,0.0,0.0,0.0,0.0,0.0,0.0,0.0,0.0,0.0,0.0,0.0,0.0,0.0,0.0,0.0,0.0,0.0,0.0,0.0,0.0,0.0,0.0,0.0,0.0,0.0,0.0,0.0,0.0,0.0,0.0,0.0,0.0,0.0,0.0,0.0,0.0,0.0,0.0,0.0,0.0,0.0,0.0,0.0,0.0,2.4306,0.0,0.0,0.0,0.0,0.0,0.0,0.0,0.0,0.0,0.0,0.0,0.0,0.0,0.0,0.0,0.0,0.0,0.0,0.0,0.0,0.0,0.0,0.0,0.0,0.0,0.0,0.0,0.0,0.0,0.0,0.0,0.0,0.0,0.0,0.0,0.0,0.0,0.0,0.0,0.0,0.0,0.0,0.0,0.0,0.0,0.0,0.0,0.0,0.0,0.0,0.0,0.0,0.0,0.0,0.0,0.0,0.0,0.0,0.0,3.5874,3.7823,3.8542,3.8721,3.8332,3.6118,3.3579,0.0,0.0,0.0,0.0,0.0,0.0,0.0,0.0,0.0,0.0,0.0,0.0,0.0,0.0,0.0,0.0,0.0,0.0,0.0,0.0,0.0,0.0,0.0,0.0,0.0,0.0,0.0,0.0,0.0,0.0,0.0,0.0,0.0,0.0,0.0,0.0,0.0,0.0,0.0,0.0,0.0,0.0,0.0,0.0,0.0,0.0,0.0,0.0,0.0,0.0,0.0,0.0,0.0,0.0,0.0,0.0,0.0,0.0,0.0,0.0,0.0,0.0,0.0,0.0,0.0,0.0,0.0,0.0,0.0,0.0,0.0,0.0,0.0,0.0,0.0,0.0,0.0,0.0,0.0,0.0,0.0,0.0,0.0,0.0,0.0,0.0,0.0,0.0,0.0,0.0,0.0,0.0,0.0,0.0,0.0,0.0,0.0,0.0,0.0,0.0,0.0,0.0,0.0,0.0,0.0,0.0,0.0,3.519,3.6985,3.8332,3.905,3.914,3.8542,3.7315,3.537,3.2774,0.0,0.0,0.0,0.0,0.0,0.0,0.0,0.0,0.0,0.0,0.0,0.0,0.0,0.0,0.0,0.0,0.0,0.0,0.0,0.0,0.0,0.0,0.0,0.0,0.0,0.0,0.0,0.0,0.0,0.0,0.0,0.0,0.0,0.0,0.0,0.0,0.0,0.0,2.6656,2.7889,0.0,0.0,0.0,0.0,0.0,0.0,0.0,0.0,2.5232,0.0,0.0,0.0,0.0,0.0,0.0,0.0,0.0,0.0,0.0,0.0,0.0,0.0,0.0,0.0,0.0,0.0,0.0,0.0,0.0,0.0,0.0,0.0,0.0,0.0,0.0,0.0,0.0,0.0,0.0,0.0,0.0,0.0,0.0,0.0,0.0,0.0,0.0,0.0,0.0,0.0,0.0,0.0,0.0,0.0,0.0,0.0,0.0,0.0,0.0,0.0,0.0,0.0,0.0,0.0,0.0,3.4919,3.5459,3.6537,3.8332,3.905,3.9379,3.9194,3.7943,3.623,3.3897,0.0,0.0,0.0,0.0,0.0,0.0,0.0,0.0,0.0,0.0,0.0,0.0,0.0,0.0,0.0,0.0,0.0,0.0,0.0,0.0,0.0,0.0,0.0,0.0,0.0,0.0,0.0,0.0,0.0,0.0,0.0,0.0,0.0,0.0,0.0,0.0,0.0,0.0,0.0,2.8603,2.9205,0.0,0.0,0.0,0.0,0.0,0.0,0.0,0.0,2.5322,0.0,0.0,0.0,0.0,0.0,0.0,0.0,0.0,0.0,0.0,0.0,0.0,0.0,0.0,0.0,0.0,0.0,0.0,0.0,0.0,0.0,0.0,0.0,0.0,0.0,0.0,0.0,0.0,0.0,0.0,0.0,0.0,0.0,0.0,0.0,0.0,0.0,0.0,0.0,0.0,0.0,0.0,0.0,0.0,0.0,0.0,0.0,0.0,0.0,0.0,0.0,0.0,0.0,0.0,0.0,3.4891,3.6297,3.7614,3.8871,3.923,3.9403,3.9343,3.7793,3.6081,0.0,0.0,0.0,0.0,0.0,0.0,0.0,0.0,0.0,0.0,0.0,0.0,0.0,0.0,0.0,0.0,0.0,0.0,0.0,0.0,0.0,0.0,0.0,0.0,0.0,0.0,0.0,0.0,0.0,0.0,0.0,0.0,0.0,0.0,0.0,0.0,0.0,0.0,0.0,0.0,2.9445,2.9953,2.9624,0.0,0.0,0.0,0.0,0.0,0.0,2.6363,2.6363,0.0,0.0,0.0,0.0,0.0,0.0,0.0,0.0,0.0,0.0,0.0,0.0,0.0,0.0,0.0,0.0,0.0,0.0,0.0,0.0,0.0,0.0,0.0,0.0,0.0,0.0,0.0,0.0,0.0,0.0,0.0,0.0,0.0,0.0,0.0,0.0,0.0,0.0,0.0,0.0,0.0,0.0,0.0,0.0,0.0,0.0,0.0,0.0,0.0,0.0,0.0,0.0,0.0,0.0,0.0,3.4923,3.7075,3.8661,3.9559,3.9499,3.9403,3.9343,3.7614,3.59,0.0,0.0,0.0,0.0,0.0,0.0,0.0,0.0,0.0,0.0,0.0,0.0,0.0,0.0,0.0,0.0,0.0,0.0,0.0,0.0,0.0,0.0,0.0,0.0,0.0,0.0,0.0,0.0,0.0,0.0,0.0,0.0,0.0,0.0,0.0,0.0,0.0,0.0,0.0,0.0,0.0,3.0971,3.0552,3.0073,0.0,0.0,0.0,0.0,2.729,2.7764,0.0,0.0,0.0,0.0,0.0,0.0,0.0,0.0,0.0,0.0,0.0,0.0,0.0,0.0,0.0,0.0,0.0,0.0,0.0,0.0,0.0,0.0,0.0,0.0,0.0,0.0,0.0,0.0,0.0,0.0,0.0,0.0,0.0,0.0,0.0,0.0,0.0,0.0,0.0,0.0,0.0,0.0,0.0,0.0,0.0,0.0,0.0,0.0,0.0,0.0,0.0,0.0,0.0,0.0,0.0,0.0,3.6148,3.7075,3.8422,4.0157,3.9709,3.9403,3.9373,3.8033,3.6314,0.0,0.0,0.0,0.0,0.0,0.0,0.0,0.0,0.0,0.0,0.0,0.0,0.0,0.0,0.0,0.0,0.0,0.0,0.0,0.0,0.0,0.0,0.0,0.0,0.0,0.0,0.0,0.0,0.0,0.0,0.0,0.0,0.0,0.0,0.0,0.0,0.0,0.0,0.0,0.0,0.0,3.2497,3.0761,3.0432,3.0163,0.0,0.0,2.9325,2.9262,2.9774,0.0,0.0,0.0,0.0,0.0,0.0,0.0,0.0,0.0,0.0,0.0,0.0,0.0,0.0,0.0,0.0,0.0,0.0,0.0,0.0,0.0,0.0,0.0,0.0,0.0,0.0,0.0,0.0,0.0,0.0,0.0,0.0,0.0,0.0,0.0,0.0,0.0,0.0,0.0,0.0,0.0,0.0,0.0,0.0,0.0,0.0,0.0,0.0,0.0,0.0,0.0,0.0,0.0,0.0,0.0,3.3724,3.5908,3.7674,3.8925,3.9798,3.9559,3.9403,3.9373,3.7764,3.6104,0.0,0.0,0.0,0.0,0.0,0.0,0.0,0.0,0.0,0.0,0.0,0.0,0.0,0.0,0.0,0.0,0.0,0.0,0.0,0.0,0.0,0.0,0.0,0.0,0.0,0.0,0.0,0.0,0.0,0.0,0.0,0.0,0.0,0.0,0.0,0.0,0.0,0.0,0.0,0.0,0.0,0.0,3.2198,3.1869,0.0,0.0,0.0,3.1261,3.1365,0.0,0.0,0.0,0.0,0.0,0.0,0.0,0.0,0.0,0.0,0.0,0.0,0.0,0.0,0.0,0.0,0.0,0.0,0.0,0.0,0.0,0.0,0.0,0.0,0.0,0.0,0.0,0.0,0.0,0.0,0.0,0.0,0.0,0.0,0.0,0.0,0.0,0.0,0.0,0.0,0.0,0.0,0.0,0.0,0.0,0.0,0.0,0.0,0.0,0.0,0.0,0.0,0.0,0.0,0.0,0.0,0.0,3.5759,3.8147,3.9499,3.9649,3.9499,3.9403,3.9343,3.7674,0.0,0.0,0.0,0.0,0.0,0.0,0.0,0.0,0.0,0.0,0.0,0.0,0.0,0.0,0.0,0.0,0.0,0.0,0.0,0.0,0.0,0.0,0.0,0.0,0.0,0.0,0.0,2.2233,0.0,0.0,0.0,0.0,0.0,0.0,0.0,0.0,0.0,0.0,0.0,0.0,0.0,0.0,3.2617,3.3604,3.3455,3.3335,0.0,0.0,3.3542,3.3439,3.3829,3.3514,0.0,0.0,0.0,0.0,0.0,0.0,0.0,0.0,0.0,0.0,0.0,0.0,0.0,0.0,0.0,0.0,0.0,0.0,0.0,0.0,0.0,0.0,0.0,0.0,0.0,0.0,0.0,0.0,0.0,0.0,0.0,0.0,0.0,0.0,0.0,0.0,0.0,0.0,0.0,0.0,0.0,0.0,0.0,0.0,0.0,0.0,0.0,0.0,0.0,0.0,0.0,0.0,0.0,0.0,0.0,3.6417,3.8392,3.9709,4.0307,3.9738,3.9403,3.9409,3.8063,3.6447,0.0,0.0,0.0,0.0,0.0,0.0,0.0,0.0,0.0,0.0,0.0,0.0,0.0,0.0,0.0,0.0,0.0,0.0,0.0,0.0,0.0,0.0,0.0,0.0,0.0,0.0,0.0,0.0,0.0,0.0,0.0,0.0,0.0,0.0,0.0,0.0,0.0,0.0,0.0,0.0,0.0,3.4354,3.4414,3.4921,3.5519,0.0,0.0,3.6257,3.5514,3.7137,3.693,3.2352,0.0,0.0,0.0,0.0,0.0,0.0,0.0,0.0,0.0,0.0,0.0,0.0,0.0,0.0,0.0,0.0,0.0,0.0,0.0,0.0,0.0,0.0,0.0,0.0,0.0,0.0,0.0,0.0,0.0,0.0,0.0,0.0,0.0,0.0,0.0,0.0,0.0,0.0,0.0,0.0,0.0,0.0,0.0,0.0,0.0,0.0,0.0,0.0,0.0,0.0,0.0,0.0,0.0,3.4292,3.5878,3.8212,3.9529,3.9768,3.9523,3.9403,3.9403,3.8093,3.6297,0.0,0.0,0.0,0.0,0.0,0.0,0.0,0.0,0.0,0.0,0.0,0.0,0.0,0.0,0.0,0.0,0.0,0.0,0.0,0.0,0.0,0.0,0.0,0.0,0.0,0.0,0.0,0.0,2.4687,2.5196,2.5428,0.0,0.0,0.0,0.0,0.0,0.0,0.0,0.0,0.0,0.0,3.5931,3.7651,3.7777,0.0,0.0,3.8745,3.8697,3.8431,3.8316,3.7455,3.519,3.3656,0.0,0.0,0.0,0.0,0.0,0.0,0.0,0.0,0.0,0.0,0.0,0.0,0.0,0.0,0.0,0.0,0.0,0.0,0.0,0.0,0.0,0.0,0.0,0.0,0.0,0.0,0.0,0.0,0.0,0.0,0.0,0.0,0.0,0.0,0.0,0.0,0.0,0.0,0.0,0.0,0.0,0.0,0.0,0.0,0.0,0.0,0.0,0.0,0.0,0.0,0.0,0.0,3.4173,3.5489,3.8058,3.9403,3.9403,3.9403,3.9403,3.9343,3.8302,3.6567,0.0,0.0,0.0,0.0,0.0,0.0,0.0,0.0,0.0,0.0,0.0,0.0,0.0,0.0,0.0,0.0,0.0,0.0,0.0,0.0,0.0,0.0,0.0,0.0,0.0,0.0,0.0,0.0,2.6123,2.6363,2.6572,0.0,0.0,0.0,0.0,0.0,0.0,0.0,0.0,0.0,0.0,3.7295,3.9608,3.9574,3.9413,3.9866,4.0011,4.004,4.0038,3.935,3.8405,3.7306,0.0,0.0,0.0,0.0,0.0,0.0,0.0,0.0,0.0,0.0,0.0,0.0,0.0,0.0,0.0,0.0,0.0,0.0,0.0,0.0,0.0,0.0,0.0,0.0,0.0,0.0,0.0,3.3514,0.0,0.0,3.157,0.0,0.0,0.0,0.0,0.0,0.0,0.0,0.0,0.0,0.0,0.0,0.0,0.0,0.0,0.0,0.0,0.0,0.0,0.0,0.0,0.0,0.0,3.4173,3.5487,3.8123,3.9403,3.9403,3.9403,3.9403,3.9373,3.8721,3.7434,3.5429,0.0,0.0,0.0,0.0,0.0,0.0,0.0,0.0,0.0,0.0,0.0,0.0,0.0,0.0,0.0,0.0,0.0,0.0,0.0,0.0,0.0,0.0,0.0,0.0,0.0,0.0,2.6656,2.6004,2.5914,0.0,0.0,0.0,0.0,0.0,0.0,0.0,0.0,0.0,0.0,3.6974,3.8386,3.9738,3.993,3.9961,3.9903,4.0037,4.0089,4.0,4.0575,4.0375,0.0,0.0,0.0,0.0,0.0,0.0,0.0,0.0,0.0,0.0,0.0,0.0,0.0,0.0,0.0,0.0,0.0,0.0,0.0,0.0,0.0,0.0,0.0,0.0,0.0,0.0,0.0,3.6926,3.6088,0.0,0.0,0.0,0.0,0.0,0.0,0.0,0.0,0.0,0.0,0.0,3.7075,3.7109,0.0,0.0,0.0,0.0,0.0,0.0,0.0,0.0,0.0,0.0,0.0,0.0,3.525,3.6237,3.8751,3.9858,3.9403,3.9403,3.9403,3.9409,3.8751,3.6836,3.3604,0.0,0.0,0.0,0.0,0.0,0.0,0.0,0.0,0.0,0.0,0.0,0.0,0.0,0.0,0.0,0.0,0.0,0.0,0.0,0.0,0.0,0.0,0.0,0.0,0.0,2.7979,0.0,0.0,0.0,0.0,0.0,0.0,0.0,0.0,0.0,0.0,0.0,3.5366,3.7754,3.8798,3.9847,4.1311,4.1943,4.2214,0.0,0.0,0.0,0.0,0.0,0.0,0.0,0.0,0.0,0.0,0.0,0.0,0.0,0.0,3.8058,3.4134,3.2814,3.2374,3.2611,0.0,0.0,0.0,0.0,0.0,0.0,0.0,0.0,0.0,0.0,0.0,0.0,0.0,0.0,3.8841,3.8392,3.7524,0.0,0.0,0.0,0.0,0.0,0.0,0.0,0.0,3.8362,3.896,3.908,3.908,3.8871,0.0,3.7375,3.5609,0.0,0.0,0.0,0.0,0.0,0.0,0.0,0.0,3.5818,3.6567,3.908,4.0098,3.9433,3.9403,3.9403,3.9409,3.8751,3.6866,3.3633,3.2078,3.037,0.0,0.0,0.0,0.0,0.0,0.0,0.0,0.0,0.0,0.0,0.0,0.0,0.0,0.0,0.0,0.0,0.0,0.0,0.0,0.0,0.0,0.0,0.0,2.8862,0.0,0.0,0.0,0.0,0.0,0.0,0.0,0.0,0.0,3.4553,3.5943,3.7778,4.0,4.0624,4.1305,4.2523,0.0,0.0,0.0,0.0,0.0,0.0,0.0,4.1102,4.0595,4.0358,4.029,4.0493,4.1542,4.2151,4.1381,0.0,0.0,3.728,3.6096,3.5892,3.6363,3.6795,3.7136,3.7456,3.8397,3.9188,0.0,0.0,0.0,0.0,0.0,0.0,0.0,0.0,4.0876,4.0576,0.0,3.917,0.0,0.0,0.0,0.0,3.5848,3.8212,0.0,0.0,4.1683,4.2243,4.0576,4.0516,4.0487,4.0457,3.9828,3.911,3.8212,3.4592,0.0,0.0,0.0,0.0,0.0,0.0,3.5908,3.6656,3.911,4.0098,3.9403,3.9403,3.9373,3.9313,3.8721,3.7464,3.5609,3.4801,3.3036,2.9891,2.9116,0.0,0.0,0.0,0.0,0.0,0.0,0.0,0.0,0.0,0.0,0.0,0.0,0.0,0.0,0.0,0.0,0.0,0.0,0.0,0.0,2.9619,0.0,0.0,0.0,0.0,0.0,0.0,0.0,0.0,0.0,0.0,3.6307,3.7843,3.9884,4.2016,0.0,0.0,0.0,0.0,4.32,4.2489,4.2388,4.2455,4.2455,4.2997,4.3409,4.3375,0.0,0.0,4.3606,4.4113,4.4412,4.3673,4.4113,4.4175,4.2591,4.1052,4.0567,4.1691,4.0909,4.0831,4.2532,4.247,4.2516,4.3389,0.0,0.0,0.0,0.0,4.1572,4.2521,4.4167,4.3958,4.3359,4.2423,4.2034,0.0,0.0,0.0,0.0,0.0,0.0,3.9828,4.0583,4.1504,4.2132,4.2453,4.2453,4.2453,4.2423,4.1803,4.0935,3.9798,3.8212,3.5818,3.2706,0.0,0.0,0.0,0.0,3.7434,3.8571,3.9798,4.0098,3.9403,3.9403,3.9134,3.8691,3.8033,3.7225,3.6237,3.5549,3.4352,3.2467,3.1749,0.0,0.0,0.0,0.0,0.0,0.0,0.0,0.0,0.0,0.0,0.0,0.0,0.0,0.0,0.0,0.0,0.0,0.0,0.0,3.0181,3.0273,3.0551,0.0,0.0,0.0,0.0,0.0,0.0,0.0,0.0,0.0,4.0396,4.0526,4.117,0.0,0.0,4.2354,4.2591,4.3538,4.4181,4.3972,4.4384,0.0,4.4722,4.4451,4.4248,4.4248,4.4891,4.5297,4.5094,4.5669,4.6075,4.5838,4.5568,4.5229,4.4818,4.3894,4.3182,4.3048,4.336,4.3905,4.4511,4.5221,4.5924,4.716,4.4477,4.3429,4.3479,4.4317,4.4317,4.5316,4.686,4.6591,4.6022,4.5274,4.4695,4.329,4.1324,4.0965,0.0,0.0,0.0,4.1683,4.298,4.298,4.3359,4.4077,4.3798,4.3678,4.3618,4.2791,4.2141,4.1534,4.0367,3.8482,3.5908,0.0,0.0,3.5342,3.6956,3.8212,3.899,3.9918,4.0068,3.9439,3.9403,3.923,3.8811,3.8153,3.7494,3.6866,3.6477,3.5639,3.4352,3.3634,3.2407,0.0,0.0,0.0,0.0,0.0,0.0,0.0,0.0,0.0,0.0,0.0,2.7555,2.5585,0.0,0.0,0.0,2.9886,3.1046,3.2137,3.2196,0.0,0.0,0.0,0.0,0.0,0.0,0.0,4.045,4.1813,4.2828,4.3538,4.3267,4.3436,4.4621,4.4113,4.3741,4.4045,0.0,4.5026,4.5026,4.5162,4.5365,4.5635,4.5568,4.5664,4.6244,4.6684,4.6989,4.7022,4.7394,4.7564,4.7289,4.7053,4.6743,4.6163,4.6005,4.5692,4.4773,4.5363,4.6266,4.6866,4.7693,4.8359,5.0571,4.9329,4.68,4.6411,4.7459,4.7519,4.8177,4.9239,4.8656,4.8386,4.8207,4.701,4.5753,4.4436,4.2611,0.0,4.3529,4.3469,4.4107,4.5274,4.5274,4.5274,4.5244,4.4676,4.4377,4.4287,4.309,4.2761,4.312,4.1414,4.0217,3.9493,3.7764,3.6806,3.6716,3.7793,3.8452,3.8571,3.9738,4.0038,3.9403,3.9403,3.9343,3.932,3.8721,3.8093,3.7524,3.7494,3.6926,3.5789,3.5011,3.3754,3.1839,0.0,0.0,0.0,0.0,0.0,0.0,0.0,0.0,0.0,0.0,0.0,0.0,0.0,0.0,0.0,3.2729,0.0,3.4904,3.5024,0.0,0.0,0.0,3.6476,3.9242,4.0192,4.1349,4.3185,0.0,0.0,4.5534,4.5703,4.6075,4.6786,4.621,4.594,4.6616,4.6041,4.5703,4.5669,4.5196,4.5026,4.5771,4.638,4.7192,4.8342,4.8917,4.8748,4.8714,4.8646,4.8511,4.7868,4.8254,4.8183,4.6819,4.7426,4.7994,4.6624,4.6986,4.7834,4.8919,4.9331,4.9661,5.1798,5.1379,5.0272,4.9434,4.8865,4.9344,4.9434,4.9359,4.9613,4.9224,4.8267,4.7938,4.7369,4.6531,4.5574,4.5304,4.5574,4.5065,4.5005,4.5274,4.5274,4.5274,4.5274,4.5155,4.4796,4.4317,4.3988,4.3419,4.265,4.2171,4.1602,4.0905,4.0457,3.9475,3.8003,3.8242,3.8901,3.9918,3.9738,3.9589,3.9403,3.9403,3.917,3.8631,3.8482,3.8302,3.8153,3.8153,3.8033,3.7704,3.6626,3.531,3.3844,3.0999,0.0,0.0,0.0,0.0,0.0,0.0,0.0,0.0,0.0,3.0886,2.8394,0.0,3.1063,0.0,3.4887,3.6386,3.7158,3.7235,0.0,0.0,3.9462,3.9885,4.2152,4.3075,4.3535,4.3409,4.4587,4.5297,4.4919,4.5838,4.6819,4.7496,4.6515,4.5771,4.594,4.5838,4.5703,4.5771,4.6041,4.6312,4.6515,4.7158,4.7733,4.8075,4.8173,4.8142,4.8173,4.7699,4.7225,4.7086,4.7084,4.6973,4.6698,4.7169,4.7529,4.7291,4.7674,4.8187,4.8544,4.915,4.9647,5.2905,5.2576,5.1917,5.1229,5.0571,5.0661,5.0481,5.0182,5.0511,5.0092,4.9105,4.8536,4.8087,4.7698,4.704,4.677,4.6741,4.6352,4.6202,4.6202,4.6172,4.6202,4.6172,4.5903,4.5544,4.5185,4.4586,4.3928,4.324,4.294,4.2462,4.1871,4.1841,4.1153,3.9768,3.9738,3.9948,4.0397,3.9768,3.9403,3.9403,3.9403,3.911,3.8422,3.8093,3.7823,3.7554,3.7554,3.7554,3.7524,3.6866,3.6028,3.4981,3.3001,3.1436,0.0,0.0,0.0,0.0,0.0,0.0,0.0,0.0,0.0,0.0,0.0,3.3335,3.5514,3.7892,3.932,3.9399,4.0007,4.0903,4.203,4.1829,4.2378,4.4193,4.4823,4.5026,4.4959,4.5974,4.6515,4.6143,4.7056,4.7936,4.8342,4.7398,4.6819,4.709,4.6921,4.6684,4.6688,4.6752,4.6786,4.6786,4.7124,4.7428,4.7428,4.7428,4.7484,4.7739,4.7518,4.7192,4.7175,4.7334,4.7329,4.7049,4.7411,4.7777,4.7838,4.8055,4.8434,4.882,4.928,4.9684,5.3862,5.3264,5.2606,5.2306,5.2276,5.1618,5.1289,5.1229,5.1229,5.0794,5.0106,4.9045,4.8506,4.8401,4.7728,4.7429,4.7429,4.7339,4.7309,4.7309,4.7309,4.7309,4.7279,4.6711,4.6339,4.6219,4.5125,4.4466,4.4287,4.3708,4.312,4.253,4.253,4.2231,4.1654,4.1624,4.1265,4.0546,3.9888,3.9493,3.9529,3.9469,3.908,3.8392,3.7823,3.7255,3.6626,3.6596,3.6596,3.6596,3.657,3.6274,3.5771,3.5094,3.4231,0.0,3.3163,0.0,0.0,0.0,0.0,0.0,0.0,0.0,0.0,3.5785,3.6698,3.8242,4.0956,4.2286,4.1576,4.2733,4.3572,4.3572,4.3612,4.422,4.5534,4.5872,4.6177,4.6752,4.7462,4.7872,4.7669,4.8409,4.8849,4.8748,4.8342,4.8173,4.8714,4.8173,4.7597,4.7767,4.7225,4.6786,4.6819,4.6921,4.7048,4.7102,4.7092,4.7158,4.7788,4.7654,4.7492,4.7481,4.7818,4.8033,4.7493,4.7895,4.8267,4.8267,4.8287,4.8526,4.9114,4.9463,4.9831,5.4132,5.3952,5.3264,5.2995,5.2935,5.2306,5.1708,5.1229,5.1229,5.0794,5.0196,4.9927,4.9583,4.909,4.8386,4.8117,4.8057,4.7549,4.7309,4.7309,4.7309,4.7309,4.7309,4.7189,4.683,4.6279,4.604,4.5394,4.4317,4.4197,4.3808,4.311,4.311,4.305,4.2931,0.0,0.0,0.0,4.0546,4.0217,4.0187,3.9679,3.908,3.8422,3.8272,0.0,3.7285,3.7225,3.7225,3.7225,3.6746,0.0,0.0,0.0,0.0,0.0,0.0,0.0,0.0,0.0,0.0,0.0,3.9087,3.9072,3.852,4.1049,4.1927,4.0117,4.2467,4.3842,4.3064,4.3809,4.435,4.4384,4.4891,4.5399,4.5703,4.6722,4.7361,4.6853,4.7462,4.7669,4.7225,4.7665,4.8139,4.824,4.8545,4.8815,4.8984,4.7936,4.7056,4.6989,4.6989,4.6819,4.6786,4.7293,4.7704,4.8254,4.7941,4.7842,4.8326,4.7491,4.6691,4.672,4.7147,4.7601,4.7442,4.7879,4.8306,4.8306,4.8306,4.8343,4.8526,4.9114,4.9647,5.47,5.464,5.3982,5.3683,0.0,5.2965,5.2306,5.1678,5.1349,5.102,5.0644,5.0345,4.9986,4.9703,4.9045,4.8596,4.8267,4.7938,4.7608,4.7309,4.7309,4.7309,4.7309,4.7309,4.713,4.68,4.6429,4.5963,4.5304,4.4646,4.4137,4.3808,4.3439,4.329,4.329,4.329,4.2851,4.1901,4.1205,4.0726,4.0397,4.0068,3.9409,3.8452,3.8392,0.0,0.0,0.0,0.0,0.0,0.0,0.0,0.0,0.0,0.0,3.8525,3.8908,3.9017,3.8738,3.9914,4.0709,4.0742,4.2085,4.2416,4.1345,4.2968,4.3563,4.2551,4.408,4.4959,4.4621,4.5229,4.5698,4.5698,4.6007,4.6244,4.6312,4.6887,4.7192,4.6955,4.7432,4.7736,4.7394,4.8003,4.8443,4.8477,4.8748,4.9018,4.8951,4.8376,4.7902,4.7868,4.7564,4.7361,4.7361,4.7259,4.7593,4.8107,4.8023,4.8033,4.8568,4.8018,4.7442,4.7407,4.7617,4.7838,4.7858,4.8094,4.8306,4.8306,4.8306,4.8306,4.8306,4.8673,4.8967,5.5209,5.5149,5.461,5.4401,5.4341,5.3653,5.2905,5.2157,5.1498,0.0,0.0,5.0584,5.0375,5.0315,4.9733,4.9134,4.8626,4.8386,4.7997,4.7489,4.7369,4.7309,4.7309,4.7309,4.7309,4.7279,4.6741,4.6399,4.6292,4.5185,4.4526,4.4287,4.3708,4.3409,4.3319,4.329,4.306,4.256,4.1893,4.1332,4.0756,4.0636,3.9918,3.8601,3.8571,3.8212,3.7434,3.8251,3.8383,3.7714,3.9157,3.9747,3.9251,4.0442,4.1295,4.1631,4.2735,4.3172,4.276,4.3403,4.3673,4.3301,4.4215,4.4479,4.3646,4.395,4.4384,4.4784,4.5568,4.6041,4.5906,4.6413,4.6786,4.6786,4.6786,4.6786,4.6786,4.6921,4.7056,4.7056,4.7699,4.8105,4.8139,4.8612,4.9018,4.8984,4.8984,4.9018,4.9018,4.8951,4.8849,4.8815,4.8409,4.8075,4.8037,4.7699,4.7481,4.8232,4.8298,4.8371,4.8813,4.888,4.8738,4.8517,4.8453,4.8287,4.8287,4.8287,4.8306,4.8306,4.8306,4.8306,4.8306,4.8306,4.8343,5.5209,5.5179,5.5089,5.5059,5.4999,5.4341,5.3354,5.2157,5.1528,5.1229,5.1199,5.1063,5.1033,5.105,5.0345,5.0016,4.9867,4.8805,4.8237,4.8117,4.7578,4.7309,4.7309,4.7309,4.7309,4.7309,4.7219,4.686,4.6309,4.607,4.5442,4.4436,4.4227,4.3868,4.3349,4.329,4.326,4.314,4.259,4.2231,4.2111,4.1572,4.0636,3.9349,3.929,3.8691,3.7464,3.8282,3.8645,3.8548,3.947,4.0232,4.0827,4.1091,4.1754,4.2947,4.3287,4.3673,4.4215,4.4959,4.5843,4.6925,4.6143,4.5229,4.4553,4.6177,4.6819,4.5771,4.6752,4.7327,4.6752,4.6752,4.6853,4.6853,4.6819,4.6786,4.6887,4.7394,4.7767,4.7736,4.8409,4.8815,4.8815,4.8917,4.9018,4.9018,4.9018,4.9018,4.9018,4.9018,4.9018,4.8984,4.8917,4.8849,4.8748,4.8781,4.8843,4.9579,4.959,4.9705,5.0291,4.9959,4.9561,4.9444,4.8857,4.8416,4.8379,4.8306,4.8306,4.8306,4.8306,4.8306,4.8306,4.8306,4.8306,5.5209,5.5209,5.5209,5.5209,5.5149,5.4491,5.3862,5.3204,5.2187,5.1528,5.1229,5.1229,5.1229,5.1199,5.0853,5.0524,5.0166,4.9613,4.9164,4.882,4.8147,4.7848,4.7788,4.7489,4.7309,4.7309,4.7309,4.716,4.686,4.6459,4.6256,4.6133,4.5541,4.508,4.4849,4.4365,4.4358,4.4825,4.3585,4.2973,4.3121,4.2349,4.1746,4.126,4.1234,4.0807,3.9795,4.105,4.1374,4.0546,4.1759,4.2477,4.2331,4.277,4.3339,4.4018,4.4823,4.5229,4.5196,4.5872,4.6583,4.7225,4.6684,4.6143,4.5805,4.6718,4.7022,4.638,4.6955,4.7361,4.7394,4.7394,4.7564,4.797,4.8003,4.797,4.8037,4.8274,4.8477,4.8545,4.8781,4.9018,4.9018,4.9018,4.9018,4.9018,4.9018,4.9018,4.9018,4.9018,4.9018,4.9018,4.9018,4.9018,4.9018,4.9018,4.9286,4.989,5.0301,5.0616,5.095,5.0757,5.0725,5.0288,4.9554,4.9077,4.9003,4.86,4.8379,4.8306,4.8306,4.8306,4.8306,4.8306,4.8306,5.5209,5.5209,5.5209,5.5209,5.5149,5.464,5.4341,5.4102,5.3084,5.2187,5.1468,5.1289,5.1229,5.1229,5.1449,5.1317,5.0864,5.0925,5.0591,4.9853,4.9189,4.8826,4.8602,4.8119,4.7915,4.7976,4.8019,4.7988,4.7927,4.7471,4.7518,4.8012,4.7004,4.6476,4.6429,4.574,4.5646,4.6067,4.4713,4.4082,4.4304,4.3635,4.3291,4.3336,4.3345,4.3032,4.2375,4.3816,4.4063,4.2975,4.4268,4.4769,4.4178,4.4711,4.5089,4.5224,4.6172,4.6549,4.6041,4.6481,4.6887,4.7022,4.7056,4.7124,4.7259,4.7293,4.7192,4.709,4.7259,4.7597,4.8037,4.8142,4.8409,4.8951,4.9018,4.8917,4.8984,4.9018,4.9018,4.9018,4.9018,4.9018,4.9018,4.9018,4.9018,4.9018,4.9018,4.9018,4.9018,4.9018,4.9018,4.9018,4.9018,4.9018,4.9018,4.9018,4.9286,4.9925,5.0608,5.1033,5.1202,5.1668,5.1752,5.1096,5.0398,4.9921,4.9831,4.9187,4.8746,4.8673,4.8526,4.8306,4.8306,4.8306,4.8306,5.5209,5.5209,5.5209,5.5209,5.5179,5.5119,5.476,5.4251,5.4042,5.3294,5.2097,5.1468,5.1229,5.1339,5.2215,5.2647,5.2582,5.307,5.2702,5.1667,5.0986,5.0294,4.9789,4.9603,4.9759,5.0026,5.0041,4.9891,4.9931,4.9985,4.9719,4.9234,4.8541,4.7874,4.7301,4.7097,4.6777,4.624,4.6032,4.5929,4.5936,4.5901,4.5582,4.4984,4.5019,4.4667,4.4029,4.4885,4.5362,4.5265,4.6036,4.6519,4.6461,4.6519,4.6583,4.6549,4.6718,4.6752,4.6718,4.6752,4.7124,4.7703,4.777,4.8071,4.8646,4.8748,4.8511,4.8071,4.8376,4.8714,4.8883,4.8883,4.8883,4.8951,4.9018,4.9018,4.9018,4.9018,4.9018,4.9018,4.9018,4.9018,4.9018,4.9018,4.9018,4.9018,4.9018,4.9018,4.9018,4.9018,4.9018,4.9018,4.9018,4.9018,4.9018,4.9018,4.9286,4.989,5.0608,5.1211,5.167,5.1938,5.194,5.1903,5.1242,5.0729,5.0508,5.0031,4.9537,4.937,4.9003,4.8416,4.8343,4.8416,4.8416,5.5209,5.5209,5.5209,5.5209,5.5209,5.5209,5.5029,5.476,5.4371,5.3653,5.2755,5.2097,5.1588,5.1246,5.2395,5.29,5.2958,5.3798,5.3933,5.345,5.2817,5.2311,5.2027,5.1173,5.0906,5.0973,5.0621,5.0397,5.0474,5.0968,5.0945,5.0261,4.9975,4.9768,4.9556,4.8617,4.8223,4.8498,4.8067,4.7868,4.7737,4.6765,4.6325,4.6579,4.6646,4.6288,4.5734,4.6407,4.6706,4.6304,4.6604,4.6786,4.6786,4.6786,4.6786,4.6819,4.7225,4.7665,4.8071,4.8105,4.824,4.8545,4.8545,4.8714,4.8951,4.9018,4.8883,4.868,4.8849,4.9018,4.9018,4.9018,4.9018,4.9018,4.9018,4.9018,4.9018,4.9018,4.9018,4.9018,4.9018,4.9018,4.9018,4.9018,4.9018,4.9018,4.9018,4.9018,4.9018,4.9018,4.9018,4.9018,4.9018,4.9018,4.9018,4.9018,4.9316,4.989,5.0608,5.1317,5.1922,5.2506,5.2711,5.2674,5.2013,5.1573,5.1499,5.0875,5.0288,5.0178,5.0178,4.9774,4.9774,4.9407,4.915,5.5209,5.5209,5.5209,5.5209,5.5209,5.5209,5.5209,5.5149,5.467,5.4102,5.3414,5.2755,5.2097,5.1686,5.2487,5.3033,5.3514,5.4547,5.5043,5.4979,5.4535,5.418,5.3922,5.2986,5.243,5.227,5.1857,5.1494,5.1369,5.1921,5.2049,5.1617,5.1586,5.1563,5.1391,5.0226,4.9925,5.0242,4.9661,4.9323,4.9099,4.777,4.7306,4.7934,4.7966,4.7733,4.7236,4.7835,4.797,4.7428,4.7394,4.7394,4.7394,4.7394,4.7394,4.7428,4.7902,4.8443,4.8984,4.9018,4.9018,4.9018,4.9018,4.9018,4.9018,4.9018,4.9018,4.8984,4.9018,4.9018,4.9018,4.9018,4.9018,4.9018,4.9018,4.9018,4.9018,4.9018,4.9018,4.9018,4.9018,4.9018,4.9018,4.9018,4.9018,4.9018,4.9018,4.9018,4.9018,4.9018,4.9018,4.9018,4.9018,4.9018,4.9018,4.9018,4.9316,4.989,5.0608,5.1317,5.1994,5.2725,5.3167,5.2894,5.2527,5.2344,5.227,5.172,5.1022,5.0875,5.0839,5.0802,5.0582,5.0215,4.9904,5.5209,5.5209,5.5209,5.5209,5.5209,5.5209,5.5209,5.5209,5.5119,5.476,5.4072,5.3443,5.2785,5.2222,5.2733,5.3514,5.4547,5.5651,5.6126,5.6126,5.606,5.5698,5.5034,5.4974,5.4734,5.4419,5.4184,5.3851,5.3314,5.3348,5.3416,5.3315,5.3213,5.2943,5.2301,5.2032,5.1761,5.1117,5.0405,5.0033,4.9965,4.9297,4.8832,4.8928,4.8925,4.8827,4.8824,4.8886,4.8883,4.8883,4.8815,4.8849,4.8883,4.8849,4.8815,4.8849,4.8883,4.8951,4.8984,4.9018,4.9018,4.9018,4.9018,4.9018,4.9018,4.9018,4.9018,4.9018,4.9018,4.9018,4.9018,4.9018,4.9018,4.9018,4.9018,4.9018,4.9018,4.9018,4.9018,4.9018,4.9018,4.9018,4.9018,4.9018,4.9018,4.9018,4.9018,4.9018,4.9018,4.9018,4.9018,4.9018,4.9018,4.9018,4.9018,4.9018,4.9286,4.9867,5.0527,5.1292,5.1994,5.2658,5.2937,5.3203,5.302,5.2931,5.2931,5.2527,5.1793,5.1426,5.1242,5.1169,5.1426,5.0949,5.0508,5.5209,5.5209,5.5209,5.5209,5.5209,5.5209,5.5209,5.5209,5.5209,5.482,5.4251,5.3952,5.3473,5.2833,5.3346,5.3922,5.4746,5.6432,5.7297,5.7297,5.7297,5.713,5.6895,5.6422,5.6133,5.595,5.5513,5.4938,5.4194,5.3754,5.3518,5.3518,5.3518,5.3348,5.3044,5.257,5.2164,5.186,5.1183,5.0811,5.0744,5.0067,4.9695,4.9661,4.9221,4.9018,4.9018,4.9018,4.9018,4.9018,4.9018,4.9018,4.9018,4.9018,4.9018,4.9018,4.9018,4.9018,4.9018,4.9018,4.9018,4.9018,4.9018,4.9018,4.9018,4.9018,4.9018,4.9018,4.9018,4.9018,4.9018,4.9018,4.9018,4.9018,4.9018,4.9018,4.9018,4.9018,4.9018,4.9018,4.9018,4.9018,4.9018,4.9018,4.9018,4.9018,4.9018,4.9018,4.9018,4.9018,4.9018,4.9018,4.9018,4.9018,4.9018,4.9018,4.9229,4.9751,5.0362,5.106,5.1716,5.2219,5.2531,5.3124,5.3203,5.3167,5.3057,5.2983,5.2344,5.2344,5.2123,5.1977,5.2323,5.172,5.1022,5.5209,5.5209,5.5209,5.5209,5.5209,5.5209,5.5401,5.572,5.5769,5.5743,5.556,5.5056,5.4739,5.4665,5.477,5.5098,5.5563,5.6867,5.7554,5.7881,5.7881,5.7881,5.7814,5.7374,5.7036,5.6731,5.6055,5.531,5.4634,5.4093,5.3754,5.3518,5.3518,5.3518,5.3416,5.2942,5.2672,5.2536,5.1928,5.1555,5.1488,5.0811,5.0439,5.0405,4.9965,4.9458,4.9052,4.9018,4.9018,4.9018,4.9018,4.9018,4.9018,4.9018,4.9018,4.9018,4.9018,4.9018,4.9018,4.9018,4.9018,4.9018,4.9255,4.9357,4.9357,4.956,4.9695,4.9729,4.9695,4.9695,4.9729,4.9729,4.9526,4.9187,4.9221,4.9255,4.9052,4.9221,4.9357,4.9357,4.9154,4.9052,4.9018,4.9018,4.9018,4.9018,4.9018,4.9018,4.9018,4.9018,4.9018,4.9018,4.9018,4.9018,4.9018,4.9018,4.9018,4.9462,4.9947,5.0662,5.1393,5.179,5.2335,5.2915,5.3203,5.3203,5.3203,5.3203,5.3203,5.3203,5.2983,5.2726,5.2653,5.2344,5.161,5.5209,5.5209,5.5209,5.5209,5.5209,5.5209,5.5869,5.6638,5.6848,5.7308,5.7711,5.6746,5.6603,5.7331,5.6933,5.6987,5.7223,5.6894,5.7105,5.7845,5.7881,5.7881,5.7881,5.7814,5.7476,5.69,5.6122,5.5412,5.4803,5.4668,5.4262,5.3687,5.3619,5.3585,5.3484,5.3416,5.345,5.3281,5.2672,5.2334,5.2232,5.1589,5.1185,5.1217,5.1116,5.0439,4.9187,4.9086,4.9086,4.9018,4.9018,4.9018,4.9018,4.9018,4.9018,4.9018,4.9018,4.9018,4.9018,4.9052,4.912,4.9221,4.9695,5.0101,5.0202,5.0642,5.0948,5.0947,5.098,5.1082,5.1048,5.1082,5.0608,4.9424,4.9763,4.983,4.9458,4.9695,5.0101,4.9999,4.956,4.9086,4.9018,4.9018,4.9018,4.9018,4.9018,4.9018,4.9018,4.9018,4.9018,4.9018,4.9018,4.9018,4.9018,4.9018,4.9018,4.9138,4.961,5.0202,5.1008,5.1569,5.2242,5.285,5.3167,5.3203,5.3203,5.3203,5.3203,5.3203,5.3203,5.3167,5.2947,5.2601,5.205,5.5209,5.5209,5.5209,5.5209,5.5209,5.5209,5.5481,5.5869,5.6638,5.7229,5.7543,5.7786,5.8178,5.8478,5.8582,5.8674,5.8822,5.8364,5.8059,5.7913,5.7881,5.7881,5.7881,5.7881,5.7816,5.7442,5.6833,5.6359,5.6021,5.5615,5.5006,5.4397,5.4228,5.3957,5.3518,5.3518,5.3518,5.3484,5.3247,5.3112,5.3044,5.2367,5.1961,5.1894,5.1488,5.0914,5.0541,5.0033,4.9526,4.9086,4.9018,4.9018,4.9018,4.9018,4.9018,4.9018,4.9018,4.9018,4.9086,4.9492,4.9763,4.9898,5.0439,5.0811,5.0879,5.1083,5.1252,5.1251,5.1217,5.1217,5.1285,5.1691,5.1522,5.0642,5.071,5.0777,5.0541,5.0644,5.0845,5.0777,5.0202,4.9796,4.9661,4.9424,4.9154,4.912,4.9086,4.9052,4.9052,4.9052,4.9018,4.9018,4.9018,4.9018,4.9018,4.9018,4.9018,4.9018,4.9316,5.0004,5.0796,5.1343,5.2054,5.2725,5.306,5.3203,5.3203,5.3203,5.3203,5.3203,5.3203,5.3167,5.313,5.2763,5.227,5.5209,5.5209,5.5209,5.5209,5.5209,5.5209,5.5451,5.6017,5.7134,5.7869,5.8464,5.9093,5.974,6.002,6.0008,6.001,6.0151,5.9948,5.9302,5.8355,5.7983,5.7881,5.7881,5.7881,5.7881,5.7814,5.7408,5.707,5.6799,5.6325,5.5615,5.4769,5.46,5.4228,5.3585,5.3518,5.3518,5.3518,5.3518,5.3518,5.3416,5.301,5.2739,5.2672,5.23,5.1928,5.1623,5.115,5.0574,4.9965,4.983,4.983,4.983,4.9864,4.983,4.983,4.983,4.9864,4.9864,5.027,5.0507,5.0608,5.1183,5.1589,5.1691,5.1793,5.2063,5.2063,5.2097,5.2063,5.2164,5.2435,5.2503,5.2131,5.1792,5.1657,5.1589,5.1352,5.1386,5.1352,5.0947,5.0608,5.0371,5.0202,4.983,4.9796,4.9593,4.9424,4.9357,4.9154,4.912,4.9052,4.9018,4.9018,4.9018,4.9018,4.9018,4.9018,4.9046,4.9925,5.077,5.1086,5.1629,5.2635,5.3203,5.3203,5.3203,5.3203,5.3203,5.3203,5.3203,5.3167,5.313,5.3004,5.2527,5.5209,5.5179,5.528,5.528,5.5229,5.533,5.5967,5.7039,5.8223,5.9302,6.0247,6.0586,6.1235,6.1877,6.1143,6.0998,6.1244,6.1086,6.0419,5.9268,5.849,5.8017,5.7915,5.7881,5.7881,5.7881,5.7814,5.7509,5.7002,5.69,5.6156,5.504,5.4905,5.4363,5.3856,5.3585,5.3619,5.3518,5.3518,5.3518,5.3518,5.3484,5.345,5.3416,5.3348,5.301,5.2469,5.23,5.1928,5.1286,5.1014,5.0948,5.115,5.1185,5.1016,5.1014,5.1183,5.1082,5.115,5.1183,5.1285,5.1319,5.1928,5.2367,5.2435,5.2875,5.3213,5.3247,5.3281,5.3348,5.3348,5.3382,5.3382,5.3348,5.2739,5.2401,5.2334,5.1826,5.1894,5.2131,5.1758,5.1285,5.1251,5.115,5.1016,5.0914,5.0507,5.0236,5.0101,4.9796,4.9289,4.9187,4.9289,4.912,4.912,4.9018,4.9018,4.9018,4.908,4.9698,5.0635,5.1034,5.1629,5.2613,5.3203,5.3203,5.3203,5.3203,5.3203,5.3203,5.3203,5.3203,5.313,5.3004,5.2858,5.5209,5.528,5.6134,5.5986,5.5401,5.6134,5.6686,5.7103,5.8268,5.9478,6.0544,6.1521,6.203,6.2341,6.207,6.2009,6.1936,6.1569,6.1197,6.0554,5.9302,5.8423,5.7983,5.7881,5.7881,5.7881,5.7881,5.778,5.7611,5.7543,5.707,5.6258,5.6089,5.5513,5.4499,5.4296,5.3991,5.3585,5.3518,5.3518,5.3518,5.3518,5.3518,5.3518,5.3518,5.3382,5.3213,5.3179,5.2536,5.1352,5.1217,5.1217,5.1286,5.1286,5.1352,5.132,5.1285,5.1219,5.1354,5.1758,5.1995,5.2097,5.2672,5.3179,5.3179,5.3382,5.3518,5.3518,5.3518,5.3518,5.3518,5.3518,5.3518,5.3484,5.3247,5.3112,5.3078,5.3044,5.301,5.3078,5.2469,5.2131,5.1928,5.1657,5.1386,5.1286,5.1116,5.0913,5.0845,5.0642,5.0202,4.9898,4.983,4.9458,4.9221,4.9086,4.9018,4.9018,4.9141,4.9381,5.0342,5.1138,5.197,5.3017,5.3146,5.3203,5.3203,5.3203,5.3203,5.3203,5.3203,5.3203,5.3203,5.3093,5.3093,5.5209,5.528,5.6493,5.6329,5.5401,5.6493,5.6991,5.7245,5.8268,5.9478,6.067,6.1837,6.2415,6.2415,6.2415,6.2415,6.2313,6.1941,6.1603,6.1028,5.9708,5.8626,5.8051,5.7881,5.7881,5.7881,5.7881,5.7881,5.7848,5.7881,5.7476,5.6867,5.6799,5.619,5.5108,5.4702,5.4431,5.3991,5.3687,5.3518,5.3518,5.3518,5.3518,5.3518,5.3518,5.3518,5.3518,5.3518,5.3044,5.2367,5.2198,5.2131,5.2131,5.2131,5.2164,5.2131,5.2164,5.2198,5.2232,5.2604,5.2773,5.2875,5.3315,5.345,5.3484,5.3518,5.3518,5.3518,5.3518,5.3518,5.3518,5.3518,5.3518,5.3518,5.3518,5.3518,5.3518,5.345,5.3484,5.3382,5.3112,5.2807,5.2807,5.2401,5.2232,5.2131,5.1928,5.1758,5.1623,5.142,5.115,5.0777,5.0574,5.0338,5.0168,5.0033,4.9898,4.9796,4.9554,4.9699,5.0189,5.1158,5.1898,5.2658,5.2959,5.3203,5.3203,5.3203,5.3203,5.3203,5.3203,5.3203,5.3203,5.3203,5.3203,5.528,5.5501,5.6686,5.6493,5.572,5.6686,5.7292,5.7434,5.836,5.961,6.0912,6.1951,6.2415,6.2415,6.2415,6.2415,6.2415,6.2313,6.1873,6.1061,5.9911,5.8829,5.8186,5.7949,5.7881,5.7881,5.7881,5.7881,5.7881,5.7881,5.7577,5.7171,5.7002,5.6562,5.5886,5.5243,5.4837,5.4634,5.4228,5.3923,5.3788,5.3754,5.3687,5.3518,5.3518,5.3518,5.3518,5.3518,5.3416,5.3484,5.3518,5.3348,5.3382,5.345,5.3416,5.3348,5.3247,5.3315,5.3416,5.3348,5.345,5.345,5.345,5.3518,5.3518,5.3518,5.3518,5.3518,5.3518,5.3518,5.3518,5.3518,5.3518,5.3518,5.3518,5.3518,5.3518,5.3518,5.3518,5.3518,5.3484,5.3518,5.3518,5.3518,5.345,5.2875,5.2672,5.2536,5.2401,5.2232,5.186,5.142,5.1319,5.1285,5.1117,5.1082,5.098,5.0845,5.0405,5.032,5.0385,5.108,5.1612,5.2136,5.2554,5.2915,5.3203,5.3203,5.3203,5.3203,5.3203,5.3203,5.3203,5.3203,5.3203,5.58,5.6735,5.79,5.7714,5.6896,5.79,5.8405,5.8405,5.8677,5.9957,6.1676,6.2302,6.2415,6.2415,6.2415,6.2415,6.2415,6.2381,6.2009,6.1231,6.0351,5.9471,5.8727,5.8186,5.7881,5.7881,5.7881,5.7881,5.7881,5.7881,5.7814,5.7645,5.7509,5.7273,5.663,5.6292,5.6021,5.5581,5.5277,5.4837,5.4431,5.4363,5.4126,5.3721,5.3619,5.3551,5.3518,5.3518,5.3518,5.3518,5.3518,5.3518,5.3518,5.3518,5.3518,5.3518,5.3518,5.3518,5.3518,5.3518,5.3518,5.3585,5.3619,5.3518,5.3518,5.3585,5.3585,5.3518,5.3518,5.3653,5.3687,5.3551,5.3585,5.3619,5.3551,5.3518,5.3518,5.3518,5.3518,5.3518,5.3518,5.3518,5.3518,5.3518,5.3518,5.3484,5.3382,5.3247,5.3112,5.2909,5.257,5.2131,5.2097,5.2029,5.186,5.1758,5.1691,5.1555,5.1183,5.0809,5.0861,5.0852,5.1368,5.1804,5.2159,5.2613,5.3133,5.3203,5.3203,5.3203,5.3203,5.3203,5.3203,5.3203,5.3203,5.5601,5.628,5.7434,5.7245,5.6445,5.7465,5.8268,5.8722,5.8812,6.0128,6.203,6.2415,6.2415,6.2415,6.2415,6.2415,6.2415,6.2381,6.2009,6.1264,6.0452,5.9708,5.8998,5.8287,5.7881,5.7881,5.7881,5.7881,5.7881,5.7881,5.7881,5.7881,5.7881,5.7679,5.7273,5.7002,5.6596,5.6224,5.5886,5.548,5.5175,5.5108,5.5006,5.4634,5.4499,5.4397,5.4093,5.4025,5.3822,5.3619,5.3518,5.3518,5.3518,5.3518,5.3518,5.3518,5.3518,5.3518,5.3518,5.3518,5.3687,5.3991,5.4025,5.4262,5.4431,5.4532,5.4532,5.4566,5.4566,5.4532,5.4499,5.416,5.4059,5.3923,5.3687,5.3551,5.3518,5.3518,5.3518,5.3518,5.3518,5.3518,5.3518,5.3518,5.3518,5.3484,5.3484,5.3382,5.3382,5.3247,5.3213,5.2942,5.2909,5.2773,5.257,5.2401,5.23,5.2131,5.1826,5.142,5.117,5.1089,5.1049,5.1687,5.2388,5.2727,5.3156,5.317,5.3203,5.3203,5.3203,5.3203,5.3203,5.3203,5.3203,5.5431,5.5819,5.6848,5.6656,5.5986,5.7181,5.8131,5.8722,5.8992,6.0417,6.207,6.2415,6.2415,6.2415,6.2415,6.2415,6.2415,6.2381,6.2042,6.1535,6.0791,6.0047,5.9268,5.8592,5.8051,5.7915,5.7881,5.7881,5.7881,5.7881,5.7881,5.7881,5.7881,5.7814,5.7712,5.734,5.7036,5.69,5.6528,5.6089,5.5919,5.5886,5.5784,5.5547,5.548,5.5277,5.4871,5.4735,5.4499,5.389,5.3856,5.3856,5.3788,5.3551,5.3518,5.3518,5.3653,5.3788,5.3856,5.3923,5.4262,5.4735,5.4769,5.504,5.548,5.5513,5.548,5.5547,5.5513,5.5513,5.5649,5.5141,5.4803,5.4668,5.4194,5.389,5.3822,5.3822,5.3923,5.3518,5.3518,5.3518,5.3518,5.3518,5.3518,5.3518,5.3518,5.3518,5.3518,5.3484,5.3416,5.3382,5.3247,5.3213,5.301,5.2909,5.2807,5.2706,5.2435,5.2164,5.1857,5.2261,5.2389,5.2255,5.2748,5.305,5.3229,5.3286,5.3277,5.324,5.3203,5.3203,5.3203,5.3203,5.3203,5.6378,5.8223,5.8405,5.836,5.8405,5.9434,5.9434,5.9036,5.9827,6.1078,6.2263,6.2415,6.2415,6.2415,6.2415,6.2415,6.2415,6.2381,6.2313,6.2009,6.1332,6.0622,5.9911,5.9066,5.849,5.8017,5.7881,5.7881,5.7881,5.7881,5.7881,5.7881,5.7881,5.7881,5.7848,5.7746,5.7611,5.7543,5.734,5.707,5.6731,5.6596,5.6393,5.6021,5.5987,5.5784,5.5615,5.5513,5.548,5.5378,5.5344,5.531,5.5006,5.4194,5.3754,5.3788,5.416,5.4397,5.4465,5.4938,5.5277,5.5513,5.5513,5.5547,5.575,5.5818,5.5987,5.5919,5.5886,5.5783,5.5716,5.5649,5.5547,5.548,5.5344,5.5174,5.5174,5.5108,5.4702,5.4025,5.3754,5.3585,5.3653,5.3619,5.3518,5.3518,5.3518,5.3518,5.3518,5.3518,5.3484,5.3484,5.3484,5.345,5.3416,5.3382,5.3315,5.3247,5.3112,5.3112,5.3073,5.3759,5.3957,5.3633,5.3317,5.3349,5.3466,5.3573,5.3482,5.3482,5.335,5.3203,5.3203,5.3203,5.3203,5.6232,5.7854,5.7854,5.8268,5.8812,5.939,5.974,5.986,6.0374,6.1276,6.211,6.2415,6.2415,6.2415,6.2415,6.2415,6.2415,6.2415,6.2415,6.2245,6.1637,6.1163,6.0554,5.9607,5.893,5.8423,5.8118,5.7881,5.7881,5.7881,5.7881,5.7881,5.7881,5.7881,5.7881,5.7848,5.7881,5.7881,5.7848,5.7712,5.7374,5.734,5.7103,5.6934,5.6765,5.6664,5.6292,5.6292,5.6089,5.5749,5.5683,5.5681,5.5512,5.5209,5.4668,5.4735,5.4972,5.5175,5.5209,5.5581,5.5818,5.6224,5.6292,5.6494,5.6731,5.69,5.6765,5.6799,5.6833,5.6833,5.69,5.6494,5.6292,5.619,5.5987,5.5818,5.575,5.575,5.531,5.4702,5.4431,5.4262,5.4025,5.389,5.3619,5.3518,5.3518,5.3518,5.3518,5.3518,5.3518,5.3518,5.3518,5.3518,5.3518,5.3518,5.3518,5.3518,5.3518,5.3518,5.3717,5.4102,5.4609,5.4741,5.4421,5.4187,5.4202,5.4509,5.4142,5.3739,5.3592,5.3424,5.3277,5.3203,5.3314,5.6035,5.7339,5.7086,5.7854,5.9036,5.917,5.9697,6.0501,6.0912,6.1554,6.2302,6.2415,6.2415,6.2415,6.2415,6.2415,6.2415,6.2415,6.2415,6.2279,6.1873,6.1501,6.0926,6.0216,5.937,5.8829,5.8524,5.8017,5.7881,5.7881,5.7881,5.7881,5.7881,5.7881,5.7881,5.7881,5.7881,5.7881,5.7881,5.7881,5.7881,5.7881,5.7881,5.7881,5.7881,5.7543,5.707,5.7036,5.6799,5.6461,5.6258,5.6224,5.6156,5.6156,5.6156,5.6122,5.6021,5.5953,5.5987,5.6224,5.6596,5.6968,5.7002,5.734,5.7577,5.7645,5.7746,5.7881,5.7814,5.7746,5.7577,5.7306,5.707,5.6934,5.6562,5.619,5.6325,5.6393,5.6461,5.5919,5.5378,5.504,5.4871,5.4296,5.4025,5.3788,5.3788,5.3518,5.3518,5.3518,5.3518,5.3518,5.3518,5.3518,5.3518,5.3518,5.3518,5.3518,5.3518,5.3518,5.3783,5.4106,5.4644,5.5235,5.5741,5.5566,5.5541,5.528,5.4876,5.4473,5.3995,5.3922,5.4142,5.3959,5.3849,5.6572,5.8496,5.7434,5.8282,6.0204,6.0332,6.0417,6.0787,6.1716,6.2263,6.2415,6.2415,6.2415,6.2415,6.2415,6.2415,6.2415,6.2415,6.2415,6.2347,6.2212,6.1873,6.1434,6.1231,6.0148,5.9438,5.9032,5.8457,5.8118,5.7949,5.7881,5.7881,5.7881,5.7881,5.7881,5.7881,5.7881,5.7881,5.7881,5.7881,5.7881,5.7881,5.7881,5.7881,5.7881,5.7814,5.7645,5.7611,5.7509,5.7543,5.7543,5.7577,5.7645,5.7611,5.7611,5.7442,5.7103,5.6664,5.6765,5.707,5.7374,5.7577,5.7645,5.778,5.7848,5.7881,5.7881,5.7881,5.7881,5.7881,5.7881,5.778,5.7746,5.7679,5.7442,5.7374,5.7442,5.7036,5.7103,5.707,5.6494,5.6089,5.5818,5.5074,5.4465,5.4228,5.3991,5.3754,5.3551,5.3585,5.3518,5.3518,5.3518,5.3518,5.3518,5.3518,5.3518,5.3518,5.3518,5.3518,5.375,5.4106,5.4757,5.5354,5.6036,5.6519,5.6308,5.5944,5.5603,5.5244,5.4913,5.506,5.5354,5.4987,5.4473,5.7229,5.8677,5.748,5.878,6.1358,6.0912,6.0995,6.1602,6.215,6.2415,6.2415,6.2415,6.2415,6.2415,6.2415,6.2415,6.2415,6.2415,6.2415,6.2415,6.2381,6.2212,6.1907,6.1501,6.0757,6.0351,5.9776,5.9235,5.866,5.8118,5.7881,5.7915,5.7881,5.7881,5.7949,5.7881,5.7881,5.7881,5.7881,5.7881,5.7881,5.7881,5.7881,5.7881,5.7881,5.7881,5.7881,5.7881,5.7881,5.7881,5.7881,5.7881,5.7881,5.7848,5.7848,5.7848,5.7611,5.7408,5.7442,5.7712,5.7848,5.7881,5.7881,5.7881,5.7881,5.7881,5.7881,5.7881,5.7881,5.7881,5.7881,5.7881,5.7881,5.7881,5.7881,5.7881,5.7881,5.7881,5.7712,5.7679,5.7611,5.7103,5.6562,5.5953,5.5344,5.5074,5.4702,5.4329,5.3991,5.3721,5.3653,5.3518,5.3518,5.3518,5.3518,5.3518,5.3518,5.3518,5.3518,5.3517,5.3651,5.4074,5.4637,5.5326,5.5988,5.6397,5.6709,5.6643,5.6322,5.6088,5.5868,5.5941,5.5941,5.5647,5.5244,5.7714,5.8677,5.748,5.9093,6.215,6.0828,6.0995,6.2341,6.2381,6.2415,6.2415,6.2415,6.2415,6.2415,6.2415,6.2415,6.2415,6.2415,6.2415,6.2415,6.2415,6.2381,6.2178,6.1806,6.1501,6.1332,6.0655,6.0013,5.9336,5.8829,5.849,5.8186,5.8287,5.822,5.8152,5.7983,5.7881,5.7881,5.7881,5.7881,5.7881,5.7881,5.7881,5.7881,5.7881,5.7881,5.7881,5.7881,5.7881,5.7881,5.7881,5.7881,5.7881,5.7881,5.7881,5.7881,5.778,5.778,5.778,5.7848,5.7881,5.7881,5.7881,5.7881,5.7881,5.7881,5.7881,5.7881,5.7881,5.7881,5.7881,5.7881,5.7881,5.7881,5.7881,5.7881,5.7881,5.7881,5.7881,5.7814,5.778,5.7814,5.7306,5.6765,5.6292,5.5953,5.548,5.4972,5.4566,5.4194,5.4025,5.3923,5.3653,5.3619,5.3585,5.3551,5.3551,5.3585,5.3585,5.3585,5.3652,5.3882,5.4264,5.4999,5.5759,5.6295,5.6587,5.6831,5.7079,5.6969,5.6822,5.6528,5.6381,5.6124,5.6014,5.7714,5.8677,5.7527,5.9093,6.2189,5.987,6.0289,6.2341,6.2415,6.2415,6.2415,6.2415,6.2415,6.2415,6.2415,6.2415,6.2415,6.2415,6.2415,6.2415,6.2415,6.2415,6.2313,6.2178,6.1941,6.1467,6.1231,6.0791,6.025,6.008,5.9539,5.9066,5.8998,5.8964,5.8795,5.8524,5.8254,5.8186,5.8118,5.8017,5.7983,5.7915,5.7881,5.7881,5.7881,5.7881,5.7881,5.7881,5.7881,5.7881,5.7881,5.7881,5.7881,5.7881,5.7881,5.7881,5.7881,5.7881,5.7881,5.7881,5.7881,5.7881,5.7881,5.7881,5.7881,5.7881,5.7881,5.7881,5.7881,5.7881,5.7881,5.7881,5.7881,5.7881,5.7881,5.7881,5.7881,5.7881,5.7881,5.7881,5.7881,5.7881,5.7881,5.7306,5.707,5.6731,5.6122,5.5581,5.5243,5.4905,5.4668,5.4431,5.3957,5.3788,5.3687,5.3788,5.4126,5.4059,5.3957,5.3788,5.3687,5.3885,5.4011,5.4359,5.5029,5.5759,5.6474,5.6826,5.7253,5.7721,5.774,5.7299,5.7189,5.7152,5.6969,5.8405,5.8767,5.8314,5.9784,6.2223,5.9827,6.0171,6.2183,6.2415,6.2415,6.2415,6.2415,6.2415,6.2415,6.2415,6.2415,6.2415,6.2415,6.2415,6.2415,6.2415,6.2415,6.2415,6.2347,6.2212,6.1975,6.1907,6.1569,6.096,6.1129,6.0994,6.0554,5.9979,5.9708,5.9505,5.9336,5.9201,5.9032,5.8795,5.8592,5.849,5.8084,5.7881,5.7881,5.7881,5.7881,5.7881,5.7881,5.7881,5.7881,5.7881,5.7881,5.7881,5.7881,5.7881,5.7881,5.7881,5.7881,5.7881,5.7881,5.7881,5.7881,5.7881,5.7881,5.7881,5.7881,5.7881,5.7881,5.7949,5.8084,5.7915,5.7881,5.7881,5.7881,5.7915,5.7949,5.7983,5.8051,5.7915,5.7915,5.7881,5.7881,5.7881,5.7814,5.7645,5.7442,5.6799,5.6258,5.5953,5.5615,5.5412,5.5175,5.4735,5.46,5.4566,5.4668,5.4803,5.46,5.4397,5.4296,5.4126,5.3619,5.3784,5.4044,5.4391,5.5179,5.5984,5.6773,5.7351,5.7797,5.7937,5.7886,5.7923,5.7997,5.7703,5.9125,5.8857,5.917,6.0289,6.148,5.9653,6.0204,6.2144,6.2415,6.2415,6.2415,6.2415,6.2415,6.2415,6.2415,6.2415,6.2415,6.2415,6.2415,6.2415,6.2415,6.2415,6.2415,6.2381,6.2381,6.2415,6.2347,6.2009,6.167,6.2144,6.1941,6.1501,6.1095,6.0791,6.0385,6.0216,6.0114,5.9945,5.9674,5.9336,5.9235,5.8896,5.8626,5.8592,5.8457,5.8287,5.822,5.8084,5.7881,5.7881,5.7881,5.7881,5.7881,5.7881,5.7881,5.7881,5.7881,5.7915,5.7881,5.7881,5.7881,5.7881,5.7881,5.7881,5.7915,5.8084,5.8321,5.8321,5.8423,5.8457,5.8321,5.8321,5.8321,5.8423,5.8389,5.8423,5.8423,5.8423,5.8152,5.7949,5.7915,5.7881,5.7881,5.7881,5.7814,5.7712,5.7476,5.7002,5.6799,5.6461,5.6122,5.5919,5.5649,5.5615,5.5649,5.548,5.531,5.5208,5.5074,5.5006,5.4735,5.4194,5.3856,5.4126,5.4516,5.4834,5.5472,5.6313,5.7116,5.7821,5.7914,5.7997,5.7997,5.7997,5.7997,5.9827,5.8992,6.0032,6.0544,6.0544,5.9346,6.0247,6.2263,6.2415,6.2415,6.2415,6.2415,6.2415,6.2415,6.2415,6.2415,6.2415,6.2415,6.2415,6.2415,6.2415,6.2415,6.2415,6.2415,6.2415,6.2415,6.2381,6.2347,6.2279,6.2347,6.2313,6.2279,6.1975,6.1738,6.1231,6.052,6.0148,6.0148,6.0182,6.0114,6.0047,5.9877,5.9708,5.9573,5.9235,5.8998,5.8896,5.8558,5.8389,5.8321,5.8287,5.8287,5.8254,5.822,5.8186,5.8152,5.8118,5.8051,5.8019,5.7949,5.8118,5.822,5.8389,5.8287,5.822,5.8524,5.8998,5.9032,5.9404,5.9471,5.9268,5.8961,5.8998,5.8998,5.8998,5.8998,5.8998,5.8964,5.8761,5.8389,5.8084,5.7915,5.7881,5.7881,5.7881,5.7848,5.7881,5.7712,5.7442,5.7239,5.6833,5.6697,5.6528,5.6461,5.6359,5.6021,5.5852,5.5749,5.5715,5.5716,5.548,5.4972,5.4702,5.4601,5.473,5.5085,5.5443,5.5865,5.6902,5.7867,5.7914,5.7997,5.7997,5.7997,5.7997,5.987,5.8902,6.0118,6.0161,5.9522,5.9903,6.0953,6.2223,6.2415,6.2415,6.2415,6.2415,6.2415,6.2415,6.2415,6.2415,6.2415,6.2415,6.2415,6.2415,6.2415,6.2415,6.2415,6.2415,6.2415,6.2415,6.2415,6.2415,6.2381,6.2415,6.2415,6.2415,6.2381,6.2245,6.2042,6.167,6.1637,6.1535,6.1231,6.0892,6.0825,6.0452,6.0182,6.0182,5.9911,5.9742,5.9742,5.9336,5.9167,5.9167,5.9133,5.9167,5.9201,5.9201,5.9235,5.9268,5.9302,5.937,5.937,5.937,5.937,5.9336,5.9235,5.9201,5.9404,5.9539,5.9708,5.9776,6.008,6.0047,5.9776,5.9742,5.9742,5.9742,5.9742,5.9742,5.9742,5.9708,5.9539,5.9032,5.866,5.8186,5.8017,5.7915,5.7881,5.7881,5.7881,5.7881,5.7679,5.7712,5.7509,5.7509,5.7408,5.7273,5.7103,5.6799,5.6765,5.6833,5.6664,5.6461,5.6122,5.575,5.5723,5.5655,5.5506,5.54,5.621,5.6948,5.7313,5.7844,5.7937,5.7997,5.7997,5.7997,5.7997,6.0017,5.9036,6.0544,6.0289,5.9125,6.0118,6.1276,6.2263,6.2415,6.2415,6.2415,6.2415,6.2415,6.2415,6.2415,6.2415,6.2415,6.2415,6.2415,6.2415,6.2415,6.2415,6.2415,6.2415,6.2415,6.2415,6.2415,6.2415,6.2415,6.2415,6.2415,6.2415,6.2415,6.2381,6.2313,6.2279,6.2279,6.211,6.1839,6.167,6.1535,6.1264,6.0994,6.0892,6.0723,6.052,6.0452,6.0317,6.0114,6.0148,6.0148,6.0148,6.0148,6.0114,6.0114,6.008,6.008,6.0182,6.0385,6.0452,6.0554,6.0858,6.0486,6.0114,6.0182,6.0317,6.0452,6.0554,6.0689,6.0655,6.0554,6.0554,6.052,6.052,6.052,6.052,6.052,6.0486,6.0216,5.9708,5.8998,5.8558,5.8118,5.7983,5.7881,5.7881,5.7881,5.7881,5.7881,5.7881,5.7881,5.7848,5.7848,5.7679,5.7611,5.7611,5.7645,5.7848,5.7509,5.7103,5.6934,5.6632,5.6679,5.671,5.6422,5.6532,5.7476,5.8151,5.8275,5.8147,5.7937,5.7997,5.7997,5.7997,5.7997,6.0291,5.9282,6.1358,6.0953,5.9302,6.0289,6.1399,6.2415,6.2415,6.2415,6.2415,6.2415,6.2415,6.2415,6.2415,6.2415,6.2415,6.2415,6.2415,6.2415,6.2415,6.2415,6.2415,6.2415,6.2415,6.2415,6.2415,6.2415,6.2415,6.2415,6.2415,6.2415,6.2415,6.2415,6.2415,6.2415,6.2415,6.2313,6.2279,6.2178,6.2076,6.2144,6.1975,6.1839,6.1569,6.1366,6.1163,6.0858,6.0554,6.0419,6.0351,6.0283,6.025,6.0182,6.0182,6.0216,6.0317,6.0791,6.1163,6.1298,6.1535,6.1704,6.1028,6.0452,6.0486,6.1028,6.1231,6.1434,6.1603,6.1535,6.1467,6.14,6.1332,6.1332,6.1332,6.1332,6.1332,6.1163,6.0858,6.0283,5.9404,5.8829,5.8321,5.8084,5.8017,5.7881,5.7881,5.7881,5.7881,5.7881,5.7881,5.7881,5.7881,5.7881,5.7881,5.7881,5.7881,5.7881,5.7881,5.7577,5.7476,5.7378,5.7394,5.7329,5.7211,5.76,5.8608,5.892,5.8967,5.8767,5.8657,5.818,5.8217,5.8033,5.7997,5.9713,5.9484,6.0639,6.0745,6.0332,6.1358,6.211,6.2381,6.2415,6.2415,6.2415,6.2415,6.2415,6.2415,6.2415,6.2415,6.2415,6.2415,6.2415,6.2415,6.2415,6.2415,6.2415,6.2415,6.2415,6.2415,6.2415,6.2415,6.2415,6.2415,6.2415,6.2415,6.2415,6.2415,6.2415,6.2415,6.2415,6.2415,6.2415,6.2415,6.2415,6.2415,6.2415,6.2245,6.2178,6.1975,6.1839,6.1738,6.1569,6.1637,6.167,6.1704,6.1738,6.1738,6.1738,6.1738,6.1772,6.1873,6.2042,6.2076,6.2144,6.2313,6.1839,6.1873,6.1839,6.1839,6.2009,6.2076,6.2144,6.2009,6.1975,6.1941,6.1907,6.1873,6.1907,6.1873,6.1873,6.1806,6.1467,6.0791,5.9945,5.9302,5.8761,5.8355,5.8287,5.8017,5.7915,5.8017,5.7915,5.7915,5.7881,5.7881,5.7881,5.7881,5.7881,5.7881,5.7881,5.7881,5.7881,5.7881,5.7746,5.7719,5.7904,5.8152,5.8424,5.8973,5.9695,5.9846,5.9832,5.9869,5.9758,5.9024,5.8437,5.8327,5.818,5.9205,5.9177,6.0388,6.105,6.1406,6.207,6.2415,6.2415,6.2415,6.2415,6.2415,6.2415,6.2415,6.2415,6.2415,6.2415,6.2415,6.2415,6.2415,6.2415,6.2415,6.2415,6.2415,6.2415,6.2415,6.2415,6.2415,6.2415,6.2415,6.2415,6.2415,6.2415,6.2415,6.2415,6.2415,6.2415,6.2415,6.2415,6.2415,6.2415,6.2415,6.2415,6.2415,6.2415,6.2415,6.2415,6.2415,6.2415,6.2415,6.2415,6.2415,6.2381,6.2381,6.2347,6.2347,6.2279,6.2279,6.2245,6.2313,6.2347,6.2381,6.2415,6.2415,6.2347,6.2313,6.2245,6.2313,6.2347,6.2381,6.2381,6.2381,6.2381,6.2381,6.2381,6.2381,6.2381,6.2381,6.2381,6.1907,6.1298,6.0622,5.9979,5.9438,5.8998,5.8795,5.8964,5.8896,5.8761,5.8457,5.8084,5.7949,5.7881,5.7881,5.7881,5.7881,5.7881,5.7881,5.7881,5.7881,5.7881,5.7881,5.8031,5.8216,5.9001,5.988,6.032,6.0612,6.0762,6.0786,6.075,6.0603,5.9979,5.9318,5.8914,5.8731,5.8652,5.858,6.0399,6.1525,6.2245,6.2245,6.2313,6.2415,6.2415,6.2415,6.2415,6.2415,6.2415,6.2415,6.2415,6.2415,6.2415,6.2415,6.2415,6.2415,6.2415,6.2415,6.2415,6.2415,6.2415,6.2415,6.2415,6.2415,6.2415,6.2415,6.2415,6.2415,6.2415,6.2415,6.2415,6.2415,6.2415,6.2415,6.2415,6.2415,6.2415,6.2415,6.2415,6.2415,6.2415,6.2415,6.2415,6.2415,6.2415,6.2415,6.2415,6.2415,6.2415,6.2415,6.2415,6.2415,6.2415,6.2415,6.2415,6.2415,6.2415,6.2415,6.2415,6.2415,6.2415,6.2415,6.2415,6.2415,6.2415,6.2415,6.2415,6.2415,6.2415,6.2415,6.2415,6.2415,6.2415,6.2381,6.2144,6.1603,6.1163,6.0588,6.025,5.9776,5.9404,5.9776,5.9776,5.9505,5.9167,5.8558,5.822,5.8051,5.7881,5.7881,5.7881,5.7881,5.7881,5.7881,5.7881,5.7881,5.7881,5.8173,5.8528,5.9406,6.0306,6.094,6.1334,6.148,6.152,6.13,6.108,6.0786,6.0346,5.9881,5.9478,5.8086,5.8925,5.9933,6.0858,6.1501,6.1569,6.1907,6.2381,6.2415,6.2415,6.2415,6.2415,6.2415,6.2415,6.2415,6.2415,6.2415,6.2415,6.2415,6.2415,6.2415,6.2415,6.2415,6.2415,6.2415,6.2415,6.2415,6.2415,6.2415,6.2415,6.2415,6.2415,6.2415,6.2415,6.2415,6.2415,6.2415,6.2415,6.2415,6.2415,6.2415,6.2415,6.2415,6.2415,6.2415,6.2415,6.2415,6.2415,6.2415,6.2415,6.2415,6.2415,6.2415,6.2415,6.2415,6.2415,6.2415,6.2415,6.2415,6.2415,6.2415,6.2415,6.2415,6.2415,6.2415,6.2415,6.2415,6.2415,6.2415,6.2415,6.2415,6.2415,6.2415,6.2415,6.2415,6.2415,6.2415,6.2347,6.2279,6.1975,6.1603,6.1298,6.096,6.0655,6.0216,6.008,6.0047,5.9911,5.9776,5.9336,5.8727,5.8457,5.7983,5.7915,5.7881,5.7881,5.7881,5.7881,5.7881,5.7881,5.7881,5.8065,5.8388,5.9576,6.0503,6.1148,6.1776,6.2361,6.2291,6.1924,6.1851,6.1667,6.163,6.13,6.075,5.7897,5.8555,5.9302,6.008,6.0757,6.1129,6.1535,6.1907,6.2245,6.2415,6.2415,6.2415,6.2415,6.2415,6.2415,6.2415,6.2415,6.2415,6.2415,6.2415,6.2415,6.2415,6.2415,6.2415,6.2415,6.2415,6.2415,6.2415,6.2415,6.2415,6.2415,6.2415,6.2415,6.2415,6.2415,6.2415,6.2415,6.2415,6.2415,6.2415,6.2415,6.2415,6.2415,6.2415,6.2415,6.2415,6.2415,6.2415,6.2415,6.2415,6.2415,6.2415,6.2415,6.2415,6.2415,6.2415,6.2415,6.2415,6.2415,6.2415,6.2415,6.2415,6.2415,6.2415,6.2415,6.2415,6.2415,6.2415,6.2415,6.2415,6.2415,6.2415,6.2415,6.2415,6.2415,6.2415,6.2415,6.2381,6.2347,6.2245,6.2009,6.1941,6.1704,6.167,6.1332,6.1332,6.1163,6.0757,6.0554,6.0148,5.9539,5.8964,5.8558,5.8051,5.7881,5.7881,5.7881,5.7881,5.7881,5.7881,5.7918,5.7954,5.8351,5.9543,6.0549,6.1257,6.1906,6.2541,6.278,6.2475,6.2548,6.2658,6.2585,6.2438,6.1924,5.7915,5.7983,5.8592,5.9302,6.0013,6.0791,6.1231,6.1434,6.2076,6.2415,6.2415,6.2415,6.2415,6.2415,6.2415,6.2415,6.2415,6.2415,6.2415,6.2415,6.2415,6.2415,6.2415,6.2415,6.2415,6.2415,6.2415,6.2415,6.2415,6.2415,6.2415,6.2415,6.2415,6.2415,6.2415,6.2415,6.2415,6.2415,6.2415,6.2415,6.2415,6.2415,6.2415,6.2415,6.2415,6.2415,6.2415,6.2415,6.2415,6.2415,6.2415,6.2415,6.2415,6.2415,6.2415,6.2415,6.2415,6.2415,6.2415,6.2415,6.2415,6.2415,6.2415,6.2415,6.2415,6.2415,6.2415,6.2415,6.2415,6.2415,6.2415,6.2415,6.2415,6.2415,6.2415,6.2415,6.2415,6.2415,6.2415,6.2415,6.2381,6.2313,6.2313,6.2313,6.2347,6.2381,6.2245,6.1941,6.1535,6.1028,6.0452,5.9844,5.9336,5.8795,5.822,5.7949,5.7949,5.7881,5.7881,5.7881,5.7918,5.7918,5.8423,5.9509,6.0489,6.1113,6.186,6.2541,6.2705,6.2805,6.2805,6.2805,6.2768,6.2658,6.2732,5.7881,5.7915,5.8084,5.8524,5.9268,6.0047,6.0689,6.1366,6.2042,6.2415,6.2415,6.2415,6.2415,6.2415,6.2415,6.2415,6.2415,6.2415,6.2415,6.2415,6.2415,6.2415,6.2415,6.2415,6.2415,6.2415,6.2415,6.2415,6.2415,6.2415,6.2415,6.2415,6.2415,6.2415,6.2415,6.2415,6.2415,6.2415,6.2415,6.2415,6.2415,6.2415,6.2415,6.2415,6.2415,6.2415,6.2415,6.2415,6.2415,6.2415,6.2415,6.2415,6.2415,6.2415,6.2415,6.2415,6.2415,6.2415,6.2415,6.2415,6.2415,6.2415,6.2415,6.2415,6.2415,6.2415,6.2415,6.2415,6.2415,6.2415,6.2415,6.2415,6.2415,6.2415,6.2415,6.2415,6.2415,6.2415,6.2415,6.2415,6.2381,6.2381,6.2381,6.2381,6.2381,6.2415,6.2415,6.2144,6.2042,6.167,6.1298,6.0757,6.0148,5.9505,5.893,5.822,5.8051,5.7949,5.7881,5.7881,5.7881,5.7881,5.8529,5.9671,6.0304,6.0849,6.1604,6.2592,6.2705,6.2805,6.2805,6.2805,6.2805,6.2805,6.2805]}]]